<?xml version="1.0" encoding="UTF-8" standalone="no" ?>
<gpx xmlns="http://www.topografix.com/GPX/1/1" xmlns:xsi="http://www.w3.org/2001/XMLSchema-instance" xsi:schemaLocation="http://www.topografix.com/GPX/1/1 http://www.topografix.com/GPX/1/1/gpx.xsd" version="1.1" creator="VisuGPX - https://www.visugpx.com">
  <metadata>
    <name>J3 Jura</name>
    <desc><![CDATA[#jura ]]></desc>
  </metadata>
  <trk>
    <name><![CDATA[J3 Jura_1]]></name>
    <trkseg>
      <trkpt lat="47.78184" lon="6.01653">
        <ele>216.8</ele>
        <time>2022-06-19T06:09:54Z</time>
      </trkpt>
      <trkpt lat="47.7818" lon="6.01657">
        <ele>296.8</ele>
        <time>2022-06-19T06:09:55Z</time>
      </trkpt>
      <trkpt lat="47.78176" lon="6.01662">
        <ele>296.8</ele>
        <time>2022-06-19T06:09:56Z</time>
      </trkpt>
      <trkpt lat="47.78164" lon="6.01676">
        <ele>216</ele>
        <time>2022-06-19T06:09:59Z</time>
      </trkpt>
      <trkpt lat="47.7816" lon="6.0168">
        <ele>215.8</ele>
        <time>2022-06-19T06:10:00Z</time>
      </trkpt>
      <trkpt lat="47.78111" lon="6.01734">
        <ele>216</ele>
        <time>2022-06-19T06:10:12Z</time>
      </trkpt>
      <trkpt lat="47.78065" lon="6.01786">
        <ele>216.2</ele>
        <time>2022-06-19T06:10:24Z</time>
      </trkpt>
      <trkpt lat="47.78019" lon="6.01837">
        <ele>214.4</ele>
        <time>2022-06-19T06:10:36Z</time>
      </trkpt>
      <trkpt lat="47.77969" lon="6.0189">
        <ele>215.2</ele>
        <time>2022-06-19T06:10:49Z</time>
      </trkpt>
      <trkpt lat="47.77921" lon="6.01937">
        <ele>215.4</ele>
        <time>2022-06-19T06:11:02Z</time>
      </trkpt>
      <trkpt lat="47.77871" lon="6.01999">
        <ele>215.2</ele>
        <time>2022-06-19T06:11:15Z</time>
      </trkpt>
      <trkpt lat="47.77822" lon="6.02055">
        <ele>216.6</ele>
        <time>2022-06-19T06:11:28Z</time>
      </trkpt>
      <trkpt lat="47.77773" lon="6.02111">
        <ele>216</ele>
        <time>2022-06-19T06:11:40Z</time>
      </trkpt>
      <trkpt lat="47.77726" lon="6.02167">
        <ele>216.2</ele>
        <time>2022-06-19T06:11:52Z</time>
      </trkpt>
      <trkpt lat="47.77679" lon="6.0222">
        <ele>216.6</ele>
        <time>2022-06-19T06:12:04Z</time>
      </trkpt>
      <trkpt lat="47.77632" lon="6.0227">
        <ele>215.8</ele>
        <time>2022-06-19T06:12:17Z</time>
      </trkpt>
      <trkpt lat="47.77591" lon="6.0234">
        <ele>214.4</ele>
        <time>2022-06-19T06:12:29Z</time>
      </trkpt>
      <trkpt lat="47.77548" lon="6.024">
        <ele>213.4</ele>
        <time>2022-06-19T06:12:40Z</time>
      </trkpt>
      <trkpt lat="47.77501" lon="6.02461">
        <ele>213.2</ele>
        <time>2022-06-19T06:12:52Z</time>
      </trkpt>
      <trkpt lat="47.77462" lon="6.02521">
        <ele>213.8</ele>
        <time>2022-06-19T06:13:03Z</time>
      </trkpt>
      <trkpt lat="47.77422" lon="6.02587">
        <ele>214.8</ele>
        <time>2022-06-19T06:13:16Z</time>
      </trkpt>
      <trkpt lat="47.77397" lon="6.02624">
        <ele>216.4</ele>
        <time>2022-06-19T06:13:23Z</time>
      </trkpt>
      <trkpt lat="47.77354" lon="6.02684">
        <ele>215.2</ele>
        <time>2022-06-19T06:13:35Z</time>
      </trkpt>
      <trkpt lat="47.77315" lon="6.02752">
        <ele>215.4</ele>
        <time>2022-06-19T06:13:47Z</time>
      </trkpt>
      <trkpt lat="47.77279" lon="6.02822">
        <ele>215.6</ele>
        <time>2022-06-19T06:13:59Z</time>
      </trkpt>
      <trkpt lat="47.77245" lon="6.02895">
        <ele>214.8</ele>
        <time>2022-06-19T06:14:11Z</time>
      </trkpt>
      <trkpt lat="47.77209" lon="6.02968">
        <ele>215.8</ele>
        <time>2022-06-19T06:14:24Z</time>
      </trkpt>
      <trkpt lat="47.77174" lon="6.03038">
        <ele>217.2</ele>
        <time>2022-06-19T06:14:40Z</time>
      </trkpt>
      <trkpt lat="47.77142" lon="6.03109">
        <ele>218.6</ele>
        <time>2022-06-19T06:14:58Z</time>
      </trkpt>
      <trkpt lat="47.77101" lon="6.03167">
        <ele>219.4</ele>
        <time>2022-06-19T06:15:17Z</time>
      </trkpt>
      <trkpt lat="47.7705" lon="6.0321">
        <ele>218.8</ele>
        <time>2022-06-19T06:15:31Z</time>
      </trkpt>
      <trkpt lat="47.76994" lon="6.03242">
        <ele>217.8</ele>
        <time>2022-06-19T06:15:44Z</time>
      </trkpt>
      <trkpt lat="47.7699" lon="6.03245">
        <ele>217.6</ele>
        <time>2022-06-19T06:15:45Z</time>
      </trkpt>
      <trkpt lat="47.76934" lon="6.03279">
        <ele>218.2</ele>
        <time>2022-06-19T06:15:57Z</time>
      </trkpt>
      <trkpt lat="47.76907" lon="6.03296">
        <ele>214.8</ele>
        <time>2022-06-19T06:16:03Z</time>
      </trkpt>
      <trkpt lat="47.76903" lon="6.03298">
        <ele>214.8</ele>
        <time>2022-06-19T06:16:04Z</time>
      </trkpt>
      <trkpt lat="47.7685" lon="6.0333">
        <ele>216</ele>
        <time>2022-06-19T06:16:15Z</time>
      </trkpt>
      <trkpt lat="47.76797" lon="6.03362">
        <ele>214.4</ele>
        <time>2022-06-19T06:16:26Z</time>
      </trkpt>
      <trkpt lat="47.76743" lon="6.03393">
        <ele>212.8</ele>
        <time>2022-06-19T06:16:37Z</time>
      </trkpt>
      <trkpt lat="47.76686" lon="6.03425">
        <ele>212.4</ele>
        <time>2022-06-19T06:16:49Z</time>
      </trkpt>
      <trkpt lat="47.76672" lon="6.03432">
        <ele>210.4</ele>
        <time>2022-06-19T06:16:52Z</time>
      </trkpt>
      <trkpt lat="47.76651" lon="6.03443">
        <ele>214.4</ele>
        <time>2022-06-19T06:16:57Z</time>
      </trkpt>
      <trkpt lat="47.76644" lon="6.03448">
        <ele>215.4</ele>
        <time>2022-06-19T06:16:59Z</time>
      </trkpt>
      <trkpt lat="47.7659" lon="6.03479">
        <ele>215.2</ele>
        <time>2022-06-19T06:17:14Z</time>
      </trkpt>
      <trkpt lat="47.76532" lon="6.03515">
        <ele>214.8</ele>
        <time>2022-06-19T06:17:27Z</time>
      </trkpt>
      <trkpt lat="47.76475" lon="6.03548">
        <ele>214.8</ele>
        <time>2022-06-19T06:17:39Z</time>
      </trkpt>
      <trkpt lat="47.76419" lon="6.03579">
        <ele>215.4</ele>
        <time>2022-06-19T06:17:51Z</time>
      </trkpt>
      <trkpt lat="47.76365" lon="6.0361">
        <ele>214.8</ele>
        <time>2022-06-19T06:18:05Z</time>
      </trkpt>
      <trkpt lat="47.76348" lon="6.03623">
        <ele>214.6</ele>
        <time>2022-06-19T06:18:13Z</time>
      </trkpt>
      <trkpt lat="47.76347" lon="6.03625">
        <ele>214.6</ele>
        <time>2022-06-19T06:18:14Z</time>
      </trkpt>
      <trkpt lat="47.76347" lon="6.03629">
        <ele>214.6</ele>
        <time>2022-06-19T06:18:15Z</time>
      </trkpt>
      <trkpt lat="47.76347" lon="6.03632">
        <ele>214.6</ele>
        <time>2022-06-19T06:18:16Z</time>
      </trkpt>
      <trkpt lat="47.76347" lon="6.03636">
        <ele>214.4</ele>
        <time>2022-06-19T06:18:17Z</time>
      </trkpt>
      <trkpt lat="47.76348" lon="6.0364">
        <ele>214.4</ele>
        <time>2022-06-19T06:18:18Z</time>
      </trkpt>
      <trkpt lat="47.76349" lon="6.03644">
        <ele>214.4</ele>
        <time>2022-06-19T06:18:19Z</time>
      </trkpt>
      <trkpt lat="47.7635" lon="6.03648">
        <ele>214.2</ele>
        <time>2022-06-19T06:18:20Z</time>
      </trkpt>
      <trkpt lat="47.76378" lon="6.03723">
        <ele>215.4</ele>
        <time>2022-06-19T06:18:37Z</time>
      </trkpt>
      <trkpt lat="47.76412" lon="6.03789">
        <ele>217</ele>
        <time>2022-06-19T06:18:52Z</time>
      </trkpt>
      <trkpt lat="47.76446" lon="6.03853">
        <ele>218.2</ele>
        <time>2022-06-19T06:19:09Z</time>
      </trkpt>
      <trkpt lat="47.76439" lon="6.03878">
        <ele>217.4</ele>
        <time>2022-06-19T06:19:14Z</time>
      </trkpt>
      <trkpt lat="47.76396" lon="6.0394">
        <ele>216.8</ele>
        <time>2022-06-19T06:19:27Z</time>
      </trkpt>
      <trkpt lat="47.76351" lon="6.04002">
        <ele>217</ele>
        <time>2022-06-19T06:19:39Z</time>
      </trkpt>
      <trkpt lat="47.76308" lon="6.04057">
        <ele>215.4</ele>
        <time>2022-06-19T06:19:51Z</time>
      </trkpt>
      <trkpt lat="47.76305" lon="6.0406">
        <ele>216.4</ele>
        <time>2022-06-19T06:19:52Z</time>
      </trkpt>
      <trkpt lat="47.76256" lon="6.04107">
        <ele>218.8</ele>
        <time>2022-06-19T06:20:07Z</time>
      </trkpt>
      <trkpt lat="47.76208" lon="6.04155">
        <ele>219.8</ele>
        <time>2022-06-19T06:20:22Z</time>
      </trkpt>
      <trkpt lat="47.76155" lon="6.04197">
        <ele>220.4</ele>
        <time>2022-06-19T06:20:37Z</time>
      </trkpt>
      <trkpt lat="47.76102" lon="6.04234">
        <ele>219.8</ele>
        <time>2022-06-19T06:20:51Z</time>
      </trkpt>
      <trkpt lat="47.76077" lon="6.04252">
        <ele>218</ele>
        <time>2022-06-19T06:20:57Z</time>
      </trkpt>
      <trkpt lat="47.7605" lon="6.04272">
        <ele>219.4</ele>
        <time>2022-06-19T06:21:04Z</time>
      </trkpt>
      <trkpt lat="47.7604" lon="6.04284">
        <ele>219.8</ele>
        <time>2022-06-19T06:21:07Z</time>
      </trkpt>
      <trkpt lat="47.76008" lon="6.04352">
        <ele>218.8</ele>
        <time>2022-06-19T06:21:20Z</time>
      </trkpt>
      <trkpt lat="47.75978" lon="6.04424">
        <ele>220</ele>
        <time>2022-06-19T06:21:33Z</time>
      </trkpt>
      <trkpt lat="47.7595" lon="6.04504">
        <ele>220.6</ele>
        <time>2022-06-19T06:21:47Z</time>
      </trkpt>
      <trkpt lat="47.75921" lon="6.0458">
        <ele>219.4</ele>
        <time>2022-06-19T06:21:59Z</time>
      </trkpt>
      <trkpt lat="47.75906" lon="6.04612">
        <ele>217.4</ele>
        <time>2022-06-19T06:22:04Z</time>
      </trkpt>
      <trkpt lat="47.75859" lon="6.04675">
        <ele>217</ele>
        <time>2022-06-19T06:22:15Z</time>
      </trkpt>
      <trkpt lat="47.75801" lon="6.04706">
        <ele>216.8</ele>
        <time>2022-06-19T06:22:26Z</time>
      </trkpt>
      <trkpt lat="47.7574" lon="6.04705">
        <ele>215</ele>
        <time>2022-06-19T06:22:37Z</time>
      </trkpt>
      <trkpt lat="47.75682" lon="6.04692">
        <ele>215.2</ele>
        <time>2022-06-19T06:22:48Z</time>
      </trkpt>
      <trkpt lat="47.75621" lon="6.04687">
        <ele>215.4</ele>
        <time>2022-06-19T06:22:59Z</time>
      </trkpt>
      <trkpt lat="47.75583" lon="6.04704">
        <ele>214.6</ele>
        <time>2022-06-19T06:23:06Z</time>
      </trkpt>
      <trkpt lat="47.75578" lon="6.04708">
        <ele>214.4</ele>
        <time>2022-06-19T06:23:07Z</time>
      </trkpt>
      <trkpt lat="47.75528" lon="6.04753">
        <ele>212.8</ele>
        <time>2022-06-19T06:23:17Z</time>
      </trkpt>
      <trkpt lat="47.75471" lon="6.04801">
        <ele>213.4</ele>
        <time>2022-06-19T06:23:29Z</time>
      </trkpt>
      <trkpt lat="47.75422" lon="6.04844">
        <ele>212.8</ele>
        <time>2022-06-19T06:23:41Z</time>
      </trkpt>
      <trkpt lat="47.75393" lon="6.04858">
        <ele>209.8</ele>
        <time>2022-06-19T06:23:46Z</time>
      </trkpt>
      <trkpt lat="47.75333" lon="6.04881">
        <ele>210.2</ele>
        <time>2022-06-19T06:23:57Z</time>
      </trkpt>
      <trkpt lat="47.75275" lon="6.04899">
        <ele>212.4</ele>
        <time>2022-06-19T06:24:08Z</time>
      </trkpt>
      <trkpt lat="47.75217" lon="6.04913">
        <ele>211.4</ele>
        <time>2022-06-19T06:24:20Z</time>
      </trkpt>
      <trkpt lat="47.75155" lon="6.0493">
        <ele>212.8</ele>
        <time>2022-06-19T06:24:31Z</time>
      </trkpt>
      <trkpt lat="47.7515" lon="6.04932">
        <ele>213</ele>
        <time>2022-06-19T06:24:32Z</time>
      </trkpt>
      <trkpt lat="47.75088" lon="6.04947">
        <ele>211.4</ele>
        <time>2022-06-19T06:24:43Z</time>
      </trkpt>
      <trkpt lat="47.75083" lon="6.04948">
        <ele>211.4</ele>
        <time>2022-06-19T06:24:44Z</time>
      </trkpt>
      <trkpt lat="47.75022" lon="6.04962">
        <ele>211.6</ele>
        <time>2022-06-19T06:24:56Z</time>
      </trkpt>
      <trkpt lat="47.74962" lon="6.04974">
        <ele>213</ele>
        <time>2022-06-19T06:25:08Z</time>
      </trkpt>
      <trkpt lat="47.74899" lon="6.04984">
        <ele>214</ele>
        <time>2022-06-19T06:25:21Z</time>
      </trkpt>
      <trkpt lat="47.74836" lon="6.04994">
        <ele>213.6</ele>
        <time>2022-06-19T06:25:33Z</time>
      </trkpt>
      <trkpt lat="47.74775" lon="6.0501">
        <ele>213.6</ele>
        <time>2022-06-19T06:25:45Z</time>
      </trkpt>
      <trkpt lat="47.74712" lon="6.05025">
        <ele>214</ele>
        <time>2022-06-19T06:25:58Z</time>
      </trkpt>
      <trkpt lat="47.74649" lon="6.05049">
        <ele>214</ele>
        <time>2022-06-19T06:26:11Z</time>
      </trkpt>
      <trkpt lat="47.74591" lon="6.05083">
        <ele>213.4</ele>
        <time>2022-06-19T06:26:24Z</time>
      </trkpt>
      <trkpt lat="47.74531" lon="6.05107">
        <ele>213.8</ele>
        <time>2022-06-19T06:26:37Z</time>
      </trkpt>
      <trkpt lat="47.74475" lon="6.05118">
        <ele>210.6</ele>
        <time>2022-06-19T06:26:49Z</time>
      </trkpt>
      <trkpt lat="47.74416" lon="6.05136">
        <ele>212.2</ele>
        <time>2022-06-19T06:27:03Z</time>
      </trkpt>
      <trkpt lat="47.74357" lon="6.05158">
        <ele>211.8</ele>
        <time>2022-06-19T06:27:16Z</time>
      </trkpt>
      <trkpt lat="47.74298" lon="6.0518">
        <ele>211.4</ele>
        <time>2022-06-19T06:27:28Z</time>
      </trkpt>
      <trkpt lat="47.74243" lon="6.05201">
        <ele>211.6</ele>
        <time>2022-06-19T06:27:39Z</time>
      </trkpt>
      <trkpt lat="47.74182" lon="6.05222">
        <ele>211.2</ele>
        <time>2022-06-19T06:27:51Z</time>
      </trkpt>
      <trkpt lat="47.74125" lon="6.05245">
        <ele>212.2</ele>
        <time>2022-06-19T06:28:03Z</time>
      </trkpt>
      <trkpt lat="47.74111" lon="6.05254">
        <ele>211.6</ele>
        <time>2022-06-19T06:28:06Z</time>
      </trkpt>
      <trkpt lat="47.74065" lon="6.05308">
        <ele>212.8</ele>
        <time>2022-06-19T06:28:19Z</time>
      </trkpt>
      <trkpt lat="47.74023" lon="6.05371">
        <ele>212</ele>
        <time>2022-06-19T06:28:31Z</time>
      </trkpt>
      <trkpt lat="47.7401" lon="6.05386">
        <ele>213.2</ele>
        <time>2022-06-19T06:28:43Z</time>
      </trkpt>
      <trkpt lat="47.74011" lon="6.05393">
        <ele>213.6</ele>
        <time>2022-06-19T06:29:01Z</time>
      </trkpt>
      <trkpt lat="47.74011" lon="6.05395">
        <ele>213.6</ele>
        <time>2022-06-19T06:29:02Z</time>
      </trkpt>
      <trkpt lat="47.74011" lon="6.05396">
        <ele>213.6</ele>
        <time>2022-06-19T06:29:03Z</time>
      </trkpt>
      <trkpt lat="47.7401" lon="6.05397">
        <ele>213.6</ele>
        <time>2022-06-19T06:29:04Z</time>
      </trkpt>
      <trkpt lat="47.74009" lon="6.05398">
        <ele>213.4</ele>
        <time>2022-06-19T06:29:09Z</time>
      </trkpt>
      <trkpt lat="47.74006" lon="6.05398">
        <ele>213.2</ele>
        <time>2022-06-19T06:30:28Z</time>
      </trkpt>
      <trkpt lat="47.74003" lon="6.05397">
        <ele>213.4</ele>
        <time>2022-06-19T06:30:29Z</time>
      </trkpt>
      <trkpt lat="47.74002" lon="6.05398">
        <ele>213.4</ele>
        <time>2022-06-19T06:30:30Z</time>
      </trkpt>
      <trkpt lat="47.74001" lon="6.05398">
        <ele>213.2</ele>
        <time>2022-06-19T06:30:31Z</time>
      </trkpt>
      <trkpt lat="47.74" lon="6.054">
        <ele>213.2</ele>
        <time>2022-06-19T06:30:32Z</time>
      </trkpt>
      <trkpt lat="47.73998" lon="6.05402">
        <ele>213.4</ele>
        <time>2022-06-19T06:30:33Z</time>
      </trkpt>
      <trkpt lat="47.73996" lon="6.05404">
        <ele>213.4</ele>
        <time>2022-06-19T06:30:34Z</time>
      </trkpt>
      <trkpt lat="47.73994" lon="6.05408">
        <ele>213.4</ele>
        <time>2022-06-19T06:30:35Z</time>
      </trkpt>
      <trkpt lat="47.73991" lon="6.05412">
        <ele>213.4</ele>
        <time>2022-06-19T06:30:36Z</time>
      </trkpt>
      <trkpt lat="47.73947" lon="6.05473">
        <ele>213.8</ele>
        <time>2022-06-19T06:30:51Z</time>
      </trkpt>
      <trkpt lat="47.73902" lon="6.05533">
        <ele>214.4</ele>
        <time>2022-06-19T06:31:04Z</time>
      </trkpt>
      <trkpt lat="47.73893" lon="6.05548">
        <ele>214.4</ele>
        <time>2022-06-19T06:31:07Z</time>
      </trkpt>
      <trkpt lat="47.7388" lon="6.05592">
        <ele>214.6</ele>
        <time>2022-06-19T06:31:14Z</time>
      </trkpt>
      <trkpt lat="47.73877" lon="6.05681">
        <ele>214.2</ele>
        <time>2022-06-19T06:31:25Z</time>
      </trkpt>
      <trkpt lat="47.73878" lon="6.05742">
        <ele>212.2</ele>
        <time>2022-06-19T06:31:32Z</time>
      </trkpt>
      <trkpt lat="47.73873" lon="6.0581">
        <ele>212</ele>
        <time>2022-06-19T06:31:40Z</time>
      </trkpt>
      <trkpt lat="47.73867" lon="6.05841">
        <ele>212.2</ele>
        <time>2022-06-19T06:31:44Z</time>
      </trkpt>
      <trkpt lat="47.73859" lon="6.05861">
        <ele>213.6</ele>
        <time>2022-06-19T06:31:47Z</time>
      </trkpt>
      <trkpt lat="47.73857" lon="6.05867">
        <ele>213.8</ele>
        <time>2022-06-19T06:31:48Z</time>
      </trkpt>
      <trkpt lat="47.73853" lon="6.05873">
        <ele>213.8</ele>
        <time>2022-06-19T06:31:49Z</time>
      </trkpt>
      <trkpt lat="47.73839" lon="6.05891">
        <ele>214.6</ele>
        <time>2022-06-19T06:31:53Z</time>
      </trkpt>
      <trkpt lat="47.7379" lon="6.05936">
        <ele>215.8</ele>
        <time>2022-06-19T06:32:09Z</time>
      </trkpt>
      <trkpt lat="47.7374" lon="6.05979">
        <ele>214.4</ele>
        <time>2022-06-19T06:32:20Z</time>
      </trkpt>
      <trkpt lat="47.73689" lon="6.06013">
        <ele>215</ele>
        <time>2022-06-19T06:32:34Z</time>
      </trkpt>
      <trkpt lat="47.73637" lon="6.05989">
        <ele>215.6</ele>
        <time>2022-06-19T06:32:53Z</time>
      </trkpt>
      <trkpt lat="47.73582" lon="6.05971">
        <ele>218.6</ele>
        <time>2022-06-19T06:33:16Z</time>
      </trkpt>
      <trkpt lat="47.73534" lon="6.05928">
        <ele>218.6</ele>
        <time>2022-06-19T06:33:33Z</time>
      </trkpt>
      <trkpt lat="47.73488" lon="6.05873">
        <ele>216</ele>
        <time>2022-06-19T06:33:45Z</time>
      </trkpt>
      <trkpt lat="47.73471" lon="6.05854">
        <ele>214.4</ele>
        <time>2022-06-19T06:33:49Z</time>
      </trkpt>
      <trkpt lat="47.73432" lon="6.05819">
        <ele>215.6</ele>
        <time>2022-06-19T06:33:58Z</time>
      </trkpt>
      <trkpt lat="47.73382" lon="6.05776">
        <ele>214.2</ele>
        <time>2022-06-19T06:34:09Z</time>
      </trkpt>
      <trkpt lat="47.73351" lon="6.05749">
        <ele>212.2</ele>
        <time>2022-06-19T06:34:16Z</time>
      </trkpt>
      <trkpt lat="47.73325" lon="6.05726">
        <ele>214.8</ele>
        <time>2022-06-19T06:34:22Z</time>
      </trkpt>
      <trkpt lat="47.73303" lon="6.05707">
        <ele>211</ele>
        <time>2022-06-19T06:34:27Z</time>
      </trkpt>
      <trkpt lat="47.73296" lon="6.057">
        <ele>215.2</ele>
        <time>2022-06-19T06:34:29Z</time>
      </trkpt>
      <trkpt lat="47.73244" lon="6.05656">
        <ele>215.2</ele>
        <time>2022-06-19T06:34:42Z</time>
      </trkpt>
      <trkpt lat="47.73193" lon="6.05615">
        <ele>216.8</ele>
        <time>2022-06-19T06:34:56Z</time>
      </trkpt>
      <trkpt lat="47.73141" lon="6.05579">
        <ele>216.6</ele>
        <time>2022-06-19T06:35:10Z</time>
      </trkpt>
      <trkpt lat="47.73087" lon="6.0555">
        <ele>215.6</ele>
        <time>2022-06-19T06:35:23Z</time>
      </trkpt>
      <trkpt lat="47.73032" lon="6.05517">
        <ele>215</ele>
        <time>2022-06-19T06:35:35Z</time>
      </trkpt>
      <trkpt lat="47.72982" lon="6.05471">
        <ele>215.2</ele>
        <time>2022-06-19T06:35:46Z</time>
      </trkpt>
      <trkpt lat="47.72929" lon="6.0543">
        <ele>214.4</ele>
        <time>2022-06-19T06:35:57Z</time>
      </trkpt>
      <trkpt lat="47.72876" lon="6.05394">
        <ele>213.4</ele>
        <time>2022-06-19T06:36:08Z</time>
      </trkpt>
      <trkpt lat="47.72824" lon="6.0536">
        <ele>213.6</ele>
        <time>2022-06-19T06:36:19Z</time>
      </trkpt>
      <trkpt lat="47.72769" lon="6.05341">
        <ele>214.6</ele>
        <time>2022-06-19T06:36:33Z</time>
      </trkpt>
      <trkpt lat="47.72712" lon="6.05339">
        <ele>217.4</ele>
        <time>2022-06-19T06:36:57Z</time>
      </trkpt>
      <trkpt lat="47.72657" lon="6.05358">
        <ele>220</ele>
        <time>2022-06-19T06:37:26Z</time>
      </trkpt>
      <trkpt lat="47.72616" lon="6.05425">
        <ele>222.2</ele>
        <time>2022-06-19T06:37:53Z</time>
      </trkpt>
      <trkpt lat="47.72578" lon="6.05481">
        <ele>223.8</ele>
        <time>2022-06-19T06:38:11Z</time>
      </trkpt>
      <trkpt lat="47.72544" lon="6.05427">
        <ele>226.2</ele>
        <time>2022-06-19T06:38:35Z</time>
      </trkpt>
      <trkpt lat="47.72567" lon="6.05353">
        <ele>229.4</ele>
        <time>2022-06-19T06:39:00Z</time>
      </trkpt>
      <trkpt lat="47.72578" lon="6.05275">
        <ele>231.8</ele>
        <time>2022-06-19T06:39:28Z</time>
      </trkpt>
      <trkpt lat="47.72556" lon="6.05214">
        <ele>235</ele>
        <time>2022-06-19T06:39:50Z</time>
      </trkpt>
      <trkpt lat="47.72512" lon="6.05158">
        <ele>237.2</ele>
        <time>2022-06-19T06:40:17Z</time>
      </trkpt>
      <trkpt lat="47.72466" lon="6.05106">
        <ele>239.2</ele>
        <time>2022-06-19T06:40:40Z</time>
      </trkpt>
      <trkpt lat="47.72426" lon="6.05045">
        <ele>238.6</ele>
        <time>2022-06-19T06:40:55Z</time>
      </trkpt>
      <trkpt lat="47.72381" lon="6.04981">
        <ele>237.8</ele>
        <time>2022-06-19T06:41:07Z</time>
      </trkpt>
      <trkpt lat="47.72356" lon="6.04944">
        <ele>238</ele>
        <time>2022-06-19T06:41:14Z</time>
      </trkpt>
      <trkpt lat="47.72315" lon="6.04885">
        <ele>238.2</ele>
        <time>2022-06-19T06:41:29Z</time>
      </trkpt>
      <trkpt lat="47.72271" lon="6.04833">
        <ele>240.6</ele>
        <time>2022-06-19T06:41:51Z</time>
      </trkpt>
      <trkpt lat="47.72216" lon="6.04815">
        <ele>241.2</ele>
        <time>2022-06-19T06:42:14Z</time>
      </trkpt>
      <trkpt lat="47.72158" lon="6.04811">
        <ele>242</ele>
        <time>2022-06-19T06:42:35Z</time>
      </trkpt>
      <trkpt lat="47.72105" lon="6.04777">
        <ele>241</ele>
        <time>2022-06-19T06:42:52Z</time>
      </trkpt>
      <trkpt lat="47.72075" lon="6.047">
        <ele>240.8</ele>
        <time>2022-06-19T06:43:06Z</time>
      </trkpt>
      <trkpt lat="47.72054" lon="6.04614">
        <ele>241</ele>
        <time>2022-06-19T06:43:18Z</time>
      </trkpt>
      <trkpt lat="47.72041" lon="6.04565">
        <ele>239.2</ele>
        <time>2022-06-19T06:43:24Z</time>
      </trkpt>
      <trkpt lat="47.72002" lon="6.04496">
        <ele>238.6</ele>
        <time>2022-06-19T06:43:34Z</time>
      </trkpt>
      <trkpt lat="47.71959" lon="6.04439">
        <ele>237.8</ele>
        <time>2022-06-19T06:43:44Z</time>
      </trkpt>
      <trkpt lat="47.71919" lon="6.04375">
        <ele>236.2</ele>
        <time>2022-06-19T06:43:56Z</time>
      </trkpt>
      <trkpt lat="47.71882" lon="6.04311">
        <ele>234.2</ele>
        <time>2022-06-19T06:44:09Z</time>
      </trkpt>
      <trkpt lat="47.71879" lon="6.04307">
        <ele>233.8</ele>
        <time>2022-06-19T06:44:10Z</time>
      </trkpt>
      <trkpt lat="47.7184" lon="6.0424">
        <ele>233.8</ele>
        <time>2022-06-19T06:44:24Z</time>
      </trkpt>
      <trkpt lat="47.718" lon="6.04181">
        <ele>235</ele>
        <time>2022-06-19T06:44:38Z</time>
      </trkpt>
      <trkpt lat="47.71745" lon="6.04151">
        <ele>235.8</ele>
        <time>2022-06-19T06:44:52Z</time>
      </trkpt>
      <trkpt lat="47.71688" lon="6.04161">
        <ele>238</ele>
        <time>2022-06-19T06:45:07Z</time>
      </trkpt>
      <trkpt lat="47.71632" lon="6.04178">
        <ele>239.2</ele>
        <time>2022-06-19T06:45:22Z</time>
      </trkpt>
      <trkpt lat="47.71572" lon="6.04195">
        <ele>237.8</ele>
        <time>2022-06-19T06:45:35Z</time>
      </trkpt>
      <trkpt lat="47.71514" lon="6.04212">
        <ele>236.8</ele>
        <time>2022-06-19T06:45:46Z</time>
      </trkpt>
      <trkpt lat="47.71455" lon="6.04223">
        <ele>234.4</ele>
        <time>2022-06-19T06:45:57Z</time>
      </trkpt>
      <trkpt lat="47.71437" lon="6.04219">
        <ele>231</ele>
        <time>2022-06-19T06:46:00Z</time>
      </trkpt>
      <trkpt lat="47.71419" lon="6.0421">
        <ele>228.8</ele>
        <time>2022-06-19T06:46:03Z</time>
      </trkpt>
      <trkpt lat="47.71408" lon="6.04203">
        <ele>231.6</ele>
        <time>2022-06-19T06:46:05Z</time>
      </trkpt>
      <trkpt lat="47.71402" lon="6.04198">
        <ele>232.6</ele>
        <time>2022-06-19T06:46:06Z</time>
      </trkpt>
      <trkpt lat="47.71398" lon="6.04193">
        <ele>232.8</ele>
        <time>2022-06-19T06:46:07Z</time>
      </trkpt>
      <trkpt lat="47.71361" lon="6.04127">
        <ele>230.4</ele>
        <time>2022-06-19T06:46:17Z</time>
      </trkpt>
      <trkpt lat="47.71356" lon="6.04113">
        <ele>230</ele>
        <time>2022-06-19T06:46:19Z</time>
      </trkpt>
      <trkpt lat="47.7135" lon="6.04099">
        <ele>229.2</ele>
        <time>2022-06-19T06:46:21Z</time>
      </trkpt>
      <trkpt lat="47.71326" lon="6.04015">
        <ele>226.6</ele>
        <time>2022-06-19T06:46:31Z</time>
      </trkpt>
      <trkpt lat="47.71317" lon="6.03977">
        <ele>223.4</ele>
        <time>2022-06-19T06:46:35Z</time>
      </trkpt>
      <trkpt lat="47.71301" lon="6.03911">
        <ele>219.8</ele>
        <time>2022-06-19T06:46:41Z</time>
      </trkpt>
      <trkpt lat="47.71295" lon="6.03888">
        <ele>218.4</ele>
        <time>2022-06-19T06:46:43Z</time>
      </trkpt>
      <trkpt lat="47.7129" lon="6.03877">
        <ele>218.6</ele>
        <time>2022-06-19T06:46:44Z</time>
      </trkpt>
      <trkpt lat="47.71285" lon="6.03867">
        <ele>219</ele>
        <time>2022-06-19T06:46:45Z</time>
      </trkpt>
      <trkpt lat="47.71279" lon="6.03858">
        <ele>219</ele>
        <time>2022-06-19T06:46:46Z</time>
      </trkpt>
      <trkpt lat="47.71273" lon="6.03849">
        <ele>218.6</ele>
        <time>2022-06-19T06:46:47Z</time>
      </trkpt>
      <trkpt lat="47.71266" lon="6.03842">
        <ele>218</ele>
        <time>2022-06-19T06:46:48Z</time>
      </trkpt>
      <trkpt lat="47.71258" lon="6.03836">
        <ele>217.4</ele>
        <time>2022-06-19T06:46:49Z</time>
      </trkpt>
      <trkpt lat="47.7125" lon="6.0383">
        <ele>216.8</ele>
        <time>2022-06-19T06:46:50Z</time>
      </trkpt>
      <trkpt lat="47.71242" lon="6.03825">
        <ele>216.6</ele>
        <time>2022-06-19T06:46:51Z</time>
      </trkpt>
      <trkpt lat="47.71233" lon="6.03822">
        <ele>216.4</ele>
        <time>2022-06-19T06:46:52Z</time>
      </trkpt>
      <trkpt lat="47.71225" lon="6.0382">
        <ele>216.4</ele>
        <time>2022-06-19T06:46:53Z</time>
      </trkpt>
      <trkpt lat="47.71216" lon="6.03819">
        <ele>216.4</ele>
        <time>2022-06-19T06:46:54Z</time>
      </trkpt>
      <trkpt lat="47.71207" lon="6.03819">
        <ele>216.4</ele>
        <time>2022-06-19T06:46:55Z</time>
      </trkpt>
      <trkpt lat="47.71199" lon="6.03822">
        <ele>216</ele>
        <time>2022-06-19T06:46:56Z</time>
      </trkpt>
      <trkpt lat="47.7119" lon="6.03825">
        <ele>215.6</ele>
        <time>2022-06-19T06:46:57Z</time>
      </trkpt>
      <trkpt lat="47.71182" lon="6.03829">
        <ele>215.4</ele>
        <time>2022-06-19T06:46:58Z</time>
      </trkpt>
      <trkpt lat="47.71174" lon="6.03834">
        <ele>215.4</ele>
        <time>2022-06-19T06:46:59Z</time>
      </trkpt>
      <trkpt lat="47.71166" lon="6.03839">
        <ele>215</ele>
        <time>2022-06-19T06:47:00Z</time>
      </trkpt>
      <trkpt lat="47.71109" lon="6.03879">
        <ele>213</ele>
        <time>2022-06-19T06:47:08Z</time>
      </trkpt>
      <trkpt lat="47.71051" lon="6.03909">
        <ele>211.4</ele>
        <time>2022-06-19T06:47:18Z</time>
      </trkpt>
      <trkpt lat="47.70989" lon="6.03924">
        <ele>208.8</ele>
        <time>2022-06-19T06:47:29Z</time>
      </trkpt>
      <trkpt lat="47.70929" lon="6.03927">
        <ele>209.6</ele>
        <time>2022-06-19T06:47:40Z</time>
      </trkpt>
      <trkpt lat="47.70869" lon="6.0393">
        <ele>211.8</ele>
        <time>2022-06-19T06:47:52Z</time>
      </trkpt>
      <trkpt lat="47.70864" lon="6.0393">
        <ele>212</ele>
        <time>2022-06-19T06:47:53Z</time>
      </trkpt>
      <trkpt lat="47.70828" lon="6.03934">
        <ele>212.4</ele>
        <time>2022-06-19T06:48:01Z</time>
      </trkpt>
      <trkpt lat="47.70775" lon="6.03968">
        <ele>212.6</ele>
        <time>2022-06-19T06:48:14Z</time>
      </trkpt>
      <trkpt lat="47.70724" lon="6.04015">
        <ele>212.4</ele>
        <time>2022-06-19T06:48:26Z</time>
      </trkpt>
      <trkpt lat="47.70693" lon="6.04046">
        <ele>212.2</ele>
        <time>2022-06-19T06:48:33Z</time>
      </trkpt>
      <trkpt lat="47.70647" lon="6.04103">
        <ele>212</ele>
        <time>2022-06-19T06:48:45Z</time>
      </trkpt>
      <trkpt lat="47.70604" lon="6.04165">
        <ele>212</ele>
        <time>2022-06-19T06:48:57Z</time>
      </trkpt>
      <trkpt lat="47.7056" lon="6.04229">
        <ele>211.6</ele>
        <time>2022-06-19T06:49:10Z</time>
      </trkpt>
      <trkpt lat="47.70515" lon="6.04296">
        <ele>212.2</ele>
        <time>2022-06-19T06:49:23Z</time>
      </trkpt>
      <trkpt lat="47.70464" lon="6.04343">
        <ele>213.6</ele>
        <time>2022-06-19T06:49:40Z</time>
      </trkpt>
      <trkpt lat="47.70402" lon="6.04387">
        <ele>216.2</ele>
        <time>2022-06-19T06:50:01Z</time>
      </trkpt>
      <trkpt lat="47.70343" lon="6.0442">
        <ele>215.4</ele>
        <time>2022-06-19T06:50:19Z</time>
      </trkpt>
      <trkpt lat="47.70281" lon="6.04452">
        <ele>213</ele>
        <time>2022-06-19T06:50:33Z</time>
      </trkpt>
      <trkpt lat="47.70221" lon="6.04476">
        <ele>214.6</ele>
        <time>2022-06-19T06:50:46Z</time>
      </trkpt>
      <trkpt lat="47.70178" lon="6.04482">
        <ele>217.6</ele>
        <time>2022-06-19T06:50:59Z</time>
      </trkpt>
      <trkpt lat="47.70119" lon="6.04469">
        <ele>218.2</ele>
        <time>2022-06-19T06:51:19Z</time>
      </trkpt>
      <trkpt lat="47.70089" lon="6.0446">
        <ele>217.4</ele>
        <time>2022-06-19T06:51:26Z</time>
      </trkpt>
      <trkpt lat="47.70028" lon="6.04449">
        <ele>215.2</ele>
        <time>2022-06-19T06:51:38Z</time>
      </trkpt>
      <trkpt lat="47.69966" lon="6.04439">
        <ele>214.6</ele>
        <time>2022-06-19T06:51:49Z</time>
      </trkpt>
      <trkpt lat="47.69882" lon="6.04438">
        <ele>213.6</ele>
        <time>2022-06-19T06:52:01Z</time>
      </trkpt>
      <trkpt lat="47.69822" lon="6.04429">
        <ele>213.6</ele>
        <time>2022-06-19T06:52:14Z</time>
      </trkpt>
      <trkpt lat="47.69757" lon="6.04429">
        <ele>212.2</ele>
        <time>2022-06-19T06:52:25Z</time>
      </trkpt>
      <trkpt lat="47.69741" lon="6.04429">
        <ele>211.6</ele>
        <time>2022-06-19T06:52:28Z</time>
      </trkpt>
      <trkpt lat="47.69731" lon="6.04429">
        <ele>211.6</ele>
        <time>2022-06-19T06:52:30Z</time>
      </trkpt>
      <trkpt lat="47.6971" lon="6.04429">
        <ele>208.4</ele>
        <time>2022-06-19T06:52:34Z</time>
      </trkpt>
      <trkpt lat="47.69705" lon="6.0443">
        <ele>208.2</ele>
        <time>2022-06-19T06:52:35Z</time>
      </trkpt>
      <trkpt lat="47.69646" lon="6.04433">
        <ele>209.6</ele>
        <time>2022-06-19T06:52:47Z</time>
      </trkpt>
      <trkpt lat="47.69586" lon="6.04436">
        <ele>209.4</ele>
        <time>2022-06-19T06:53:00Z</time>
      </trkpt>
      <trkpt lat="47.69528" lon="6.04435">
        <ele>209.4</ele>
        <time>2022-06-19T06:53:12Z</time>
      </trkpt>
      <trkpt lat="47.69472" lon="6.04431">
        <ele>208</ele>
        <time>2022-06-19T06:53:24Z</time>
      </trkpt>
      <trkpt lat="47.69411" lon="6.04421">
        <ele>207.8</ele>
        <time>2022-06-19T06:53:36Z</time>
      </trkpt>
      <trkpt lat="47.69372" lon="6.04414">
        <ele>210.8</ele>
        <time>2022-06-19T06:53:44Z</time>
      </trkpt>
      <trkpt lat="47.69368" lon="6.04413">
        <ele>211</ele>
        <time>2022-06-19T06:53:45Z</time>
      </trkpt>
      <trkpt lat="47.69308" lon="6.04404">
        <ele>211.2</ele>
        <time>2022-06-19T06:53:58Z</time>
      </trkpt>
      <trkpt lat="47.69249" lon="6.04389">
        <ele>211.2</ele>
        <time>2022-06-19T06:54:11Z</time>
      </trkpt>
      <trkpt lat="47.69193" lon="6.04367">
        <ele>212.4</ele>
        <time>2022-06-19T06:54:24Z</time>
      </trkpt>
      <trkpt lat="47.69178" lon="6.04359">
        <ele>212.2</ele>
        <time>2022-06-19T06:54:28Z</time>
      </trkpt>
      <trkpt lat="47.69121" lon="6.04343">
        <ele>211.4</ele>
        <time>2022-06-19T06:54:39Z</time>
      </trkpt>
      <trkpt lat="47.69112" lon="6.04341">
        <ele>211.6</ele>
        <time>2022-06-19T06:54:41Z</time>
      </trkpt>
      <trkpt lat="47.69108" lon="6.04341">
        <ele>211.6</ele>
        <time>2022-06-19T06:54:42Z</time>
      </trkpt>
      <trkpt lat="47.69048" lon="6.04327">
        <ele>212.4</ele>
        <time>2022-06-19T06:54:57Z</time>
      </trkpt>
      <trkpt lat="47.6899" lon="6.04312">
        <ele>212.6</ele>
        <time>2022-06-19T06:55:12Z</time>
      </trkpt>
      <trkpt lat="47.68931" lon="6.04324">
        <ele>214.8</ele>
        <time>2022-06-19T06:55:35Z</time>
      </trkpt>
      <trkpt lat="47.68902" lon="6.0433">
        <ele>214.2</ele>
        <time>2022-06-19T06:55:56Z</time>
      </trkpt>
      <trkpt lat="47.6889" lon="6.04328">
        <ele>214.4</ele>
        <time>2022-06-19T06:58:44Z</time>
      </trkpt>
      <trkpt lat="47.68887" lon="6.04323">
        <ele>214.2</ele>
        <time>2022-06-19T06:58:47Z</time>
      </trkpt>
      <trkpt lat="47.68886" lon="6.0432">
        <ele>214.2</ele>
        <time>2022-06-19T06:58:48Z</time>
      </trkpt>
      <trkpt lat="47.68887" lon="6.04317">
        <ele>214.2</ele>
        <time>2022-06-19T06:58:49Z</time>
      </trkpt>
      <trkpt lat="47.6889" lon="6.04314">
        <ele>214</ele>
        <time>2022-06-19T06:58:50Z</time>
      </trkpt>
      <trkpt lat="47.68893" lon="6.04311">
        <ele>214</ele>
        <time>2022-06-19T06:58:51Z</time>
      </trkpt>
      <trkpt lat="47.68896" lon="6.04307">
        <ele>214</ele>
        <time>2022-06-19T06:58:52Z</time>
      </trkpt>
      <trkpt lat="47.68923" lon="6.04227">
        <ele>213.4</ele>
        <time>2022-06-19T06:59:07Z</time>
      </trkpt>
      <trkpt lat="47.68946" lon="6.04157">
        <ele>212.8</ele>
        <time>2022-06-19T06:59:18Z</time>
      </trkpt>
      <trkpt lat="47.68951" lon="6.04151">
        <ele>212.8</ele>
        <time>2022-06-19T06:59:19Z</time>
      </trkpt>
      <trkpt lat="47.6896" lon="6.04133">
        <ele>212.8</ele>
        <time>2022-06-19T06:59:22Z</time>
      </trkpt>
      <trkpt lat="47.68991" lon="6.04058">
        <ele>213</ele>
        <time>2022-06-19T06:59:36Z</time>
      </trkpt>
      <trkpt lat="47.68993" lon="6.04052">
        <ele>213</ele>
        <time>2022-06-19T06:59:37Z</time>
      </trkpt>
      <trkpt lat="47.68995" lon="6.04047">
        <ele>213</ele>
        <time>2022-06-19T06:59:38Z</time>
      </trkpt>
      <trkpt lat="47.68997" lon="6.04041">
        <ele>213.2</ele>
        <time>2022-06-19T06:59:39Z</time>
      </trkpt>
      <trkpt lat="47.69025" lon="6.03969">
        <ele>214</ele>
        <time>2022-06-19T06:59:57Z</time>
      </trkpt>
      <trkpt lat="47.69037" lon="6.03953">
        <ele>214.6</ele>
        <time>2022-06-19T07:00:13Z</time>
      </trkpt>
      <trkpt lat="47.69044" lon="6.03945">
        <ele>215.6</ele>
        <time>2022-06-19T07:05:02Z</time>
      </trkpt>
      <trkpt lat="47.69045" lon="6.03942">
        <ele>215.6</ele>
        <time>2022-06-19T07:05:03Z</time>
      </trkpt>
      <trkpt lat="47.69073" lon="6.03869">
        <ele>215.8</ele>
        <time>2022-06-19T07:05:21Z</time>
      </trkpt>
      <trkpt lat="47.69089" lon="6.0383">
        <ele>215.2</ele>
        <time>2022-06-19T07:05:30Z</time>
      </trkpt>
      <trkpt lat="47.69095" lon="6.03809">
        <ele>215</ele>
        <time>2022-06-19T07:05:43Z</time>
      </trkpt>
      <trkpt lat="47.69095" lon="6.03804">
        <ele>214.8</ele>
        <time>2022-06-19T07:05:44Z</time>
      </trkpt>
      <trkpt lat="47.69094" lon="6.03799">
        <ele>214.4</ele>
        <time>2022-06-19T07:05:45Z</time>
      </trkpt>
      <trkpt lat="47.69094" lon="6.03794">
        <ele>214</ele>
        <time>2022-06-19T07:05:46Z</time>
      </trkpt>
      <trkpt lat="47.69092" lon="6.03789">
        <ele>213.8</ele>
        <time>2022-06-19T07:05:47Z</time>
      </trkpt>
      <trkpt lat="47.6909" lon="6.03785">
        <ele>213.4</ele>
        <time>2022-06-19T07:05:48Z</time>
      </trkpt>
      <trkpt lat="47.69088" lon="6.03782">
        <ele>213</ele>
        <time>2022-06-19T07:05:49Z</time>
      </trkpt>
      <trkpt lat="47.69084" lon="6.0378">
        <ele>212.8</ele>
        <time>2022-06-19T07:05:50Z</time>
      </trkpt>
      <trkpt lat="47.69077" lon="6.03774">
        <ele>212.2</ele>
        <time>2022-06-19T07:05:52Z</time>
      </trkpt>
      <trkpt lat="47.69025" lon="6.03733">
        <ele>210.6</ele>
        <time>2022-06-19T07:06:05Z</time>
      </trkpt>
      <trkpt lat="47.68976" lon="6.03694">
        <ele>210.4</ele>
        <time>2022-06-19T07:06:19Z</time>
      </trkpt>
      <trkpt lat="47.68922" lon="6.03661">
        <ele>210</ele>
        <time>2022-06-19T07:06:36Z</time>
      </trkpt>
      <trkpt lat="47.68865" lon="6.03647">
        <ele>210</ele>
        <time>2022-06-19T07:06:54Z</time>
      </trkpt>
      <trkpt lat="47.6882" lon="6.03646">
        <ele>209</ele>
        <time>2022-06-19T07:07:07Z</time>
      </trkpt>
      <trkpt lat="47.68769" lon="6.03642">
        <ele>208</ele>
        <time>2022-06-19T07:07:19Z</time>
      </trkpt>
      <trkpt lat="47.68765" lon="6.03641">
        <ele>207.6</ele>
        <time>2022-06-19T07:07:20Z</time>
      </trkpt>
      <trkpt lat="47.68705" lon="6.03629">
        <ele>208.4</ele>
        <time>2022-06-19T07:07:34Z</time>
      </trkpt>
      <trkpt lat="47.68646" lon="6.03622">
        <ele>209</ele>
        <time>2022-06-19T07:07:47Z</time>
      </trkpt>
      <trkpt lat="47.68591" lon="6.03638">
        <ele>211.2</ele>
        <time>2022-06-19T07:08:05Z</time>
      </trkpt>
      <trkpt lat="47.68535" lon="6.03637">
        <ele>210</ele>
        <time>2022-06-19T07:08:20Z</time>
      </trkpt>
      <trkpt lat="47.68519" lon="6.03633">
        <ele>209.8</ele>
        <time>2022-06-19T07:08:24Z</time>
      </trkpt>
      <trkpt lat="47.68465" lon="6.03614">
        <ele>207.8</ele>
        <time>2022-06-19T07:08:38Z</time>
      </trkpt>
      <trkpt lat="47.68461" lon="6.03615">
        <ele>207.6</ele>
        <time>2022-06-19T07:08:39Z</time>
      </trkpt>
      <trkpt lat="47.68457" lon="6.03616">
        <ele>207.4</ele>
        <time>2022-06-19T07:08:40Z</time>
      </trkpt>
      <trkpt lat="47.68452" lon="6.03618">
        <ele>207.2</ele>
        <time>2022-06-19T07:08:41Z</time>
      </trkpt>
      <trkpt lat="47.68448" lon="6.0362">
        <ele>207.2</ele>
        <time>2022-06-19T07:08:42Z</time>
      </trkpt>
      <trkpt lat="47.68436" lon="6.03624">
        <ele>206.6</ele>
        <time>2022-06-19T07:08:45Z</time>
      </trkpt>
      <trkpt lat="47.68432" lon="6.03624">
        <ele>206.6</ele>
        <time>2022-06-19T07:08:46Z</time>
      </trkpt>
      <trkpt lat="47.68428" lon="6.03624">
        <ele>206.2</ele>
        <time>2022-06-19T07:08:47Z</time>
      </trkpt>
      <trkpt lat="47.68424" lon="6.03623">
        <ele>205.8</ele>
        <time>2022-06-19T07:08:48Z</time>
      </trkpt>
      <trkpt lat="47.6842" lon="6.03621">
        <ele>205.8</ele>
        <time>2022-06-19T07:08:49Z</time>
      </trkpt>
      <trkpt lat="47.68362" lon="6.03594">
        <ele>207</ele>
        <time>2022-06-19T07:09:03Z</time>
      </trkpt>
      <trkpt lat="47.68307" lon="6.03577">
        <ele>207</ele>
        <time>2022-06-19T07:09:16Z</time>
      </trkpt>
      <trkpt lat="47.68249" lon="6.03569">
        <ele>207</ele>
        <time>2022-06-19T07:09:29Z</time>
      </trkpt>
      <trkpt lat="47.6819" lon="6.0357">
        <ele>207.4</ele>
        <time>2022-06-19T07:09:42Z</time>
      </trkpt>
      <trkpt lat="47.68132" lon="6.03583">
        <ele>207</ele>
        <time>2022-06-19T07:09:55Z</time>
      </trkpt>
      <trkpt lat="47.68119" lon="6.03583">
        <ele>207</ele>
        <time>2022-06-19T07:09:58Z</time>
      </trkpt>
      <trkpt lat="47.6806" lon="6.03571">
        <ele>207</ele>
        <time>2022-06-19T07:10:12Z</time>
      </trkpt>
      <trkpt lat="47.68024" lon="6.03579">
        <ele>209.4</ele>
        <time>2022-06-19T07:10:21Z</time>
      </trkpt>
      <trkpt lat="47.67971" lon="6.03621">
        <ele>210</ele>
        <time>2022-06-19T07:10:35Z</time>
      </trkpt>
      <trkpt lat="47.67918" lon="6.03653">
        <ele>209.8</ele>
        <time>2022-06-19T07:10:50Z</time>
      </trkpt>
      <trkpt lat="47.67865" lon="6.03684">
        <ele>210.2</ele>
        <time>2022-06-19T07:11:03Z</time>
      </trkpt>
      <trkpt lat="47.67812" lon="6.03723">
        <ele>210.2</ele>
        <time>2022-06-19T07:11:16Z</time>
      </trkpt>
      <trkpt lat="47.6776" lon="6.0377">
        <ele>210.2</ele>
        <time>2022-06-19T07:11:28Z</time>
      </trkpt>
      <trkpt lat="47.67712" lon="6.03816">
        <ele>210.2</ele>
        <time>2022-06-19T07:11:39Z</time>
      </trkpt>
      <trkpt lat="47.67663" lon="6.03867">
        <ele>210.4</ele>
        <time>2022-06-19T07:11:51Z</time>
      </trkpt>
      <trkpt lat="47.67614" lon="6.03921">
        <ele>210.4</ele>
        <time>2022-06-19T07:12:04Z</time>
      </trkpt>
      <trkpt lat="47.67565" lon="6.03977">
        <ele>209.2</ele>
        <time>2022-06-19T07:12:16Z</time>
      </trkpt>
      <trkpt lat="47.6756" lon="6.0398">
        <ele>209.4</ele>
        <time>2022-06-19T07:12:17Z</time>
      </trkpt>
      <trkpt lat="47.67555" lon="6.03982">
        <ele>209</ele>
        <time>2022-06-19T07:12:18Z</time>
      </trkpt>
      <trkpt lat="47.67545" lon="6.03987">
        <ele>208</ele>
        <time>2022-06-19T07:12:20Z</time>
      </trkpt>
      <trkpt lat="47.6754" lon="6.03988">
        <ele>208</ele>
        <time>2022-06-19T07:12:21Z</time>
      </trkpt>
      <trkpt lat="47.67535" lon="6.03988">
        <ele>207.8</ele>
        <time>2022-06-19T07:12:22Z</time>
      </trkpt>
      <trkpt lat="47.6753" lon="6.03986">
        <ele>207.8</ele>
        <time>2022-06-19T07:12:23Z</time>
      </trkpt>
      <trkpt lat="47.67525" lon="6.03983">
        <ele>207.8</ele>
        <time>2022-06-19T07:12:24Z</time>
      </trkpt>
      <trkpt lat="47.67521" lon="6.03979">
        <ele>207.8</ele>
        <time>2022-06-19T07:12:25Z</time>
      </trkpt>
      <trkpt lat="47.67516" lon="6.03975">
        <ele>208</ele>
        <time>2022-06-19T07:12:26Z</time>
      </trkpt>
      <trkpt lat="47.67512" lon="6.03971">
        <ele>208</ele>
        <time>2022-06-19T07:12:27Z</time>
      </trkpt>
      <trkpt lat="47.67509" lon="6.03966">
        <ele>208</ele>
        <time>2022-06-19T07:12:28Z</time>
      </trkpt>
      <trkpt lat="47.6747" lon="6.03901">
        <ele>208.4</ele>
        <time>2022-06-19T07:12:40Z</time>
      </trkpt>
      <trkpt lat="47.6746" lon="6.03886">
        <ele>209.8</ele>
        <time>2022-06-19T07:12:43Z</time>
      </trkpt>
      <trkpt lat="47.67422" lon="6.03818">
        <ele>209.4</ele>
        <time>2022-06-19T07:12:56Z</time>
      </trkpt>
      <trkpt lat="47.67384" lon="6.03755">
        <ele>210</ele>
        <time>2022-06-19T07:13:08Z</time>
      </trkpt>
      <trkpt lat="47.6735" lon="6.0368">
        <ele>209.4</ele>
        <time>2022-06-19T07:13:21Z</time>
      </trkpt>
      <trkpt lat="47.67327" lon="6.036">
        <ele>209.8</ele>
        <time>2022-06-19T07:13:34Z</time>
      </trkpt>
      <trkpt lat="47.6731" lon="6.03517">
        <ele>209.8</ele>
        <time>2022-06-19T07:13:51Z</time>
      </trkpt>
      <trkpt lat="47.67308" lon="6.03505">
        <ele>209.8</ele>
        <time>2022-06-19T07:13:53Z</time>
      </trkpt>
      <trkpt lat="47.67288" lon="6.03422">
        <ele>210.2</ele>
        <time>2022-06-19T07:14:05Z</time>
      </trkpt>
      <trkpt lat="47.67266" lon="6.03342">
        <ele>209.8</ele>
        <time>2022-06-19T07:14:17Z</time>
      </trkpt>
      <trkpt lat="47.67253" lon="6.03302">
        <ele>207.6</ele>
        <time>2022-06-19T07:14:23Z</time>
      </trkpt>
      <trkpt lat="47.67235" lon="6.03218">
        <ele>207</ele>
        <time>2022-06-19T07:14:35Z</time>
      </trkpt>
      <trkpt lat="47.67226" lon="6.03132">
        <ele>208</ele>
        <time>2022-06-19T07:14:47Z</time>
      </trkpt>
      <trkpt lat="47.67216" lon="6.03043">
        <ele>208</ele>
        <time>2022-06-19T07:14:59Z</time>
      </trkpt>
      <trkpt lat="47.67201" lon="6.02961">
        <ele>208.2</ele>
        <time>2022-06-19T07:15:10Z</time>
      </trkpt>
      <trkpt lat="47.67172" lon="6.02879">
        <ele>208</ele>
        <time>2022-06-19T07:15:22Z</time>
      </trkpt>
      <trkpt lat="47.67144" lon="6.02822">
        <ele>208</ele>
        <time>2022-06-19T07:15:31Z</time>
      </trkpt>
      <trkpt lat="47.6714" lon="6.02817">
        <ele>207.8</ele>
        <time>2022-06-19T07:15:32Z</time>
      </trkpt>
      <trkpt lat="47.67097" lon="6.02761">
        <ele>207.2</ele>
        <time>2022-06-19T07:15:43Z</time>
      </trkpt>
      <trkpt lat="47.67048" lon="6.02704">
        <ele>208.8</ele>
        <time>2022-06-19T07:15:55Z</time>
      </trkpt>
      <trkpt lat="47.67003" lon="6.02642">
        <ele>209.8</ele>
        <time>2022-06-19T07:16:07Z</time>
      </trkpt>
      <trkpt lat="47.66963" lon="6.02572">
        <ele>209.6</ele>
        <time>2022-06-19T07:16:19Z</time>
      </trkpt>
      <trkpt lat="47.66923" lon="6.02504">
        <ele>209.4</ele>
        <time>2022-06-19T07:16:31Z</time>
      </trkpt>
      <trkpt lat="47.66884" lon="6.02437">
        <ele>209.2</ele>
        <time>2022-06-19T07:16:43Z</time>
      </trkpt>
      <trkpt lat="47.66857" lon="6.02382">
        <ele>209.8</ele>
        <time>2022-06-19T07:16:52Z</time>
      </trkpt>
      <trkpt lat="47.66854" lon="6.02376">
        <ele>209.8</ele>
        <time>2022-06-19T07:16:53Z</time>
      </trkpt>
      <trkpt lat="47.66824" lon="6.02304">
        <ele>209</ele>
        <time>2022-06-19T07:17:06Z</time>
      </trkpt>
      <trkpt lat="47.66802" lon="6.02237">
        <ele>209.2</ele>
        <time>2022-06-19T07:17:17Z</time>
      </trkpt>
      <trkpt lat="47.668" lon="6.02231">
        <ele>209.4</ele>
        <time>2022-06-19T07:17:18Z</time>
      </trkpt>
      <trkpt lat="47.66789" lon="6.02192">
        <ele>209.4</ele>
        <time>2022-06-19T07:17:24Z</time>
      </trkpt>
      <trkpt lat="47.66785" lon="6.0218">
        <ele>209.2</ele>
        <time>2022-06-19T07:17:26Z</time>
      </trkpt>
      <trkpt lat="47.66784" lon="6.02174">
        <ele>209.2</ele>
        <time>2022-06-19T07:17:27Z</time>
      </trkpt>
      <trkpt lat="47.6678" lon="6.02155">
        <ele>209.2</ele>
        <time>2022-06-19T07:17:30Z</time>
      </trkpt>
      <trkpt lat="47.6677" lon="6.0211">
        <ele>209.4</ele>
        <time>2022-06-19T07:17:37Z</time>
      </trkpt>
      <trkpt lat="47.6676" lon="6.02078">
        <ele>209</ele>
        <time>2022-06-19T07:17:42Z</time>
      </trkpt>
      <trkpt lat="47.66759" lon="6.02071">
        <ele>209</ele>
        <time>2022-06-19T07:17:43Z</time>
      </trkpt>
      <trkpt lat="47.66736" lon="6.01986">
        <ele>208.8</ele>
        <time>2022-06-19T07:17:55Z</time>
      </trkpt>
      <trkpt lat="47.66708" lon="6.01907">
        <ele>208.6</ele>
        <time>2022-06-19T07:18:08Z</time>
      </trkpt>
      <trkpt lat="47.66689" lon="6.01871">
        <ele>207.4</ele>
        <time>2022-06-19T07:18:15Z</time>
      </trkpt>
      <trkpt lat="47.66654" lon="6.0181">
        <ele>209.6</ele>
        <time>2022-06-19T07:18:27Z</time>
      </trkpt>
      <trkpt lat="47.66653" lon="6.01804">
        <ele>209.4</ele>
        <time>2022-06-19T07:18:28Z</time>
      </trkpt>
      <trkpt lat="47.66648" lon="6.01792">
        <ele>209.4</ele>
        <time>2022-06-19T07:18:30Z</time>
      </trkpt>
      <trkpt lat="47.66645" lon="6.01787">
        <ele>209.4</ele>
        <time>2022-06-19T07:18:31Z</time>
      </trkpt>
      <trkpt lat="47.66602" lon="6.01728">
        <ele>207.8</ele>
        <time>2022-06-19T07:18:44Z</time>
      </trkpt>
      <trkpt lat="47.66553" lon="6.01679">
        <ele>207.2</ele>
        <time>2022-06-19T07:18:57Z</time>
      </trkpt>
      <trkpt lat="47.66505" lon="6.01632">
        <ele>206.6</ele>
        <time>2022-06-19T07:19:09Z</time>
      </trkpt>
      <trkpt lat="47.66455" lon="6.01592">
        <ele>207</ele>
        <time>2022-06-19T07:19:21Z</time>
      </trkpt>
      <trkpt lat="47.66438" lon="6.01579">
        <ele>207</ele>
        <time>2022-06-19T07:19:25Z</time>
      </trkpt>
      <trkpt lat="47.66418" lon="6.01563">
        <ele>207.2</ele>
        <time>2022-06-19T07:19:30Z</time>
      </trkpt>
      <trkpt lat="47.66363" lon="6.01531">
        <ele>208.4</ele>
        <time>2022-06-19T07:19:43Z</time>
      </trkpt>
      <trkpt lat="47.66306" lon="6.01501">
        <ele>207.4</ele>
        <time>2022-06-19T07:19:56Z</time>
      </trkpt>
      <trkpt lat="47.66249" lon="6.01481">
        <ele>207.6</ele>
        <time>2022-06-19T07:20:09Z</time>
      </trkpt>
      <trkpt lat="47.66188" lon="6.01471">
        <ele>207.6</ele>
        <time>2022-06-19T07:20:22Z</time>
      </trkpt>
      <trkpt lat="47.66131" lon="6.01476">
        <ele>207.8</ele>
        <time>2022-06-19T07:20:34Z</time>
      </trkpt>
      <trkpt lat="47.66112" lon="6.01478">
        <ele>207.6</ele>
        <time>2022-06-19T07:20:38Z</time>
      </trkpt>
      <trkpt lat="47.66051" lon="6.01488">
        <ele>208.6</ele>
        <time>2022-06-19T07:20:51Z</time>
      </trkpt>
      <trkpt lat="47.65995" lon="6.01505">
        <ele>208.2</ele>
        <time>2022-06-19T07:21:03Z</time>
      </trkpt>
      <trkpt lat="47.65939" lon="6.01524">
        <ele>209.2</ele>
        <time>2022-06-19T07:21:15Z</time>
      </trkpt>
      <trkpt lat="47.65931" lon="6.01527">
        <ele>209.4</ele>
        <time>2022-06-19T07:21:17Z</time>
      </trkpt>
      <trkpt lat="47.65876" lon="6.01557">
        <ele>209.8</ele>
        <time>2022-06-19T07:21:30Z</time>
      </trkpt>
      <trkpt lat="47.65841" lon="6.01578">
        <ele>209.8</ele>
        <time>2022-06-19T07:21:38Z</time>
      </trkpt>
      <trkpt lat="47.65787" lon="6.01622">
        <ele>209.4</ele>
        <time>2022-06-19T07:21:54Z</time>
      </trkpt>
      <trkpt lat="47.65757" lon="6.01646">
        <ele>210</ele>
        <time>2022-06-19T07:22:02Z</time>
      </trkpt>
      <trkpt lat="47.657" lon="6.01688">
        <ele>207.2</ele>
        <time>2022-06-19T07:22:15Z</time>
      </trkpt>
      <trkpt lat="47.65682" lon="6.017">
        <ele>208</ele>
        <time>2022-06-19T07:22:19Z</time>
      </trkpt>
      <trkpt lat="47.65677" lon="6.017">
        <ele>207.8</ele>
        <time>2022-06-19T07:22:20Z</time>
      </trkpt>
      <trkpt lat="47.65673" lon="6.01697">
        <ele>207.6</ele>
        <time>2022-06-19T07:22:21Z</time>
      </trkpt>
      <trkpt lat="47.6567" lon="6.01693">
        <ele>207.6</ele>
        <time>2022-06-19T07:22:22Z</time>
      </trkpt>
      <trkpt lat="47.65668" lon="6.01688">
        <ele>207.8</ele>
        <time>2022-06-19T07:22:23Z</time>
      </trkpt>
      <trkpt lat="47.65666" lon="6.01683">
        <ele>208</ele>
        <time>2022-06-19T07:22:24Z</time>
      </trkpt>
      <trkpt lat="47.65664" lon="6.01679">
        <ele>208.4</ele>
        <time>2022-06-19T07:22:25Z</time>
      </trkpt>
      <trkpt lat="47.65661" lon="6.01677">
        <ele>208.6</ele>
        <time>2022-06-19T07:22:26Z</time>
      </trkpt>
      <trkpt lat="47.65658" lon="6.01676">
        <ele>209</ele>
        <time>2022-06-19T07:22:27Z</time>
      </trkpt>
      <trkpt lat="47.65655" lon="6.01677">
        <ele>209</ele>
        <time>2022-06-19T07:22:28Z</time>
      </trkpt>
      <trkpt lat="47.65652" lon="6.01679">
        <ele>209</ele>
        <time>2022-06-19T07:22:29Z</time>
      </trkpt>
      <trkpt lat="47.65649" lon="6.01682">
        <ele>209.2</ele>
        <time>2022-06-19T07:22:30Z</time>
      </trkpt>
      <trkpt lat="47.65611" lon="6.01721">
        <ele>209.4</ele>
        <time>2022-06-19T07:22:41Z</time>
      </trkpt>
      <trkpt lat="47.65608" lon="6.01726">
        <ele>209.6</ele>
        <time>2022-06-19T07:22:42Z</time>
      </trkpt>
      <trkpt lat="47.65571" lon="6.01793">
        <ele>209.2</ele>
        <time>2022-06-19T07:22:56Z</time>
      </trkpt>
      <trkpt lat="47.65568" lon="6.01797">
        <ele>209.2</ele>
        <time>2022-06-19T07:22:57Z</time>
      </trkpt>
      <trkpt lat="47.65565" lon="6.01801">
        <ele>209.2</ele>
        <time>2022-06-19T07:22:58Z</time>
      </trkpt>
      <trkpt lat="47.65561" lon="6.01804">
        <ele>209.4</ele>
        <time>2022-06-19T07:22:59Z</time>
      </trkpt>
      <trkpt lat="47.65518" lon="6.01858">
        <ele>211.8</ele>
        <time>2022-06-19T07:23:21Z</time>
      </trkpt>
      <trkpt lat="47.65519" lon="6.01871">
        <ele>212.4</ele>
        <time>2022-06-19T07:23:26Z</time>
      </trkpt>
      <trkpt lat="47.65518" lon="6.01873">
        <ele>212.6</ele>
        <time>2022-06-19T07:23:27Z</time>
      </trkpt>
      <trkpt lat="47.65518" lon="6.01876">
        <ele>213</ele>
        <time>2022-06-19T07:23:35Z</time>
      </trkpt>
      <trkpt lat="47.65523" lon="6.01884">
        <ele>213.8</ele>
        <time>2022-06-19T07:24:57Z</time>
      </trkpt>
      <trkpt lat="47.65523" lon="6.01885">
        <ele>213.8</ele>
        <time>2022-06-19T07:24:58Z</time>
      </trkpt>
      <trkpt lat="47.65524" lon="6.01887">
        <ele>214</ele>
        <time>2022-06-19T07:24:59Z</time>
      </trkpt>
      <trkpt lat="47.65525" lon="6.01889">
        <ele>214.2</ele>
        <time>2022-06-19T07:25:00Z</time>
      </trkpt>
      <trkpt lat="47.65534" lon="6.01926">
        <ele>214.2</ele>
        <time>2022-06-19T07:25:18Z</time>
      </trkpt>
      <trkpt lat="47.65532" lon="6.0193">
        <ele>214.2</ele>
        <time>2022-06-19T07:25:19Z</time>
      </trkpt>
      <trkpt lat="47.6553" lon="6.01934">
        <ele>214</ele>
        <time>2022-06-19T07:25:20Z</time>
      </trkpt>
      <trkpt lat="47.65526" lon="6.01938">
        <ele>213.8</ele>
        <time>2022-06-19T07:25:21Z</time>
      </trkpt>
      <trkpt lat="47.65523" lon="6.01942">
        <ele>213.6</ele>
        <time>2022-06-19T07:25:22Z</time>
      </trkpt>
      <trkpt lat="47.65519" lon="6.01946">
        <ele>213.4</ele>
        <time>2022-06-19T07:25:23Z</time>
      </trkpt>
      <trkpt lat="47.65515" lon="6.0195">
        <ele>213.2</ele>
        <time>2022-06-19T07:25:24Z</time>
      </trkpt>
      <trkpt lat="47.65511" lon="6.01953">
        <ele>213</ele>
        <time>2022-06-19T07:25:25Z</time>
      </trkpt>
      <trkpt lat="47.65505" lon="6.01957">
        <ele>213</ele>
        <time>2022-06-19T07:25:26Z</time>
      </trkpt>
      <trkpt lat="47.65452" lon="6.01995">
        <ele>211</ele>
        <time>2022-06-19T07:25:38Z</time>
      </trkpt>
      <trkpt lat="47.65448" lon="6.01999">
        <ele>210.8</ele>
        <time>2022-06-19T07:25:39Z</time>
      </trkpt>
      <trkpt lat="47.65394" lon="6.02042">
        <ele>210.2</ele>
        <time>2022-06-19T07:25:53Z</time>
      </trkpt>
      <trkpt lat="47.65338" lon="6.0208">
        <ele>209.4</ele>
        <time>2022-06-19T07:26:06Z</time>
      </trkpt>
      <trkpt lat="47.65279" lon="6.02102">
        <ele>209.4</ele>
        <time>2022-06-19T07:26:19Z</time>
      </trkpt>
      <trkpt lat="47.65219" lon="6.02107">
        <ele>208.6</ele>
        <time>2022-06-19T07:26:31Z</time>
      </trkpt>
      <trkpt lat="47.65176" lon="6.021">
        <ele>211.2</ele>
        <time>2022-06-19T07:26:40Z</time>
      </trkpt>
      <trkpt lat="47.65117" lon="6.02078">
        <ele>211.2</ele>
        <time>2022-06-19T07:26:53Z</time>
      </trkpt>
      <trkpt lat="47.65059" lon="6.02054">
        <ele>210.6</ele>
        <time>2022-06-19T07:27:05Z</time>
      </trkpt>
      <trkpt lat="47.65014" lon="6.02028">
        <ele>209.6</ele>
        <time>2022-06-19T07:27:14Z</time>
      </trkpt>
      <trkpt lat="47.65008" lon="6.02026">
        <ele>209.4</ele>
        <time>2022-06-19T07:27:15Z</time>
      </trkpt>
      <trkpt lat="47.64989" lon="6.0202">
        <ele>209</ele>
        <time>2022-06-19T07:27:19Z</time>
      </trkpt>
      <trkpt lat="47.64985" lon="6.02021">
        <ele>208.8</ele>
        <time>2022-06-19T07:27:20Z</time>
      </trkpt>
      <trkpt lat="47.64982" lon="6.02023">
        <ele>208.8</ele>
        <time>2022-06-19T07:27:21Z</time>
      </trkpt>
      <trkpt lat="47.6493" lon="6.02066">
        <ele>211.6</ele>
        <time>2022-06-19T07:27:53Z</time>
      </trkpt>
      <trkpt lat="47.64887" lon="6.02079">
        <ele>211.4</ele>
        <time>2022-06-19T07:28:17Z</time>
      </trkpt>
      <trkpt lat="47.64885" lon="6.0206">
        <ele>210.6</ele>
        <time>2022-06-19T07:28:22Z</time>
      </trkpt>
      <trkpt lat="47.64886" lon="6.02058">
        <ele>210.6</ele>
        <time>2022-06-19T07:28:23Z</time>
      </trkpt>
      <trkpt lat="47.64888" lon="6.02057">
        <ele>210.4</ele>
        <time>2022-06-19T07:28:24Z</time>
      </trkpt>
      <trkpt lat="47.64889" lon="6.0206">
        <ele>210.4</ele>
        <time>2022-06-19T07:28:25Z</time>
      </trkpt>
      <trkpt lat="47.6489" lon="6.02063">
        <ele>210</ele>
        <time>2022-06-19T07:28:26Z</time>
      </trkpt>
      <trkpt lat="47.64891" lon="6.02067">
        <ele>209.8</ele>
        <time>2022-06-19T07:28:27Z</time>
      </trkpt>
      <trkpt lat="47.64922" lon="6.02146">
        <ele>209.6</ele>
        <time>2022-06-19T07:28:47Z</time>
      </trkpt>
      <trkpt lat="47.64954" lon="6.02229">
        <ele>208.4</ele>
        <time>2022-06-19T07:29:00Z</time>
      </trkpt>
      <trkpt lat="47.64974" lon="6.02296">
        <ele>208.4</ele>
        <time>2022-06-19T07:29:10Z</time>
      </trkpt>
      <trkpt lat="47.64977" lon="6.0231">
        <ele>208.2</ele>
        <time>2022-06-19T07:29:12Z</time>
      </trkpt>
      <trkpt lat="47.64976" lon="6.02316">
        <ele>208.4</ele>
        <time>2022-06-19T07:29:13Z</time>
      </trkpt>
      <trkpt lat="47.64972" lon="6.0237">
        <ele>208.6</ele>
        <time>2022-06-19T07:29:29Z</time>
      </trkpt>
      <trkpt lat="47.64978" lon="6.02366">
        <ele>208.4</ele>
        <time>2022-06-19T07:29:41Z</time>
      </trkpt>
      <trkpt lat="47.64967" lon="6.02383">
        <ele>209.4</ele>
        <time>2022-06-19T07:31:10Z</time>
      </trkpt>
      <trkpt lat="47.64966" lon="6.02385">
        <ele>209.6</ele>
        <time>2022-06-19T07:31:11Z</time>
      </trkpt>
      <trkpt lat="47.64965" lon="6.02388">
        <ele>209.6</ele>
        <time>2022-06-19T07:31:12Z</time>
      </trkpt>
      <trkpt lat="47.64963" lon="6.02391">
        <ele>209.8</ele>
        <time>2022-06-19T07:31:13Z</time>
      </trkpt>
      <trkpt lat="47.64961" lon="6.02393">
        <ele>209.8</ele>
        <time>2022-06-19T07:31:14Z</time>
      </trkpt>
      <trkpt lat="47.64959" lon="6.02395">
        <ele>210</ele>
        <time>2022-06-19T07:31:15Z</time>
      </trkpt>
      <trkpt lat="47.64957" lon="6.02398">
        <ele>210</ele>
        <time>2022-06-19T07:31:16Z</time>
      </trkpt>
      <trkpt lat="47.64955" lon="6.024">
        <ele>210</ele>
        <time>2022-06-19T07:31:17Z</time>
      </trkpt>
      <trkpt lat="47.64954" lon="6.02402">
        <ele>210</ele>
        <time>2022-06-19T07:31:18Z</time>
      </trkpt>
      <trkpt lat="47.64952" lon="6.02403">
        <ele>210</ele>
        <time>2022-06-19T07:31:19Z</time>
      </trkpt>
      <trkpt lat="47.6495" lon="6.02493">
        <ele>211.8</ele>
        <time>2022-06-19T07:31:45Z</time>
      </trkpt>
      <trkpt lat="47.64954" lon="6.02503">
        <ele>211.2</ele>
        <time>2022-06-19T07:31:47Z</time>
      </trkpt>
      <trkpt lat="47.64955" lon="6.02509">
        <ele>211</ele>
        <time>2022-06-19T07:31:48Z</time>
      </trkpt>
      <trkpt lat="47.64966" lon="6.026">
        <ele>209.6</ele>
        <time>2022-06-19T07:31:59Z</time>
      </trkpt>
      <trkpt lat="47.64977" lon="6.02687">
        <ele>209.6</ele>
        <time>2022-06-19T07:32:11Z</time>
      </trkpt>
      <trkpt lat="47.64987" lon="6.02775">
        <ele>209.8</ele>
        <time>2022-06-19T07:32:23Z</time>
      </trkpt>
      <trkpt lat="47.64998" lon="6.02862">
        <ele>208</ele>
        <time>2022-06-19T07:32:35Z</time>
      </trkpt>
      <trkpt lat="47.6501" lon="6.02913">
        <ele>207.8</ele>
        <time>2022-06-19T07:32:42Z</time>
      </trkpt>
      <trkpt lat="47.65029" lon="6.02964">
        <ele>208.4</ele>
        <time>2022-06-19T07:32:50Z</time>
      </trkpt>
      <trkpt lat="47.65067" lon="6.03027">
        <ele>210</ele>
        <time>2022-06-19T07:33:06Z</time>
      </trkpt>
      <trkpt lat="47.65072" lon="6.03035">
        <ele>210.2</ele>
        <time>2022-06-19T07:33:10Z</time>
      </trkpt>
      <trkpt lat="47.65071" lon="6.03037">
        <ele>210.2</ele>
        <time>2022-06-19T07:33:11Z</time>
      </trkpt>
      <trkpt lat="47.65071" lon="6.0304">
        <ele>210.2</ele>
        <time>2022-06-19T07:33:17Z</time>
      </trkpt>
      <trkpt lat="47.65069" lon="6.03045">
        <ele>210.8</ele>
        <time>2022-06-19T07:33:20Z</time>
      </trkpt>
      <trkpt lat="47.65069" lon="6.03047">
        <ele>210.8</ele>
        <time>2022-06-19T07:33:21Z</time>
      </trkpt>
      <trkpt lat="47.65069" lon="6.03049">
        <ele>210.6</ele>
        <time>2022-06-19T07:33:22Z</time>
      </trkpt>
      <trkpt lat="47.6507" lon="6.03052">
        <ele>210.6</ele>
        <time>2022-06-19T07:33:23Z</time>
      </trkpt>
      <trkpt lat="47.65071" lon="6.03055">
        <ele>210.8</ele>
        <time>2022-06-19T07:33:24Z</time>
      </trkpt>
      <trkpt lat="47.6508" lon="6.03134">
        <ele>211.2</ele>
        <time>2022-06-19T07:33:41Z</time>
      </trkpt>
      <trkpt lat="47.65045" lon="6.03203">
        <ele>213.2</ele>
        <time>2022-06-19T07:33:59Z</time>
      </trkpt>
      <trkpt lat="47.64994" lon="6.03253">
        <ele>213.6</ele>
        <time>2022-06-19T07:34:16Z</time>
      </trkpt>
      <trkpt lat="47.64937" lon="6.03289">
        <ele>211.8</ele>
        <time>2022-06-19T07:34:27Z</time>
      </trkpt>
      <trkpt lat="47.64881" lon="6.03323">
        <ele>212.4</ele>
        <time>2022-06-19T07:34:38Z</time>
      </trkpt>
      <trkpt lat="47.64826" lon="6.03353">
        <ele>213.6</ele>
        <time>2022-06-19T07:34:50Z</time>
      </trkpt>
      <trkpt lat="47.64766" lon="6.03389">
        <ele>213.4</ele>
        <time>2022-06-19T07:35:05Z</time>
      </trkpt>
      <trkpt lat="47.6471" lon="6.03428">
        <ele>213.4</ele>
        <time>2022-06-19T07:35:17Z</time>
      </trkpt>
      <trkpt lat="47.64659" lon="6.03473">
        <ele>215</ele>
        <time>2022-06-19T07:35:29Z</time>
      </trkpt>
      <trkpt lat="47.64616" lon="6.0353">
        <ele>215</ele>
        <time>2022-06-19T07:35:41Z</time>
      </trkpt>
      <trkpt lat="47.64578" lon="6.0358">
        <ele>216</ele>
        <time>2022-06-19T07:35:52Z</time>
      </trkpt>
      <trkpt lat="47.64565" lon="6.03596">
        <ele>215.6</ele>
        <time>2022-06-19T07:35:56Z</time>
      </trkpt>
      <trkpt lat="47.64554" lon="6.03606">
        <ele>216.2</ele>
        <time>2022-06-19T07:35:59Z</time>
      </trkpt>
      <trkpt lat="47.6455" lon="6.03608">
        <ele>215.8</ele>
        <time>2022-06-19T07:36:00Z</time>
      </trkpt>
      <trkpt lat="47.64493" lon="6.03625">
        <ele>213</ele>
        <time>2022-06-19T07:36:13Z</time>
      </trkpt>
      <trkpt lat="47.64434" lon="6.03623">
        <ele>216.2</ele>
        <time>2022-06-19T07:36:27Z</time>
      </trkpt>
      <trkpt lat="47.6443" lon="6.03623">
        <ele>216.4</ele>
        <time>2022-06-19T07:36:28Z</time>
      </trkpt>
      <trkpt lat="47.64396" lon="6.03685">
        <ele>218.2</ele>
        <time>2022-06-19T07:36:45Z</time>
      </trkpt>
      <trkpt lat="47.64369" lon="6.03698">
        <ele>221.2</ele>
        <time>2022-06-19T07:37:02Z</time>
      </trkpt>
      <trkpt lat="47.64313" lon="6.03708">
        <ele>222.8</ele>
        <time>2022-06-19T07:37:27Z</time>
      </trkpt>
      <trkpt lat="47.64258" lon="6.03699">
        <ele>222.4</ele>
        <time>2022-06-19T07:37:41Z</time>
      </trkpt>
      <trkpt lat="47.642" lon="6.03683">
        <ele>223</ele>
        <time>2022-06-19T07:37:55Z</time>
      </trkpt>
      <trkpt lat="47.64192" lon="6.03681">
        <ele>223</ele>
        <time>2022-06-19T07:37:57Z</time>
      </trkpt>
      <trkpt lat="47.64144" lon="6.03678">
        <ele>223</ele>
        <time>2022-06-19T07:38:08Z</time>
      </trkpt>
      <trkpt lat="47.64089" lon="6.03654">
        <ele>223.2</ele>
        <time>2022-06-19T07:38:21Z</time>
      </trkpt>
      <trkpt lat="47.64072" lon="6.03647">
        <ele>223.6</ele>
        <time>2022-06-19T07:38:25Z</time>
      </trkpt>
      <trkpt lat="47.6402" lon="6.03612">
        <ele>223.4</ele>
        <time>2022-06-19T07:38:38Z</time>
      </trkpt>
      <trkpt lat="47.63975" lon="6.0358">
        <ele>222.4</ele>
        <time>2022-06-19T07:38:47Z</time>
      </trkpt>
      <trkpt lat="47.63941" lon="6.03564">
        <ele>222</ele>
        <time>2022-06-19T07:38:53Z</time>
      </trkpt>
      <trkpt lat="47.63881" lon="6.03539">
        <ele>221.4</ele>
        <time>2022-06-19T07:39:03Z</time>
      </trkpt>
      <trkpt lat="47.63868" lon="6.03532">
        <ele>220.4</ele>
        <time>2022-06-19T07:39:05Z</time>
      </trkpt>
      <trkpt lat="47.6384" lon="6.03522">
        <ele>217</ele>
        <time>2022-06-19T07:39:09Z</time>
      </trkpt>
      <trkpt lat="47.63777" lon="6.03503">
        <ele>216</ele>
        <time>2022-06-19T07:39:17Z</time>
      </trkpt>
      <trkpt lat="47.63769" lon="6.03501">
        <ele>215.4</ele>
        <time>2022-06-19T07:39:18Z</time>
      </trkpt>
      <trkpt lat="47.63762" lon="6.03501">
        <ele>215</ele>
        <time>2022-06-19T07:39:19Z</time>
      </trkpt>
      <trkpt lat="47.63755" lon="6.03501">
        <ele>214.6</ele>
        <time>2022-06-19T07:39:20Z</time>
      </trkpt>
      <trkpt lat="47.63749" lon="6.03502">
        <ele>214.4</ele>
        <time>2022-06-19T07:39:21Z</time>
      </trkpt>
      <trkpt lat="47.63743" lon="6.03504">
        <ele>214</ele>
        <time>2022-06-19T07:39:22Z</time>
      </trkpt>
      <trkpt lat="47.63737" lon="6.03506">
        <ele>213.6</ele>
        <time>2022-06-19T07:39:23Z</time>
      </trkpt>
      <trkpt lat="47.63727" lon="6.03511">
        <ele>213.4</ele>
        <time>2022-06-19T07:39:25Z</time>
      </trkpt>
      <trkpt lat="47.63679" lon="6.03557">
        <ele>212.4</ele>
        <time>2022-06-19T07:39:42Z</time>
      </trkpt>
      <trkpt lat="47.63667" lon="6.03575">
        <ele>212.4</ele>
        <time>2022-06-19T07:39:46Z</time>
      </trkpt>
      <trkpt lat="47.63634" lon="6.03617">
        <ele>213</ele>
        <time>2022-06-19T07:39:55Z</time>
      </trkpt>
      <trkpt lat="47.63584" lon="6.03662">
        <ele>212.2</ele>
        <time>2022-06-19T07:40:07Z</time>
      </trkpt>
      <trkpt lat="47.63552" lon="6.03685">
        <ele>211.4</ele>
        <time>2022-06-19T07:40:14Z</time>
      </trkpt>
      <trkpt lat="47.635" lon="6.03727">
        <ele>211.4</ele>
        <time>2022-06-19T07:40:26Z</time>
      </trkpt>
      <trkpt lat="47.63449" lon="6.03773">
        <ele>212.2</ele>
        <time>2022-06-19T07:40:38Z</time>
      </trkpt>
      <trkpt lat="47.6343" lon="6.03792">
        <ele>209.8</ele>
        <time>2022-06-19T07:40:42Z</time>
      </trkpt>
      <trkpt lat="47.63383" lon="6.03844">
        <ele>210.2</ele>
        <time>2022-06-19T07:40:53Z</time>
      </trkpt>
      <trkpt lat="47.63332" lon="6.03889">
        <ele>211.4</ele>
        <time>2022-06-19T07:41:04Z</time>
      </trkpt>
      <trkpt lat="47.63279" lon="6.03925">
        <ele>210.2</ele>
        <time>2022-06-19T07:41:15Z</time>
      </trkpt>
      <trkpt lat="47.63228" lon="6.03962">
        <ele>213</ele>
        <time>2022-06-19T07:41:27Z</time>
      </trkpt>
      <trkpt lat="47.63176" lon="6.03996">
        <ele>213</ele>
        <time>2022-06-19T07:41:38Z</time>
      </trkpt>
      <trkpt lat="47.6316" lon="6.04001">
        <ele>213</ele>
        <time>2022-06-19T07:41:41Z</time>
      </trkpt>
      <trkpt lat="47.63154" lon="6.04001">
        <ele>213</ele>
        <time>2022-06-19T07:41:42Z</time>
      </trkpt>
      <trkpt lat="47.63148" lon="6.04">
        <ele>213</ele>
        <time>2022-06-19T07:41:43Z</time>
      </trkpt>
      <trkpt lat="47.63142" lon="6.03998">
        <ele>213</ele>
        <time>2022-06-19T07:41:44Z</time>
      </trkpt>
      <trkpt lat="47.63137" lon="6.03995">
        <ele>213</ele>
        <time>2022-06-19T07:41:45Z</time>
      </trkpt>
      <trkpt lat="47.63131" lon="6.03991">
        <ele>212.8</ele>
        <time>2022-06-19T07:41:46Z</time>
      </trkpt>
      <trkpt lat="47.63126" lon="6.03987">
        <ele>212.8</ele>
        <time>2022-06-19T07:41:47Z</time>
      </trkpt>
      <trkpt lat="47.63087" lon="6.03951">
        <ele>212.4</ele>
        <time>2022-06-19T07:41:55Z</time>
      </trkpt>
      <trkpt lat="47.63081" lon="6.03948">
        <ele>212.4</ele>
        <time>2022-06-19T07:41:56Z</time>
      </trkpt>
      <trkpt lat="47.63024" lon="6.03942">
        <ele>212.8</ele>
        <time>2022-06-19T07:42:06Z</time>
      </trkpt>
      <trkpt lat="47.63019" lon="6.03945">
        <ele>212.8</ele>
        <time>2022-06-19T07:42:07Z</time>
      </trkpt>
      <trkpt lat="47.63014" lon="6.03948">
        <ele>212.8</ele>
        <time>2022-06-19T07:42:08Z</time>
      </trkpt>
      <trkpt lat="47.6301" lon="6.03952">
        <ele>212.8</ele>
        <time>2022-06-19T07:42:09Z</time>
      </trkpt>
      <trkpt lat="47.63005" lon="6.03956">
        <ele>212.8</ele>
        <time>2022-06-19T07:42:10Z</time>
      </trkpt>
      <trkpt lat="47.6296" lon="6.04012">
        <ele>213.6</ele>
        <time>2022-06-19T07:42:22Z</time>
      </trkpt>
      <trkpt lat="47.62918" lon="6.04078">
        <ele>214.4</ele>
        <time>2022-06-19T07:42:36Z</time>
      </trkpt>
      <trkpt lat="47.62886" lon="6.0415">
        <ele>214</ele>
        <time>2022-06-19T07:42:48Z</time>
      </trkpt>
      <trkpt lat="47.62853" lon="6.04221">
        <ele>212</ele>
        <time>2022-06-19T07:43:00Z</time>
      </trkpt>
      <trkpt lat="47.6285" lon="6.04227">
        <ele>211.8</ele>
        <time>2022-06-19T07:43:01Z</time>
      </trkpt>
      <trkpt lat="47.62817" lon="6.04305">
        <ele>214.2</ele>
        <time>2022-06-19T07:43:13Z</time>
      </trkpt>
      <trkpt lat="47.62789" lon="6.04385">
        <ele>212.2</ele>
        <time>2022-06-19T07:43:24Z</time>
      </trkpt>
      <trkpt lat="47.62779" lon="6.04472">
        <ele>211.6</ele>
        <time>2022-06-19T07:43:35Z</time>
      </trkpt>
      <trkpt lat="47.62775" lon="6.04559">
        <ele>213.4</ele>
        <time>2022-06-19T07:43:47Z</time>
      </trkpt>
      <trkpt lat="47.62772" lon="6.04644">
        <ele>211.8</ele>
        <time>2022-06-19T07:43:58Z</time>
      </trkpt>
      <trkpt lat="47.62772" lon="6.04652">
        <ele>211.6</ele>
        <time>2022-06-19T07:43:59Z</time>
      </trkpt>
      <trkpt lat="47.62768" lon="6.04722">
        <ele>212.4</ele>
        <time>2022-06-19T07:44:08Z</time>
      </trkpt>
      <trkpt lat="47.62768" lon="6.04731">
        <ele>212.4</ele>
        <time>2022-06-19T07:44:09Z</time>
      </trkpt>
      <trkpt lat="47.62771" lon="6.04821">
        <ele>211.4</ele>
        <time>2022-06-19T07:44:20Z</time>
      </trkpt>
      <trkpt lat="47.62787" lon="6.0491">
        <ele>211.4</ele>
        <time>2022-06-19T07:44:31Z</time>
      </trkpt>
      <trkpt lat="47.62798" lon="6.0496">
        <ele>214.4</ele>
        <time>2022-06-19T07:44:38Z</time>
      </trkpt>
      <trkpt lat="47.62808" lon="6.05014">
        <ele>215.6</ele>
        <time>2022-06-19T07:44:47Z</time>
      </trkpt>
      <trkpt lat="47.62809" lon="6.05021">
        <ele>215.6</ele>
        <time>2022-06-19T07:44:48Z</time>
      </trkpt>
      <trkpt lat="47.62809" lon="6.05027">
        <ele>215.6</ele>
        <time>2022-06-19T07:44:49Z</time>
      </trkpt>
      <trkpt lat="47.6281" lon="6.05034">
        <ele>215.4</ele>
        <time>2022-06-19T07:44:50Z</time>
      </trkpt>
      <trkpt lat="47.62811" lon="6.05041">
        <ele>215.4</ele>
        <time>2022-06-19T07:44:51Z</time>
      </trkpt>
      <trkpt lat="47.62822" lon="6.05112">
        <ele>215.4</ele>
        <time>2022-06-19T07:45:01Z</time>
      </trkpt>
      <trkpt lat="47.6284" lon="6.05195">
        <ele>217.8</ele>
        <time>2022-06-19T07:45:19Z</time>
      </trkpt>
      <trkpt lat="47.62864" lon="6.05274">
        <ele>220</ele>
        <time>2022-06-19T07:45:42Z</time>
      </trkpt>
      <trkpt lat="47.62871" lon="6.0536">
        <ele>219.2</ele>
        <time>2022-06-19T07:45:56Z</time>
      </trkpt>
      <trkpt lat="47.62873" lon="6.05377">
        <ele>218.8</ele>
        <time>2022-06-19T07:45:58Z</time>
      </trkpt>
      <trkpt lat="47.62876" lon="6.05384">
        <ele>218.6</ele>
        <time>2022-06-19T07:45:59Z</time>
      </trkpt>
      <trkpt lat="47.62879" lon="6.05391">
        <ele>218.4</ele>
        <time>2022-06-19T07:46:00Z</time>
      </trkpt>
      <trkpt lat="47.62892" lon="6.05429">
        <ele>218</ele>
        <time>2022-06-19T07:46:05Z</time>
      </trkpt>
      <trkpt lat="47.62908" lon="6.05515">
        <ele>217.4</ele>
        <time>2022-06-19T07:46:15Z</time>
      </trkpt>
      <trkpt lat="47.62908" lon="6.05523">
        <ele>217.4</ele>
        <time>2022-06-19T07:46:16Z</time>
      </trkpt>
      <trkpt lat="47.62908" lon="6.05547">
        <ele>217.6</ele>
        <time>2022-06-19T07:46:19Z</time>
      </trkpt>
      <trkpt lat="47.6291" lon="6.05633">
        <ele>220.4</ele>
        <time>2022-06-19T07:46:35Z</time>
      </trkpt>
      <trkpt lat="47.62928" lon="6.05717">
        <ele>222.4</ele>
        <time>2022-06-19T07:46:53Z</time>
      </trkpt>
      <trkpt lat="47.62927" lon="6.05735">
        <ele>222.4</ele>
        <time>2022-06-19T07:46:56Z</time>
      </trkpt>
      <trkpt lat="47.62925" lon="6.0574">
        <ele>222.8</ele>
        <time>2022-06-19T07:46:57Z</time>
      </trkpt>
      <trkpt lat="47.62884" lon="6.05808">
        <ele>222.4</ele>
        <time>2022-06-19T07:47:12Z</time>
      </trkpt>
      <trkpt lat="47.62847" lon="6.05874">
        <ele>224.6</ele>
        <time>2022-06-19T07:47:29Z</time>
      </trkpt>
      <trkpt lat="47.62804" lon="6.05934">
        <ele>226</ele>
        <time>2022-06-19T07:47:46Z</time>
      </trkpt>
      <trkpt lat="47.62754" lon="6.05984">
        <ele>226.4</ele>
        <time>2022-06-19T07:48:02Z</time>
      </trkpt>
      <trkpt lat="47.62707" lon="6.06042">
        <ele>226.8</ele>
        <time>2022-06-19T07:48:17Z</time>
      </trkpt>
      <trkpt lat="47.62659" lon="6.06097">
        <ele>226.4</ele>
        <time>2022-06-19T07:48:29Z</time>
      </trkpt>
      <trkpt lat="47.62628" lon="6.06116">
        <ele>223.6</ele>
        <time>2022-06-19T07:48:35Z</time>
      </trkpt>
      <trkpt lat="47.62573" lon="6.06154">
        <ele>222.4</ele>
        <time>2022-06-19T07:48:46Z</time>
      </trkpt>
      <trkpt lat="47.6253" lon="6.06209">
        <ele>222.8</ele>
        <time>2022-06-19T07:48:56Z</time>
      </trkpt>
      <trkpt lat="47.62526" lon="6.06215">
        <ele>222.6</ele>
        <time>2022-06-19T07:48:57Z</time>
      </trkpt>
      <trkpt lat="47.62523" lon="6.06222">
        <ele>222.6</ele>
        <time>2022-06-19T07:48:58Z</time>
      </trkpt>
      <trkpt lat="47.6252" lon="6.06229">
        <ele>222.4</ele>
        <time>2022-06-19T07:48:59Z</time>
      </trkpt>
      <trkpt lat="47.62519" lon="6.06238">
        <ele>222</ele>
        <time>2022-06-19T07:49:00Z</time>
      </trkpt>
      <trkpt lat="47.6252" lon="6.06246">
        <ele>221.4</ele>
        <time>2022-06-19T07:49:01Z</time>
      </trkpt>
      <trkpt lat="47.62524" lon="6.06254">
        <ele>220.8</ele>
        <time>2022-06-19T07:49:02Z</time>
      </trkpt>
      <trkpt lat="47.62529" lon="6.06262">
        <ele>220.4</ele>
        <time>2022-06-19T07:49:03Z</time>
      </trkpt>
      <trkpt lat="47.62534" lon="6.06269">
        <ele>220.2</ele>
        <time>2022-06-19T07:49:04Z</time>
      </trkpt>
      <trkpt lat="47.62539" lon="6.06276">
        <ele>219.8</ele>
        <time>2022-06-19T07:49:05Z</time>
      </trkpt>
      <trkpt lat="47.62578" lon="6.06317">
        <ele>217.6</ele>
        <time>2022-06-19T07:49:11Z</time>
      </trkpt>
      <trkpt lat="47.62634" lon="6.06377">
        <ele>216.8</ele>
        <time>2022-06-19T07:49:19Z</time>
      </trkpt>
      <trkpt lat="47.62682" lon="6.06428">
        <ele>218</ele>
        <time>2022-06-19T07:49:29Z</time>
      </trkpt>
      <trkpt lat="47.62683" lon="6.06434">
        <ele>218</ele>
        <time>2022-06-19T07:49:30Z</time>
      </trkpt>
      <trkpt lat="47.62682" lon="6.0644">
        <ele>217.8</ele>
        <time>2022-06-19T07:49:31Z</time>
      </trkpt>
      <trkpt lat="47.62681" lon="6.06445">
        <ele>217.6</ele>
        <time>2022-06-19T07:49:32Z</time>
      </trkpt>
      <trkpt lat="47.62678" lon="6.0645">
        <ele>217.4</ele>
        <time>2022-06-19T07:49:33Z</time>
      </trkpt>
      <trkpt lat="47.62676" lon="6.06454">
        <ele>217.6</ele>
        <time>2022-06-19T07:49:34Z</time>
      </trkpt>
      <trkpt lat="47.62638" lon="6.06525">
        <ele>216.6</ele>
        <time>2022-06-19T07:49:50Z</time>
      </trkpt>
      <trkpt lat="47.626" lon="6.06599">
        <ele>216</ele>
        <time>2022-06-19T07:50:01Z</time>
      </trkpt>
      <trkpt lat="47.62566" lon="6.06669">
        <ele>216.8</ele>
        <time>2022-06-19T07:50:13Z</time>
      </trkpt>
      <trkpt lat="47.62565" lon="6.06673">
        <ele>216.6</ele>
        <time>2022-06-19T07:50:14Z</time>
      </trkpt>
      <trkpt lat="47.62567" lon="6.06678">
        <ele>216.4</ele>
        <time>2022-06-19T07:50:15Z</time>
      </trkpt>
      <trkpt lat="47.62569" lon="6.06682">
        <ele>216</ele>
        <time>2022-06-19T07:50:16Z</time>
      </trkpt>
      <trkpt lat="47.62609" lon="6.0675">
        <ele>215.8</ele>
        <time>2022-06-19T07:50:29Z</time>
      </trkpt>
      <trkpt lat="47.62617" lon="6.06772">
        <ele>216</ele>
        <time>2022-06-19T07:50:32Z</time>
      </trkpt>
      <trkpt lat="47.62618" lon="6.06779">
        <ele>215.8</ele>
        <time>2022-06-19T07:50:33Z</time>
      </trkpt>
      <trkpt lat="47.62619" lon="6.06787">
        <ele>215.8</ele>
        <time>2022-06-19T07:50:34Z</time>
      </trkpt>
      <trkpt lat="47.62625" lon="6.06875">
        <ele>216.2</ele>
        <time>2022-06-19T07:50:46Z</time>
      </trkpt>
      <trkpt lat="47.6263" lon="6.06931">
        <ele>216</ele>
        <time>2022-06-19T07:50:54Z</time>
      </trkpt>
      <trkpt lat="47.62655" lon="6.07012">
        <ele>215.8</ele>
        <time>2022-06-19T07:51:07Z</time>
      </trkpt>
      <trkpt lat="47.62662" lon="6.07077">
        <ele>216.2</ele>
        <time>2022-06-19T07:51:20Z</time>
      </trkpt>
      <trkpt lat="47.62663" lon="6.0708">
        <ele>216.2</ele>
        <time>2022-06-19T07:51:21Z</time>
      </trkpt>
      <trkpt lat="47.62663" lon="6.07083">
        <ele>216.2</ele>
        <time>2022-06-19T07:51:22Z</time>
      </trkpt>
      <trkpt lat="47.62664" lon="6.07086">
        <ele>216.4</ele>
        <time>2022-06-19T07:51:23Z</time>
      </trkpt>
      <trkpt lat="47.62665" lon="6.07087">
        <ele>216.4</ele>
        <time>2022-06-19T07:51:24Z</time>
      </trkpt>
      <trkpt lat="47.62667" lon="6.0709">
        <ele>216.2</ele>
        <time>2022-06-19T07:51:25Z</time>
      </trkpt>
      <trkpt lat="47.62686" lon="6.07165">
        <ele>217.8</ele>
        <time>2022-06-19T07:51:45Z</time>
      </trkpt>
      <trkpt lat="47.62712" lon="6.07236">
        <ele>218.4</ele>
        <time>2022-06-19T07:52:06Z</time>
      </trkpt>
      <trkpt lat="47.62754" lon="6.07298">
        <ele>218.4</ele>
        <time>2022-06-19T07:52:18Z</time>
      </trkpt>
      <trkpt lat="47.62797" lon="6.07359">
        <ele>218.6</ele>
        <time>2022-06-19T07:52:29Z</time>
      </trkpt>
      <trkpt lat="47.62839" lon="6.07423">
        <ele>219</ele>
        <time>2022-06-19T07:52:40Z</time>
      </trkpt>
      <trkpt lat="47.62882" lon="6.07488">
        <ele>219.2</ele>
        <time>2022-06-19T07:52:52Z</time>
      </trkpt>
      <trkpt lat="47.62897" lon="6.07509">
        <ele>219.2</ele>
        <time>2022-06-19T07:52:56Z</time>
      </trkpt>
      <trkpt lat="47.62939" lon="6.07572">
        <ele>218.8</ele>
        <time>2022-06-19T07:53:07Z</time>
      </trkpt>
      <trkpt lat="47.62958" lon="6.076">
        <ele>218.4</ele>
        <time>2022-06-19T07:53:12Z</time>
      </trkpt>
      <trkpt lat="47.62961" lon="6.07606">
        <ele>218.4</ele>
        <time>2022-06-19T07:53:13Z</time>
      </trkpt>
      <trkpt lat="47.62965" lon="6.07612">
        <ele>218.8</ele>
        <time>2022-06-19T07:53:14Z</time>
      </trkpt>
      <trkpt lat="47.63006" lon="6.07674">
        <ele>219.2</ele>
        <time>2022-06-19T07:53:25Z</time>
      </trkpt>
      <trkpt lat="47.63025" lon="6.07701">
        <ele>219</ele>
        <time>2022-06-19T07:53:30Z</time>
      </trkpt>
      <trkpt lat="47.63069" lon="6.07761">
        <ele>219</ele>
        <time>2022-06-19T07:53:41Z</time>
      </trkpt>
      <trkpt lat="47.6311" lon="6.0782">
        <ele>219</ele>
        <time>2022-06-19T07:53:52Z</time>
      </trkpt>
      <trkpt lat="47.6315" lon="6.07881">
        <ele>220</ele>
        <time>2022-06-19T07:54:03Z</time>
      </trkpt>
      <trkpt lat="47.63191" lon="6.07945">
        <ele>220.4</ele>
        <time>2022-06-19T07:54:14Z</time>
      </trkpt>
      <trkpt lat="47.6323" lon="6.08014">
        <ele>221</ele>
        <time>2022-06-19T07:54:25Z</time>
      </trkpt>
      <trkpt lat="47.63265" lon="6.08083">
        <ele>220.8</ele>
        <time>2022-06-19T07:54:35Z</time>
      </trkpt>
      <trkpt lat="47.63298" lon="6.08161">
        <ele>220.6</ele>
        <time>2022-06-19T07:54:45Z</time>
      </trkpt>
      <trkpt lat="47.63328" lon="6.08243">
        <ele>220.8</ele>
        <time>2022-06-19T07:54:55Z</time>
      </trkpt>
      <trkpt lat="47.63353" lon="6.08322">
        <ele>220.6</ele>
        <time>2022-06-19T07:55:04Z</time>
      </trkpt>
      <trkpt lat="47.63375" lon="6.08411">
        <ele>220.6</ele>
        <time>2022-06-19T07:55:14Z</time>
      </trkpt>
      <trkpt lat="47.63392" lon="6.08501">
        <ele>220.6</ele>
        <time>2022-06-19T07:55:24Z</time>
      </trkpt>
      <trkpt lat="47.63408" lon="6.08589">
        <ele>220.8</ele>
        <time>2022-06-19T07:55:34Z</time>
      </trkpt>
      <trkpt lat="47.63417" lon="6.08643">
        <ele>218.4</ele>
        <time>2022-06-19T07:55:40Z</time>
      </trkpt>
      <trkpt lat="47.63435" lon="6.08732">
        <ele>218</ele>
        <time>2022-06-19T07:55:50Z</time>
      </trkpt>
      <trkpt lat="47.63451" lon="6.08819">
        <ele>218</ele>
        <time>2022-06-19T07:56:00Z</time>
      </trkpt>
      <trkpt lat="47.63466" lon="6.08901">
        <ele>218.2</ele>
        <time>2022-06-19T07:56:09Z</time>
      </trkpt>
      <trkpt lat="47.63481" lon="6.08984">
        <ele>216</ele>
        <time>2022-06-19T07:56:18Z</time>
      </trkpt>
      <trkpt lat="47.63498" lon="6.09071">
        <ele>216.6</ele>
        <time>2022-06-19T07:56:28Z</time>
      </trkpt>
      <trkpt lat="47.63507" lon="6.09127">
        <ele>218.4</ele>
        <time>2022-06-19T07:56:35Z</time>
      </trkpt>
      <trkpt lat="47.63517" lon="6.09182">
        <ele>217.8</ele>
        <time>2022-06-19T07:56:48Z</time>
      </trkpt>
      <trkpt lat="47.63516" lon="6.09184">
        <ele>217.8</ele>
        <time>2022-06-19T07:56:49Z</time>
      </trkpt>
      <trkpt lat="47.63516" lon="6.09185">
        <ele>217.8</ele>
        <time>2022-06-19T07:56:50Z</time>
      </trkpt>
      <trkpt lat="47.63517" lon="6.09187">
        <ele>217.8</ele>
        <time>2022-06-19T07:56:51Z</time>
      </trkpt>
      <trkpt lat="47.63517" lon="6.09189">
        <ele>217.8</ele>
        <time>2022-06-19T07:56:52Z</time>
      </trkpt>
      <trkpt lat="47.63518" lon="6.09191">
        <ele>217.8</ele>
        <time>2022-06-19T07:56:53Z</time>
      </trkpt>
      <trkpt lat="47.63518" lon="6.09193">
        <ele>217.8</ele>
        <time>2022-06-19T07:56:54Z</time>
      </trkpt>
      <trkpt lat="47.63519" lon="6.09199">
        <ele>217.8</ele>
        <time>2022-06-19T07:56:58Z</time>
      </trkpt>
      <trkpt lat="47.6352" lon="6.09201">
        <ele>217.8</ele>
        <time>2022-06-19T07:56:59Z</time>
      </trkpt>
      <trkpt lat="47.63521" lon="6.09204">
        <ele>217.8</ele>
        <time>2022-06-19T07:57:00Z</time>
      </trkpt>
      <trkpt lat="47.63527" lon="6.09232">
        <ele>218</ele>
        <time>2022-06-19T07:57:08Z</time>
      </trkpt>
      <trkpt lat="47.63526" lon="6.09235">
        <ele>218</ele>
        <time>2022-06-19T07:57:09Z</time>
      </trkpt>
      <trkpt lat="47.63527" lon="6.09238">
        <ele>217.8</ele>
        <time>2022-06-19T07:57:10Z</time>
      </trkpt>
      <trkpt lat="47.63528" lon="6.09241">
        <ele>217.8</ele>
        <time>2022-06-19T07:57:11Z</time>
      </trkpt>
      <trkpt lat="47.63528" lon="6.09245">
        <ele>217.8</ele>
        <time>2022-06-19T07:57:12Z</time>
      </trkpt>
      <trkpt lat="47.63529" lon="6.09248">
        <ele>217.8</ele>
        <time>2022-06-19T07:57:13Z</time>
      </trkpt>
      <trkpt lat="47.6353" lon="6.09251">
        <ele>217.8</ele>
        <time>2022-06-19T07:57:14Z</time>
      </trkpt>
      <trkpt lat="47.6353" lon="6.09255">
        <ele>217.8</ele>
        <time>2022-06-19T07:57:15Z</time>
      </trkpt>
      <trkpt lat="47.63531" lon="6.09259">
        <ele>217.8</ele>
        <time>2022-06-19T07:57:16Z</time>
      </trkpt>
      <trkpt lat="47.63546" lon="6.09343">
        <ele>217.6</ele>
        <time>2022-06-19T07:57:32Z</time>
      </trkpt>
      <trkpt lat="47.63549" lon="6.0936">
        <ele>217.8</ele>
        <time>2022-06-19T07:57:35Z</time>
      </trkpt>
      <trkpt lat="47.63559" lon="6.09443">
        <ele>218</ele>
        <time>2022-06-19T07:57:50Z</time>
      </trkpt>
      <trkpt lat="47.63558" lon="6.09527">
        <ele>217.8</ele>
        <time>2022-06-19T07:58:03Z</time>
      </trkpt>
      <trkpt lat="47.63555" lon="6.09614">
        <ele>218</ele>
        <time>2022-06-19T07:58:15Z</time>
      </trkpt>
      <trkpt lat="47.6355" lon="6.09701">
        <ele>218.6</ele>
        <time>2022-06-19T07:58:27Z</time>
      </trkpt>
      <trkpt lat="47.63546" lon="6.09742">
        <ele>219.2</ele>
        <time>2022-06-19T07:58:33Z</time>
      </trkpt>
      <trkpt lat="47.63532" lon="6.09828">
        <ele>219.6</ele>
        <time>2022-06-19T07:58:46Z</time>
      </trkpt>
      <trkpt lat="47.63513" lon="6.09909">
        <ele>220</ele>
        <time>2022-06-19T07:58:58Z</time>
      </trkpt>
      <trkpt lat="47.63491" lon="6.09994">
        <ele>219.4</ele>
        <time>2022-06-19T07:59:10Z</time>
      </trkpt>
      <trkpt lat="47.63462" lon="6.10066">
        <ele>219.8</ele>
        <time>2022-06-19T07:59:21Z</time>
      </trkpt>
      <trkpt lat="47.63459" lon="6.10072">
        <ele>220.2</ele>
        <time>2022-06-19T07:59:22Z</time>
      </trkpt>
      <trkpt lat="47.63418" lon="6.10138">
        <ele>219.8</ele>
        <time>2022-06-19T07:59:33Z</time>
      </trkpt>
      <trkpt lat="47.63397" lon="6.10177">
        <ele>220</ele>
        <time>2022-06-19T07:59:40Z</time>
      </trkpt>
      <trkpt lat="47.63394" lon="6.10181">
        <ele>220</ele>
        <time>2022-06-19T07:59:41Z</time>
      </trkpt>
      <trkpt lat="47.63391" lon="6.10183">
        <ele>220.2</ele>
        <time>2022-06-19T07:59:42Z</time>
      </trkpt>
      <trkpt lat="47.63388" lon="6.10183">
        <ele>220.2</ele>
        <time>2022-06-19T07:59:43Z</time>
      </trkpt>
      <trkpt lat="47.63384" lon="6.10182">
        <ele>220.2</ele>
        <time>2022-06-19T07:59:44Z</time>
      </trkpt>
      <trkpt lat="47.63381" lon="6.1018">
        <ele>220.2</ele>
        <time>2022-06-19T07:59:45Z</time>
      </trkpt>
      <trkpt lat="47.63378" lon="6.10179">
        <ele>220.2</ele>
        <time>2022-06-19T07:59:46Z</time>
      </trkpt>
      <trkpt lat="47.63376" lon="6.10177">
        <ele>220.4</ele>
        <time>2022-06-19T07:59:47Z</time>
      </trkpt>
      <trkpt lat="47.63363" lon="6.10179">
        <ele>220.2</ele>
        <time>2022-06-19T07:59:55Z</time>
      </trkpt>
      <trkpt lat="47.63363" lon="6.1018">
        <ele>220.2</ele>
        <time>2022-06-19T07:59:56Z</time>
      </trkpt>
      <trkpt lat="47.63363" lon="6.10181">
        <ele>220.2</ele>
        <time>2022-06-19T07:59:57Z</time>
      </trkpt>
      <trkpt lat="47.63329" lon="6.1025">
        <ele>220.4</ele>
        <time>2022-06-19T08:00:22Z</time>
      </trkpt>
      <trkpt lat="47.63293" lon="6.10315">
        <ele>220.6</ele>
        <time>2022-06-19T08:00:38Z</time>
      </trkpt>
      <trkpt lat="47.63262" lon="6.10384">
        <ele>220</ele>
        <time>2022-06-19T08:00:52Z</time>
      </trkpt>
      <trkpt lat="47.63252" lon="6.10406">
        <ele>220</ele>
        <time>2022-06-19T08:00:56Z</time>
      </trkpt>
      <trkpt lat="47.6324" lon="6.10443">
        <ele>220.2</ele>
        <time>2022-06-19T08:01:02Z</time>
      </trkpt>
      <trkpt lat="47.63237" lon="6.10449">
        <ele>220</ele>
        <time>2022-06-19T08:01:03Z</time>
      </trkpt>
      <trkpt lat="47.63203" lon="6.10518">
        <ele>219.8</ele>
        <time>2022-06-19T08:01:14Z</time>
      </trkpt>
      <trkpt lat="47.63201" lon="6.10525">
        <ele>219.8</ele>
        <time>2022-06-19T08:01:15Z</time>
      </trkpt>
      <trkpt lat="47.632" lon="6.10532">
        <ele>219.6</ele>
        <time>2022-06-19T08:01:16Z</time>
      </trkpt>
      <trkpt lat="47.63201" lon="6.10539">
        <ele>219.8</ele>
        <time>2022-06-19T08:01:17Z</time>
      </trkpt>
      <trkpt lat="47.63202" lon="6.10546">
        <ele>220</ele>
        <time>2022-06-19T08:01:18Z</time>
      </trkpt>
      <trkpt lat="47.63201" lon="6.10552">
        <ele>220.2</ele>
        <time>2022-06-19T08:01:19Z</time>
      </trkpt>
      <trkpt lat="47.63199" lon="6.10559">
        <ele>220.4</ele>
        <time>2022-06-19T08:01:20Z</time>
      </trkpt>
      <trkpt lat="47.63197" lon="6.10565">
        <ele>220.4</ele>
        <time>2022-06-19T08:01:21Z</time>
      </trkpt>
      <trkpt lat="47.63195" lon="6.10571">
        <ele>220.2</ele>
        <time>2022-06-19T08:01:22Z</time>
      </trkpt>
      <trkpt lat="47.63165" lon="6.10642">
        <ele>218.6</ele>
        <time>2022-06-19T08:01:38Z</time>
      </trkpt>
      <trkpt lat="47.63163" lon="6.10644">
        <ele>218.4</ele>
        <time>2022-06-19T08:01:41Z</time>
      </trkpt>
      <trkpt lat="47.63162" lon="6.10648">
        <ele>218</ele>
        <time>2022-06-19T08:01:45Z</time>
      </trkpt>
      <trkpt lat="47.63162" lon="6.10649">
        <ele>217.8</ele>
        <time>2022-06-19T08:01:46Z</time>
      </trkpt>
      <trkpt lat="47.63163" lon="6.10651">
        <ele>217.6</ele>
        <time>2022-06-19T08:01:47Z</time>
      </trkpt>
      <trkpt lat="47.63164" lon="6.10653">
        <ele>217.6</ele>
        <time>2022-06-19T08:01:48Z</time>
      </trkpt>
      <trkpt lat="47.63166" lon="6.10655">
        <ele>217.6</ele>
        <time>2022-06-19T08:01:49Z</time>
      </trkpt>
      <trkpt lat="47.63167" lon="6.10657">
        <ele>217.6</ele>
        <time>2022-06-19T08:01:50Z</time>
      </trkpt>
      <trkpt lat="47.63169" lon="6.1066">
        <ele>217.6</ele>
        <time>2022-06-19T08:01:51Z</time>
      </trkpt>
      <trkpt lat="47.63217" lon="6.10712">
        <ele>218.2</ele>
        <time>2022-06-19T08:02:08Z</time>
      </trkpt>
      <trkpt lat="47.63239" lon="6.10746">
        <ele>217.8</ele>
        <time>2022-06-19T08:02:16Z</time>
      </trkpt>
      <trkpt lat="47.63258" lon="6.10826">
        <ele>219.4</ele>
        <time>2022-06-19T08:02:32Z</time>
      </trkpt>
      <trkpt lat="47.63258" lon="6.10834">
        <ele>219.4</ele>
        <time>2022-06-19T08:02:34Z</time>
      </trkpt>
      <trkpt lat="47.63259" lon="6.10839">
        <ele>219.4</ele>
        <time>2022-06-19T08:02:35Z</time>
      </trkpt>
      <trkpt lat="47.6326" lon="6.10843">
        <ele>219.2</ele>
        <time>2022-06-19T08:02:36Z</time>
      </trkpt>
      <trkpt lat="47.6326" lon="6.10847">
        <ele>219.2</ele>
        <time>2022-06-19T08:02:37Z</time>
      </trkpt>
      <trkpt lat="47.63261" lon="6.10851">
        <ele>219.4</ele>
        <time>2022-06-19T08:02:38Z</time>
      </trkpt>
      <trkpt lat="47.6326" lon="6.10863">
        <ele>219.4</ele>
        <time>2022-06-19T08:02:41Z</time>
      </trkpt>
      <trkpt lat="47.63258" lon="6.10866">
        <ele>219.6</ele>
        <time>2022-06-19T08:02:42Z</time>
      </trkpt>
      <trkpt lat="47.63256" lon="6.10869">
        <ele>219.6</ele>
        <time>2022-06-19T08:02:43Z</time>
      </trkpt>
      <trkpt lat="47.63255" lon="6.10872">
        <ele>219.8</ele>
        <time>2022-06-19T08:02:44Z</time>
      </trkpt>
      <trkpt lat="47.63253" lon="6.10874">
        <ele>219.8</ele>
        <time>2022-06-19T08:02:45Z</time>
      </trkpt>
      <trkpt lat="47.63252" lon="6.10878">
        <ele>219.6</ele>
        <time>2022-06-19T08:02:46Z</time>
      </trkpt>
      <trkpt lat="47.6325" lon="6.10881">
        <ele>219.6</ele>
        <time>2022-06-19T08:02:47Z</time>
      </trkpt>
      <trkpt lat="47.63248" lon="6.10884">
        <ele>219.4</ele>
        <time>2022-06-19T08:02:48Z</time>
      </trkpt>
      <trkpt lat="47.63221" lon="6.10955">
        <ele>219</ele>
        <time>2022-06-19T08:03:05Z</time>
      </trkpt>
      <trkpt lat="47.63222" lon="6.10991">
        <ele>219</ele>
        <time>2022-06-19T08:03:11Z</time>
      </trkpt>
      <trkpt lat="47.63211" lon="6.11048">
        <ele>219</ele>
        <time>2022-06-19T08:03:25Z</time>
      </trkpt>
      <trkpt lat="47.6321" lon="6.11049">
        <ele>218.8</ele>
        <time>2022-06-19T08:03:26Z</time>
      </trkpt>
      <trkpt lat="47.63209" lon="6.11049">
        <ele>218.8</ele>
        <time>2022-06-19T08:03:27Z</time>
      </trkpt>
      <trkpt lat="47.63208" lon="6.1105">
        <ele>219</ele>
        <time>2022-06-19T08:03:28Z</time>
      </trkpt>
      <trkpt lat="47.63206" lon="6.1105">
        <ele>218.8</ele>
        <time>2022-06-19T08:03:29Z</time>
      </trkpt>
      <trkpt lat="47.63154" lon="6.11092">
        <ele>219.4</ele>
        <time>2022-06-19T08:03:50Z</time>
      </trkpt>
      <trkpt lat="47.63143" lon="6.11103">
        <ele>219</ele>
        <time>2022-06-19T08:03:59Z</time>
      </trkpt>
      <trkpt lat="47.63142" lon="6.11103">
        <ele>219</ele>
        <time>2022-06-19T08:04:00Z</time>
      </trkpt>
      <trkpt lat="47.63141" lon="6.11102">
        <ele>219</ele>
        <time>2022-06-19T08:04:01Z</time>
      </trkpt>
      <trkpt lat="47.6314" lon="6.111">
        <ele>218.8</ele>
        <time>2022-06-19T08:04:02Z</time>
      </trkpt>
      <trkpt lat="47.63139" lon="6.11098">
        <ele>218.6</ele>
        <time>2022-06-19T08:04:03Z</time>
      </trkpt>
      <trkpt lat="47.63137" lon="6.11097">
        <ele>218.8</ele>
        <time>2022-06-19T08:04:04Z</time>
      </trkpt>
      <trkpt lat="47.63135" lon="6.11097">
        <ele>219</ele>
        <time>2022-06-19T08:04:05Z</time>
      </trkpt>
      <trkpt lat="47.63132" lon="6.11097">
        <ele>219</ele>
        <time>2022-06-19T08:04:06Z</time>
      </trkpt>
      <trkpt lat="47.63129" lon="6.11097">
        <ele>219.2</ele>
        <time>2022-06-19T08:04:07Z</time>
      </trkpt>
      <trkpt lat="47.63126" lon="6.11098">
        <ele>219.2</ele>
        <time>2022-06-19T08:04:08Z</time>
      </trkpt>
      <trkpt lat="47.63124" lon="6.111">
        <ele>219.2</ele>
        <time>2022-06-19T08:04:09Z</time>
      </trkpt>
      <trkpt lat="47.63121" lon="6.11102">
        <ele>219.2</ele>
        <time>2022-06-19T08:04:10Z</time>
      </trkpt>
      <trkpt lat="47.63118" lon="6.11105">
        <ele>219.2</ele>
        <time>2022-06-19T08:04:11Z</time>
      </trkpt>
      <trkpt lat="47.63074" lon="6.11163">
        <ele>219.2</ele>
        <time>2022-06-19T08:04:26Z</time>
      </trkpt>
      <trkpt lat="47.63066" lon="6.11184">
        <ele>219.2</ele>
        <time>2022-06-19T08:04:30Z</time>
      </trkpt>
      <trkpt lat="47.63062" lon="6.11188">
        <ele>219.2</ele>
        <time>2022-06-19T08:04:31Z</time>
      </trkpt>
      <trkpt lat="47.63058" lon="6.11191">
        <ele>219.4</ele>
        <time>2022-06-19T08:04:32Z</time>
      </trkpt>
      <trkpt lat="47.63054" lon="6.11192">
        <ele>219.4</ele>
        <time>2022-06-19T08:04:33Z</time>
      </trkpt>
      <trkpt lat="47.6305" lon="6.11191">
        <ele>219.4</ele>
        <time>2022-06-19T08:04:34Z</time>
      </trkpt>
      <trkpt lat="47.63046" lon="6.11189">
        <ele>219.6</ele>
        <time>2022-06-19T08:04:35Z</time>
      </trkpt>
      <trkpt lat="47.63041" lon="6.11186">
        <ele>220</ele>
        <time>2022-06-19T08:04:36Z</time>
      </trkpt>
      <trkpt lat="47.63038" lon="6.11183">
        <ele>220</ele>
        <time>2022-06-19T08:04:37Z</time>
      </trkpt>
      <trkpt lat="47.63034" lon="6.11179">
        <ele>220</ele>
        <time>2022-06-19T08:04:38Z</time>
      </trkpt>
      <trkpt lat="47.6303" lon="6.11174">
        <ele>219.8</ele>
        <time>2022-06-19T08:04:39Z</time>
      </trkpt>
      <trkpt lat="47.62983" lon="6.11127">
        <ele>220</ele>
        <time>2022-06-19T08:04:54Z</time>
      </trkpt>
      <trkpt lat="47.6298" lon="6.11128">
        <ele>220</ele>
        <time>2022-06-19T08:04:55Z</time>
      </trkpt>
      <trkpt lat="47.62978" lon="6.1113">
        <ele>219.8</ele>
        <time>2022-06-19T08:04:56Z</time>
      </trkpt>
      <trkpt lat="47.62946" lon="6.11199">
        <ele>219.8</ele>
        <time>2022-06-19T08:05:10Z</time>
      </trkpt>
      <trkpt lat="47.62915" lon="6.11274">
        <ele>220.4</ele>
        <time>2022-06-19T08:05:23Z</time>
      </trkpt>
      <trkpt lat="47.62888" lon="6.11341">
        <ele>221.2</ele>
        <time>2022-06-19T08:05:35Z</time>
      </trkpt>
      <trkpt lat="47.62879" lon="6.11365">
        <ele>220.8</ele>
        <time>2022-06-19T08:05:39Z</time>
      </trkpt>
      <trkpt lat="47.62866" lon="6.11408">
        <ele>221.6</ele>
        <time>2022-06-19T08:05:46Z</time>
      </trkpt>
      <trkpt lat="47.6285" lon="6.11495">
        <ele>222</ele>
        <time>2022-06-19T08:06:01Z</time>
      </trkpt>
      <trkpt lat="47.62846" lon="6.11538">
        <ele>222.4</ele>
        <time>2022-06-19T08:06:07Z</time>
      </trkpt>
      <trkpt lat="47.62848" lon="6.11591">
        <ele>222.2</ele>
        <time>2022-06-19T08:06:14Z</time>
      </trkpt>
      <trkpt lat="47.62864" lon="6.11679">
        <ele>220.8</ele>
        <time>2022-06-19T08:06:25Z</time>
      </trkpt>
      <trkpt lat="47.62885" lon="6.11763">
        <ele>221.2</ele>
        <time>2022-06-19T08:06:36Z</time>
      </trkpt>
      <trkpt lat="47.6289" lon="6.11777">
        <ele>221</ele>
        <time>2022-06-19T08:06:38Z</time>
      </trkpt>
      <trkpt lat="47.62895" lon="6.11798">
        <ele>220.8</ele>
        <time>2022-06-19T08:06:41Z</time>
      </trkpt>
      <trkpt lat="47.62896" lon="6.11805">
        <ele>220.8</ele>
        <time>2022-06-19T08:06:42Z</time>
      </trkpt>
      <trkpt lat="47.62897" lon="6.11812">
        <ele>220.8</ele>
        <time>2022-06-19T08:06:43Z</time>
      </trkpt>
      <trkpt lat="47.62907" lon="6.11851">
        <ele>220.4</ele>
        <time>2022-06-19T08:06:49Z</time>
      </trkpt>
      <trkpt lat="47.62912" lon="6.11863">
        <ele>219.8</ele>
        <time>2022-06-19T08:06:51Z</time>
      </trkpt>
      <trkpt lat="47.62933" lon="6.11947">
        <ele>219.8</ele>
        <time>2022-06-19T08:07:06Z</time>
      </trkpt>
      <trkpt lat="47.62949" lon="6.12013">
        <ele>219.8</ele>
        <time>2022-06-19T08:07:15Z</time>
      </trkpt>
      <trkpt lat="47.62965" lon="6.12092">
        <ele>219.4</ele>
        <time>2022-06-19T08:07:31Z</time>
      </trkpt>
      <trkpt lat="47.62972" lon="6.12093">
        <ele>219</ele>
        <time>2022-06-19T08:07:39Z</time>
      </trkpt>
      <trkpt lat="47.62973" lon="6.12095">
        <ele>219</ele>
        <time>2022-06-19T08:07:40Z</time>
      </trkpt>
      <trkpt lat="47.62974" lon="6.12096">
        <ele>219</ele>
        <time>2022-06-19T08:07:41Z</time>
      </trkpt>
      <trkpt lat="47.62975" lon="6.121">
        <ele>219</ele>
        <time>2022-06-19T08:07:42Z</time>
      </trkpt>
      <trkpt lat="47.62975" lon="6.12103">
        <ele>219</ele>
        <time>2022-06-19T08:07:43Z</time>
      </trkpt>
      <trkpt lat="47.62976" lon="6.12106">
        <ele>219</ele>
        <time>2022-06-19T08:07:44Z</time>
      </trkpt>
      <trkpt lat="47.62976" lon="6.1211">
        <ele>219</ele>
        <time>2022-06-19T08:07:45Z</time>
      </trkpt>
      <trkpt lat="47.62982" lon="6.12155">
        <ele>219</ele>
        <time>2022-06-19T08:07:57Z</time>
      </trkpt>
      <trkpt lat="47.62983" lon="6.12157">
        <ele>219</ele>
        <time>2022-06-19T08:07:58Z</time>
      </trkpt>
      <trkpt lat="47.62984" lon="6.12159">
        <ele>219.2</ele>
        <time>2022-06-19T08:07:59Z</time>
      </trkpt>
      <trkpt lat="47.62985" lon="6.1216">
        <ele>219.2</ele>
        <time>2022-06-19T08:08:00Z</time>
      </trkpt>
      <trkpt lat="47.62987" lon="6.12161">
        <ele>219.2</ele>
        <time>2022-06-19T08:08:01Z</time>
      </trkpt>
      <trkpt lat="47.62988" lon="6.12163">
        <ele>219</ele>
        <time>2022-06-19T08:08:02Z</time>
      </trkpt>
      <trkpt lat="47.62989" lon="6.12166">
        <ele>219</ele>
        <time>2022-06-19T08:08:03Z</time>
      </trkpt>
      <trkpt lat="47.62989" lon="6.1217">
        <ele>219.2</ele>
        <time>2022-06-19T08:08:04Z</time>
      </trkpt>
      <trkpt lat="47.62987" lon="6.12175">
        <ele>219.2</ele>
        <time>2022-06-19T08:08:06Z</time>
      </trkpt>
      <trkpt lat="47.62986" lon="6.12177">
        <ele>219</ele>
        <time>2022-06-19T08:08:07Z</time>
      </trkpt>
      <trkpt lat="47.62984" lon="6.12179">
        <ele>218.8</ele>
        <time>2022-06-19T08:08:08Z</time>
      </trkpt>
      <trkpt lat="47.62982" lon="6.12182">
        <ele>218.6</ele>
        <time>2022-06-19T08:08:09Z</time>
      </trkpt>
      <trkpt lat="47.62981" lon="6.12185">
        <ele>218.4</ele>
        <time>2022-06-19T08:08:10Z</time>
      </trkpt>
      <trkpt lat="47.6298" lon="6.12189">
        <ele>218.4</ele>
        <time>2022-06-19T08:08:11Z</time>
      </trkpt>
      <trkpt lat="47.62979" lon="6.12193">
        <ele>218.4</ele>
        <time>2022-06-19T08:08:12Z</time>
      </trkpt>
      <trkpt lat="47.62978" lon="6.12198">
        <ele>218.4</ele>
        <time>2022-06-19T08:08:13Z</time>
      </trkpt>
      <trkpt lat="47.62978" lon="6.12203">
        <ele>218.4</ele>
        <time>2022-06-19T08:08:14Z</time>
      </trkpt>
      <trkpt lat="47.62977" lon="6.12208">
        <ele>218.4</ele>
        <time>2022-06-19T08:08:15Z</time>
      </trkpt>
      <trkpt lat="47.62969" lon="6.12296">
        <ele>219.8</ele>
        <time>2022-06-19T08:08:32Z</time>
      </trkpt>
      <trkpt lat="47.62949" lon="6.12376">
        <ele>219.8</ele>
        <time>2022-06-19T08:08:47Z</time>
      </trkpt>
      <trkpt lat="47.62947" lon="6.12425">
        <ele>219.8</ele>
        <time>2022-06-19T08:08:57Z</time>
      </trkpt>
      <trkpt lat="47.62946" lon="6.1243">
        <ele>219.8</ele>
        <time>2022-06-19T08:08:58Z</time>
      </trkpt>
      <trkpt lat="47.62925" lon="6.12509">
        <ele>218.8</ele>
        <time>2022-06-19T08:09:14Z</time>
      </trkpt>
      <trkpt lat="47.62924" lon="6.12515">
        <ele>218.8</ele>
        <time>2022-06-19T08:09:15Z</time>
      </trkpt>
      <trkpt lat="47.62922" lon="6.12521">
        <ele>218.8</ele>
        <time>2022-06-19T08:09:16Z</time>
      </trkpt>
      <trkpt lat="47.62921" lon="6.12526">
        <ele>219</ele>
        <time>2022-06-19T08:09:17Z</time>
      </trkpt>
      <trkpt lat="47.62921" lon="6.12532">
        <ele>219.2</ele>
        <time>2022-06-19T08:09:18Z</time>
      </trkpt>
      <trkpt lat="47.62921" lon="6.12538">
        <ele>219.4</ele>
        <time>2022-06-19T08:09:19Z</time>
      </trkpt>
      <trkpt lat="47.62921" lon="6.12544">
        <ele>219.6</ele>
        <time>2022-06-19T08:09:20Z</time>
      </trkpt>
      <trkpt lat="47.62946" lon="6.12616">
        <ele>219.4</ele>
        <time>2022-06-19T08:09:40Z</time>
      </trkpt>
      <trkpt lat="47.6296" lon="6.12627">
        <ele>219.4</ele>
        <time>2022-06-19T08:09:44Z</time>
      </trkpt>
      <trkpt lat="47.63013" lon="6.12636">
        <ele>218.6</ele>
        <time>2022-06-19T08:09:59Z</time>
      </trkpt>
      <trkpt lat="47.63026" lon="6.12642">
        <ele>218.4</ele>
        <time>2022-06-19T08:10:05Z</time>
      </trkpt>
      <trkpt lat="47.63026" lon="6.12645">
        <ele>218.4</ele>
        <time>2022-06-19T08:10:06Z</time>
      </trkpt>
      <trkpt lat="47.63026" lon="6.12647">
        <ele>218.4</ele>
        <time>2022-06-19T08:10:07Z</time>
      </trkpt>
      <trkpt lat="47.63025" lon="6.1265">
        <ele>218.6</ele>
        <time>2022-06-19T08:10:08Z</time>
      </trkpt>
      <trkpt lat="47.63024" lon="6.12652">
        <ele>218.6</ele>
        <time>2022-06-19T08:10:09Z</time>
      </trkpt>
      <trkpt lat="47.63023" lon="6.12655">
        <ele>218.6</ele>
        <time>2022-06-19T08:10:10Z</time>
      </trkpt>
      <trkpt lat="47.63022" lon="6.12657">
        <ele>218.6</ele>
        <time>2022-06-19T08:10:11Z</time>
      </trkpt>
      <trkpt lat="47.63021" lon="6.1266">
        <ele>218.6</ele>
        <time>2022-06-19T08:10:12Z</time>
      </trkpt>
      <trkpt lat="47.63019" lon="6.12663">
        <ele>218.6</ele>
        <time>2022-06-19T08:10:13Z</time>
      </trkpt>
      <trkpt lat="47.63006" lon="6.12727">
        <ele>219</ele>
        <time>2022-06-19T08:10:42Z</time>
      </trkpt>
      <trkpt lat="47.62994" lon="6.12768">
        <ele>218.2</ele>
        <time>2022-06-19T08:24:06Z</time>
      </trkpt>
      <trkpt lat="47.62994" lon="6.1277">
        <ele>218.2</ele>
        <time>2022-06-19T08:24:07Z</time>
      </trkpt>
      <trkpt lat="47.62975" lon="6.1285">
        <ele>218.6</ele>
        <time>2022-06-19T08:24:27Z</time>
      </trkpt>
      <trkpt lat="47.62955" lon="6.12928">
        <ele>219</ele>
        <time>2022-06-19T08:24:46Z</time>
      </trkpt>
      <trkpt lat="47.62949" lon="6.12956">
        <ele>219.2</ele>
        <time>2022-06-19T08:25:01Z</time>
      </trkpt>
      <trkpt lat="47.62947" lon="6.12956">
        <ele>219.2</ele>
        <time>2022-06-19T08:25:02Z</time>
      </trkpt>
      <trkpt lat="47.62892" lon="6.12922">
        <ele>218.8</ele>
        <time>2022-06-19T08:25:22Z</time>
      </trkpt>
      <trkpt lat="47.62843" lon="6.12961">
        <ele>218.4</ele>
        <time>2022-06-19T08:25:39Z</time>
      </trkpt>
      <trkpt lat="47.62838" lon="6.12978">
        <ele>218.2</ele>
        <time>2022-06-19T08:25:42Z</time>
      </trkpt>
      <trkpt lat="47.62834" lon="6.12996">
        <ele>218.2</ele>
        <time>2022-06-19T08:25:45Z</time>
      </trkpt>
      <trkpt lat="47.62825" lon="6.13083">
        <ele>217.8</ele>
        <time>2022-06-19T08:25:57Z</time>
      </trkpt>
      <trkpt lat="47.62821" lon="6.13104">
        <ele>218</ele>
        <time>2022-06-19T08:26:00Z</time>
      </trkpt>
      <trkpt lat="47.62798" lon="6.13184">
        <ele>218.4</ele>
        <time>2022-06-19T08:26:13Z</time>
      </trkpt>
      <trkpt lat="47.62793" lon="6.13203">
        <ele>218.4</ele>
        <time>2022-06-19T08:26:16Z</time>
      </trkpt>
      <trkpt lat="47.62784" lon="6.13226">
        <ele>218.2</ele>
        <time>2022-06-19T08:26:20Z</time>
      </trkpt>
      <trkpt lat="47.62783" lon="6.13232">
        <ele>218.2</ele>
        <time>2022-06-19T08:26:21Z</time>
      </trkpt>
      <trkpt lat="47.6278" lon="6.13246">
        <ele>218</ele>
        <time>2022-06-19T08:26:23Z</time>
      </trkpt>
      <trkpt lat="47.62778" lon="6.1326">
        <ele>217.8</ele>
        <time>2022-06-19T08:26:25Z</time>
      </trkpt>
      <trkpt lat="47.62769" lon="6.13343">
        <ele>218.2</ele>
        <time>2022-06-19T08:26:37Z</time>
      </trkpt>
      <trkpt lat="47.62766" lon="6.13349">
        <ele>218.4</ele>
        <time>2022-06-19T08:26:38Z</time>
      </trkpt>
      <trkpt lat="47.62764" lon="6.13356">
        <ele>218.6</ele>
        <time>2022-06-19T08:26:39Z</time>
      </trkpt>
      <trkpt lat="47.62762" lon="6.13362">
        <ele>218.8</ele>
        <time>2022-06-19T08:26:40Z</time>
      </trkpt>
      <trkpt lat="47.6276" lon="6.13367">
        <ele>218.8</ele>
        <time>2022-06-19T08:26:41Z</time>
      </trkpt>
      <trkpt lat="47.62751" lon="6.13393">
        <ele>218.6</ele>
        <time>2022-06-19T08:26:45Z</time>
      </trkpt>
      <trkpt lat="47.62736" lon="6.13485">
        <ele>218.2</ele>
        <time>2022-06-19T08:27:00Z</time>
      </trkpt>
      <trkpt lat="47.62722" lon="6.1357">
        <ele>218</ele>
        <time>2022-06-19T08:27:14Z</time>
      </trkpt>
      <trkpt lat="47.62721" lon="6.13596">
        <ele>218</ele>
        <time>2022-06-19T08:27:18Z</time>
      </trkpt>
      <trkpt lat="47.6272" lon="6.13608">
        <ele>218</ele>
        <time>2022-06-19T08:27:20Z</time>
      </trkpt>
      <trkpt lat="47.62718" lon="6.13614">
        <ele>218.2</ele>
        <time>2022-06-19T08:27:21Z</time>
      </trkpt>
      <trkpt lat="47.62688" lon="6.13673">
        <ele>219</ele>
        <time>2022-06-19T08:27:44Z</time>
      </trkpt>
      <trkpt lat="47.62689" lon="6.13685">
        <ele>218.8</ele>
        <time>2022-06-19T08:27:51Z</time>
      </trkpt>
      <trkpt lat="47.62688" lon="6.1369">
        <ele>219</ele>
        <time>2022-06-19T08:27:52Z</time>
      </trkpt>
      <trkpt lat="47.62687" lon="6.13695">
        <ele>219</ele>
        <time>2022-06-19T08:27:53Z</time>
      </trkpt>
      <trkpt lat="47.62686" lon="6.13701">
        <ele>218.8</ele>
        <time>2022-06-19T08:27:54Z</time>
      </trkpt>
      <trkpt lat="47.62683" lon="6.13706">
        <ele>218.8</ele>
        <time>2022-06-19T08:27:55Z</time>
      </trkpt>
      <trkpt lat="47.62681" lon="6.13712">
        <ele>218.6</ele>
        <time>2022-06-19T08:27:56Z</time>
      </trkpt>
      <trkpt lat="47.6268" lon="6.13717">
        <ele>218.4</ele>
        <time>2022-06-19T08:27:57Z</time>
      </trkpt>
      <trkpt lat="47.62679" lon="6.13723">
        <ele>218.4</ele>
        <time>2022-06-19T08:27:58Z</time>
      </trkpt>
      <trkpt lat="47.62672" lon="6.13739">
        <ele>218.6</ele>
        <time>2022-06-19T08:28:03Z</time>
      </trkpt>
      <trkpt lat="47.62668" lon="6.13739">
        <ele>218.6</ele>
        <time>2022-06-19T08:28:04Z</time>
      </trkpt>
      <trkpt lat="47.62666" lon="6.13739">
        <ele>218.6</ele>
        <time>2022-06-19T08:28:05Z</time>
      </trkpt>
      <trkpt lat="47.62614" lon="6.13789">
        <ele>220.2</ele>
        <time>2022-06-19T08:28:32Z</time>
      </trkpt>
      <trkpt lat="47.62591" lon="6.13819">
        <ele>220</ele>
        <time>2022-06-19T08:28:42Z</time>
      </trkpt>
      <trkpt lat="47.62588" lon="6.13819">
        <ele>220</ele>
        <time>2022-06-19T08:28:43Z</time>
      </trkpt>
      <trkpt lat="47.62586" lon="6.13817">
        <ele>220</ele>
        <time>2022-06-19T08:28:44Z</time>
      </trkpt>
      <trkpt lat="47.62583" lon="6.13816">
        <ele>219.8</ele>
        <time>2022-06-19T08:28:45Z</time>
      </trkpt>
      <trkpt lat="47.62581" lon="6.13817">
        <ele>220</ele>
        <time>2022-06-19T08:28:46Z</time>
      </trkpt>
      <trkpt lat="47.62579" lon="6.13818">
        <ele>220.2</ele>
        <time>2022-06-19T08:28:47Z</time>
      </trkpt>
      <trkpt lat="47.62577" lon="6.13821">
        <ele>220.4</ele>
        <time>2022-06-19T08:28:48Z</time>
      </trkpt>
      <trkpt lat="47.62576" lon="6.13824">
        <ele>220.6</ele>
        <time>2022-06-19T08:28:49Z</time>
      </trkpt>
      <trkpt lat="47.62575" lon="6.13827">
        <ele>220.8</ele>
        <time>2022-06-19T08:28:50Z</time>
      </trkpt>
      <trkpt lat="47.62575" lon="6.1383">
        <ele>221</ele>
        <time>2022-06-19T08:28:51Z</time>
      </trkpt>
      <trkpt lat="47.62576" lon="6.13834">
        <ele>221</ele>
        <time>2022-06-19T08:28:52Z</time>
      </trkpt>
      <trkpt lat="47.62576" lon="6.13838">
        <ele>221</ele>
        <time>2022-06-19T08:28:53Z</time>
      </trkpt>
      <trkpt lat="47.62577" lon="6.13842">
        <ele>221.2</ele>
        <time>2022-06-19T08:28:54Z</time>
      </trkpt>
      <trkpt lat="47.62578" lon="6.13846">
        <ele>221</ele>
        <time>2022-06-19T08:28:55Z</time>
      </trkpt>
      <trkpt lat="47.6258" lon="6.13849">
        <ele>221</ele>
        <time>2022-06-19T08:28:56Z</time>
      </trkpt>
      <trkpt lat="47.62581" lon="6.13853">
        <ele>221</ele>
        <time>2022-06-19T08:28:57Z</time>
      </trkpt>
      <trkpt lat="47.6262" lon="6.13885">
        <ele>220.6</ele>
        <time>2022-06-19T08:29:17Z</time>
      </trkpt>
      <trkpt lat="47.6262" lon="6.13881">
        <ele>220.4</ele>
        <time>2022-06-19T08:29:18Z</time>
      </trkpt>
      <trkpt lat="47.62618" lon="6.13877">
        <ele>220.2</ele>
        <time>2022-06-19T08:29:19Z</time>
      </trkpt>
      <trkpt lat="47.62617" lon="6.13874">
        <ele>220</ele>
        <time>2022-06-19T08:29:20Z</time>
      </trkpt>
      <trkpt lat="47.62615" lon="6.13872">
        <ele>219.8</ele>
        <time>2022-06-19T08:29:21Z</time>
      </trkpt>
      <trkpt lat="47.62613" lon="6.1387">
        <ele>219.6</ele>
        <time>2022-06-19T08:29:22Z</time>
      </trkpt>
      <trkpt lat="47.6261" lon="6.1387">
        <ele>219.4</ele>
        <time>2022-06-19T08:29:23Z</time>
      </trkpt>
      <trkpt lat="47.62607" lon="6.1387">
        <ele>219.2</ele>
        <time>2022-06-19T08:29:24Z</time>
      </trkpt>
      <trkpt lat="47.62604" lon="6.13871">
        <ele>219</ele>
        <time>2022-06-19T08:29:25Z</time>
      </trkpt>
      <trkpt lat="47.62586" lon="6.13887">
        <ele>217.4</ele>
        <time>2022-06-19T08:29:33Z</time>
      </trkpt>
      <trkpt lat="47.62589" lon="6.13962">
        <ele>219</ele>
        <time>2022-06-19T08:29:52Z</time>
      </trkpt>
      <trkpt lat="47.62588" lon="6.13965">
        <ele>219.2</ele>
        <time>2022-06-19T08:29:53Z</time>
      </trkpt>
      <trkpt lat="47.62586" lon="6.13968">
        <ele>219.2</ele>
        <time>2022-06-19T08:29:54Z</time>
      </trkpt>
      <trkpt lat="47.62543" lon="6.14027">
        <ele>217</ele>
        <time>2022-06-19T08:30:10Z</time>
      </trkpt>
      <trkpt lat="47.62516" lon="6.14064">
        <ele>216.6</ele>
        <time>2022-06-19T08:30:19Z</time>
      </trkpt>
      <trkpt lat="47.62479" lon="6.14116">
        <ele>217.6</ele>
        <time>2022-06-19T08:30:31Z</time>
      </trkpt>
      <trkpt lat="47.62476" lon="6.14121">
        <ele>217.6</ele>
        <time>2022-06-19T08:30:32Z</time>
      </trkpt>
      <trkpt lat="47.62433" lon="6.14185">
        <ele>217.2</ele>
        <time>2022-06-19T08:30:45Z</time>
      </trkpt>
      <trkpt lat="47.62409" lon="6.14222">
        <ele>217.2</ele>
        <time>2022-06-19T08:30:53Z</time>
      </trkpt>
      <trkpt lat="47.62383" lon="6.1426">
        <ele>217.8</ele>
        <time>2022-06-19T08:31:02Z</time>
      </trkpt>
      <trkpt lat="47.62328" lon="6.14273">
        <ele>218.4</ele>
        <time>2022-06-19T08:31:18Z</time>
      </trkpt>
      <trkpt lat="47.62269" lon="6.14261">
        <ele>219</ele>
        <time>2022-06-19T08:31:30Z</time>
      </trkpt>
      <trkpt lat="47.62261" lon="6.14255">
        <ele>218.6</ele>
        <time>2022-06-19T08:31:32Z</time>
      </trkpt>
      <trkpt lat="47.62257" lon="6.14252">
        <ele>218.4</ele>
        <time>2022-06-19T08:31:33Z</time>
      </trkpt>
      <trkpt lat="47.62238" lon="6.1424">
        <ele>218.6</ele>
        <time>2022-06-19T08:31:38Z</time>
      </trkpt>
      <trkpt lat="47.62223" lon="6.14233">
        <ele>219.6</ele>
        <time>2022-06-19T08:31:42Z</time>
      </trkpt>
      <trkpt lat="47.62214" lon="6.14231">
        <ele>219.2</ele>
        <time>2022-06-19T08:31:44Z</time>
      </trkpt>
      <trkpt lat="47.6221" lon="6.14232">
        <ele>218.8</ele>
        <time>2022-06-19T08:31:45Z</time>
      </trkpt>
      <trkpt lat="47.62176" lon="6.14243">
        <ele>218.4</ele>
        <time>2022-06-19T08:31:53Z</time>
      </trkpt>
      <trkpt lat="47.62172" lon="6.14245">
        <ele>218.4</ele>
        <time>2022-06-19T08:31:54Z</time>
      </trkpt>
      <trkpt lat="47.62167" lon="6.14246">
        <ele>218.4</ele>
        <time>2022-06-19T08:31:55Z</time>
      </trkpt>
      <trkpt lat="47.62163" lon="6.14248">
        <ele>218.2</ele>
        <time>2022-06-19T08:31:56Z</time>
      </trkpt>
      <trkpt lat="47.62159" lon="6.1425">
        <ele>218.2</ele>
        <time>2022-06-19T08:31:57Z</time>
      </trkpt>
      <trkpt lat="47.6212" lon="6.14268">
        <ele>218.8</ele>
        <time>2022-06-19T08:32:07Z</time>
      </trkpt>
      <trkpt lat="47.62116" lon="6.14271">
        <ele>218.8</ele>
        <time>2022-06-19T08:32:08Z</time>
      </trkpt>
      <trkpt lat="47.62112" lon="6.14275">
        <ele>218.6</ele>
        <time>2022-06-19T08:32:09Z</time>
      </trkpt>
      <trkpt lat="47.62109" lon="6.1428">
        <ele>218.6</ele>
        <time>2022-06-19T08:32:10Z</time>
      </trkpt>
      <trkpt lat="47.62106" lon="6.14285">
        <ele>218.6</ele>
        <time>2022-06-19T08:32:11Z</time>
      </trkpt>
      <trkpt lat="47.62104" lon="6.14291">
        <ele>218.4</ele>
        <time>2022-06-19T08:32:12Z</time>
      </trkpt>
      <trkpt lat="47.62103" lon="6.14298">
        <ele>218.6</ele>
        <time>2022-06-19T08:32:13Z</time>
      </trkpt>
      <trkpt lat="47.62101" lon="6.14304">
        <ele>218.8</ele>
        <time>2022-06-19T08:32:14Z</time>
      </trkpt>
      <trkpt lat="47.62084" lon="6.14389">
        <ele>218.6</ele>
        <time>2022-06-19T08:32:26Z</time>
      </trkpt>
      <trkpt lat="47.62068" lon="6.14473">
        <ele>217.4</ele>
        <time>2022-06-19T08:32:37Z</time>
      </trkpt>
      <trkpt lat="47.62053" lon="6.14552">
        <ele>217.2</ele>
        <time>2022-06-19T08:32:48Z</time>
      </trkpt>
      <trkpt lat="47.62047" lon="6.14639">
        <ele>217.6</ele>
        <time>2022-06-19T08:33:01Z</time>
      </trkpt>
      <trkpt lat="47.62044" lon="6.14722">
        <ele>218.8</ele>
        <time>2022-06-19T08:33:18Z</time>
      </trkpt>
      <trkpt lat="47.62046" lon="6.14726">
        <ele>219</ele>
        <time>2022-06-19T08:33:26Z</time>
      </trkpt>
      <trkpt lat="47.62044" lon="6.14733">
        <ele>219.2</ele>
        <time>2022-06-19T08:34:10Z</time>
      </trkpt>
      <trkpt lat="47.62043" lon="6.14734">
        <ele>219.2</ele>
        <time>2022-06-19T08:34:11Z</time>
      </trkpt>
      <trkpt lat="47.62042" lon="6.14736">
        <ele>219.4</ele>
        <time>2022-06-19T08:34:12Z</time>
      </trkpt>
      <trkpt lat="47.62002" lon="6.14801">
        <ele>219.4</ele>
        <time>2022-06-19T08:34:29Z</time>
      </trkpt>
      <trkpt lat="47.6195" lon="6.14806">
        <ele>219.8</ele>
        <time>2022-06-19T08:34:48Z</time>
      </trkpt>
      <trkpt lat="47.61944" lon="6.148">
        <ele>219</ele>
        <time>2022-06-19T08:35:00Z</time>
      </trkpt>
      <trkpt lat="47.61936" lon="6.14803">
        <ele>219.4</ele>
        <time>2022-06-19T08:35:10Z</time>
      </trkpt>
      <trkpt lat="47.61934" lon="6.14806">
        <ele>219.4</ele>
        <time>2022-06-19T08:35:11Z</time>
      </trkpt>
      <trkpt lat="47.61932" lon="6.14809">
        <ele>219.4</ele>
        <time>2022-06-19T08:35:12Z</time>
      </trkpt>
      <trkpt lat="47.6193" lon="6.14814">
        <ele>219.4</ele>
        <time>2022-06-19T08:35:13Z</time>
      </trkpt>
      <trkpt lat="47.61927" lon="6.14819">
        <ele>219.6</ele>
        <time>2022-06-19T08:35:14Z</time>
      </trkpt>
      <trkpt lat="47.61925" lon="6.14825">
        <ele>219.6</ele>
        <time>2022-06-19T08:35:15Z</time>
      </trkpt>
      <trkpt lat="47.61919" lon="6.14842">
        <ele>219.8</ele>
        <time>2022-06-19T08:35:18Z</time>
      </trkpt>
      <trkpt lat="47.61917" lon="6.14848">
        <ele>220</ele>
        <time>2022-06-19T08:35:19Z</time>
      </trkpt>
      <trkpt lat="47.61916" lon="6.14854">
        <ele>220.2</ele>
        <time>2022-06-19T08:35:20Z</time>
      </trkpt>
      <trkpt lat="47.61895" lon="6.14935">
        <ele>220</ele>
        <time>2022-06-19T08:35:34Z</time>
      </trkpt>
      <trkpt lat="47.61864" lon="6.15006">
        <ele>221</ele>
        <time>2022-06-19T08:35:50Z</time>
      </trkpt>
      <trkpt lat="47.61823" lon="6.15071">
        <ele>221.2</ele>
        <time>2022-06-19T08:36:04Z</time>
      </trkpt>
      <trkpt lat="47.61821" lon="6.15077">
        <ele>221.4</ele>
        <time>2022-06-19T08:36:05Z</time>
      </trkpt>
      <trkpt lat="47.61819" lon="6.15083">
        <ele>221.4</ele>
        <time>2022-06-19T08:36:06Z</time>
      </trkpt>
      <trkpt lat="47.61802" lon="6.15169">
        <ele>221</ele>
        <time>2022-06-19T08:36:18Z</time>
      </trkpt>
      <trkpt lat="47.61788" lon="6.15252">
        <ele>221.2</ele>
        <time>2022-06-19T08:36:32Z</time>
      </trkpt>
      <trkpt lat="47.61775" lon="6.15334">
        <ele>221</ele>
        <time>2022-06-19T08:36:46Z</time>
      </trkpt>
      <trkpt lat="47.61758" lon="6.15365">
        <ele>222.8</ele>
        <time>2022-06-19T08:36:53Z</time>
      </trkpt>
      <trkpt lat="47.61757" lon="6.15369">
        <ele>222.4</ele>
        <time>2022-06-19T08:36:54Z</time>
      </trkpt>
      <trkpt lat="47.61757" lon="6.15374">
        <ele>222.2</ele>
        <time>2022-06-19T08:36:55Z</time>
      </trkpt>
      <trkpt lat="47.61758" lon="6.15378">
        <ele>221.8</ele>
        <time>2022-06-19T08:36:56Z</time>
      </trkpt>
      <trkpt lat="47.6176" lon="6.15381">
        <ele>221.6</ele>
        <time>2022-06-19T08:36:57Z</time>
      </trkpt>
      <trkpt lat="47.61763" lon="6.15383">
        <ele>221.4</ele>
        <time>2022-06-19T08:36:58Z</time>
      </trkpt>
      <trkpt lat="47.61766" lon="6.15384">
        <ele>221.2</ele>
        <time>2022-06-19T08:36:59Z</time>
      </trkpt>
      <trkpt lat="47.61769" lon="6.15383">
        <ele>221.2</ele>
        <time>2022-06-19T08:37:00Z</time>
      </trkpt>
      <trkpt lat="47.61773" lon="6.15383">
        <ele>221</ele>
        <time>2022-06-19T08:37:01Z</time>
      </trkpt>
      <trkpt lat="47.61778" lon="6.15384">
        <ele>221.2</ele>
        <time>2022-06-19T08:37:02Z</time>
      </trkpt>
      <trkpt lat="47.61782" lon="6.15386">
        <ele>221.2</ele>
        <time>2022-06-19T08:37:03Z</time>
      </trkpt>
      <trkpt lat="47.61786" lon="6.15389">
        <ele>221.4</ele>
        <time>2022-06-19T08:37:04Z</time>
      </trkpt>
      <trkpt lat="47.6179" lon="6.15391">
        <ele>221.6</ele>
        <time>2022-06-19T08:37:05Z</time>
      </trkpt>
      <trkpt lat="47.61794" lon="6.15392">
        <ele>221.6</ele>
        <time>2022-06-19T08:37:06Z</time>
      </trkpt>
      <trkpt lat="47.61849" lon="6.15421">
        <ele>221.6</ele>
        <time>2022-06-19T08:37:25Z</time>
      </trkpt>
      <trkpt lat="47.61907" lon="6.15449">
        <ele>222</ele>
        <time>2022-06-19T08:37:41Z</time>
      </trkpt>
      <trkpt lat="47.6196" lon="6.15466">
        <ele>222.2</ele>
        <time>2022-06-19T08:38:00Z</time>
      </trkpt>
      <trkpt lat="47.62017" lon="6.15483">
        <ele>220.4</ele>
        <time>2022-06-19T08:38:22Z</time>
      </trkpt>
      <trkpt lat="47.62061" lon="6.15515">
        <ele>220.4</ele>
        <time>2022-06-19T08:38:46Z</time>
      </trkpt>
      <trkpt lat="47.62065" lon="6.15511">
        <ele>221</ele>
        <time>2022-06-19T08:48:50Z</time>
      </trkpt>
      <trkpt lat="47.62067" lon="6.15512">
        <ele>221</ele>
        <time>2022-06-19T08:48:51Z</time>
      </trkpt>
      <trkpt lat="47.62123" lon="6.15529">
        <ele>221.4</ele>
        <time>2022-06-19T08:49:07Z</time>
      </trkpt>
      <trkpt lat="47.62176" lon="6.15544">
        <ele>221</ele>
        <time>2022-06-19T08:49:23Z</time>
      </trkpt>
      <trkpt lat="47.62177" lon="6.15547">
        <ele>221</ele>
        <time>2022-06-19T08:49:24Z</time>
      </trkpt>
      <trkpt lat="47.62177" lon="6.1555">
        <ele>220.8</ele>
        <time>2022-06-19T08:49:25Z</time>
      </trkpt>
      <trkpt lat="47.62176" lon="6.15554">
        <ele>220.8</ele>
        <time>2022-06-19T08:49:26Z</time>
      </trkpt>
      <trkpt lat="47.62176" lon="6.15558">
        <ele>220.8</ele>
        <time>2022-06-19T08:49:27Z</time>
      </trkpt>
      <trkpt lat="47.62175" lon="6.15563">
        <ele>220.8</ele>
        <time>2022-06-19T08:49:28Z</time>
      </trkpt>
      <trkpt lat="47.62179" lon="6.15633">
        <ele>221.6</ele>
        <time>2022-06-19T08:49:42Z</time>
      </trkpt>
      <trkpt lat="47.62178" lon="6.15636">
        <ele>221.8</ele>
        <time>2022-06-19T08:49:43Z</time>
      </trkpt>
      <trkpt lat="47.62175" lon="6.15638">
        <ele>221.8</ele>
        <time>2022-06-19T08:49:44Z</time>
      </trkpt>
      <trkpt lat="47.62173" lon="6.1564">
        <ele>221.8</ele>
        <time>2022-06-19T08:49:45Z</time>
      </trkpt>
      <trkpt lat="47.62171" lon="6.15643">
        <ele>221.8</ele>
        <time>2022-06-19T08:49:46Z</time>
      </trkpt>
      <trkpt lat="47.62124" lon="6.15671">
        <ele>221.8</ele>
        <time>2022-06-19T08:50:02Z</time>
      </trkpt>
      <trkpt lat="47.62067" lon="6.157">
        <ele>222</ele>
        <time>2022-06-19T08:50:17Z</time>
      </trkpt>
      <trkpt lat="47.62042" lon="6.15707">
        <ele>221.2</ele>
        <time>2022-06-19T08:50:24Z</time>
      </trkpt>
      <trkpt lat="47.62038" lon="6.15705">
        <ele>221.2</ele>
        <time>2022-06-19T08:50:25Z</time>
      </trkpt>
      <trkpt lat="47.62037" lon="6.15699">
        <ele>221.4</ele>
        <time>2022-06-19T08:50:26Z</time>
      </trkpt>
      <trkpt lat="47.62036" lon="6.15694">
        <ele>221.4</ele>
        <time>2022-06-19T08:50:27Z</time>
      </trkpt>
      <trkpt lat="47.62036" lon="6.15689">
        <ele>221.4</ele>
        <time>2022-06-19T08:50:28Z</time>
      </trkpt>
      <trkpt lat="47.62036" lon="6.15684">
        <ele>221.4</ele>
        <time>2022-06-19T08:50:29Z</time>
      </trkpt>
      <trkpt lat="47.62036" lon="6.15679">
        <ele>221.2</ele>
        <time>2022-06-19T08:50:30Z</time>
      </trkpt>
      <trkpt lat="47.62036" lon="6.15673">
        <ele>221.2</ele>
        <time>2022-06-19T08:50:31Z</time>
      </trkpt>
      <trkpt lat="47.62037" lon="6.15668">
        <ele>221.2</ele>
        <time>2022-06-19T08:50:32Z</time>
      </trkpt>
      <trkpt lat="47.62037" lon="6.15663">
        <ele>221.2</ele>
        <time>2022-06-19T08:50:33Z</time>
      </trkpt>
      <trkpt lat="47.62038" lon="6.15658">
        <ele>221.2</ele>
        <time>2022-06-19T08:50:34Z</time>
      </trkpt>
      <trkpt lat="47.62052" lon="6.15575">
        <ele>220.2</ele>
        <time>2022-06-19T08:50:49Z</time>
      </trkpt>
      <trkpt lat="47.62079" lon="6.15497">
        <ele>220.4</ele>
        <time>2022-06-19T08:51:12Z</time>
      </trkpt>
      <trkpt lat="47.62088" lon="6.15477">
        <ele>220.2</ele>
        <time>2022-06-19T08:51:17Z</time>
      </trkpt>
      <trkpt lat="47.62089" lon="6.15472">
        <ele>220</ele>
        <time>2022-06-19T08:51:18Z</time>
      </trkpt>
      <trkpt lat="47.62088" lon="6.15468">
        <ele>219.6</ele>
        <time>2022-06-19T08:51:19Z</time>
      </trkpt>
      <trkpt lat="47.62087" lon="6.15464">
        <ele>219.6</ele>
        <time>2022-06-19T08:51:20Z</time>
      </trkpt>
      <trkpt lat="47.62085" lon="6.15459">
        <ele>219.6</ele>
        <time>2022-06-19T08:51:21Z</time>
      </trkpt>
      <trkpt lat="47.62059" lon="6.15418">
        <ele>221.2</ele>
        <time>2022-06-19T08:51:36Z</time>
      </trkpt>
      <trkpt lat="47.62061" lon="6.15419">
        <ele>221.2</ele>
        <time>2022-06-19T08:51:39Z</time>
      </trkpt>
      <trkpt lat="47.62063" lon="6.15418">
        <ele>221</ele>
        <time>2022-06-19T08:51:40Z</time>
      </trkpt>
      <trkpt lat="47.62066" lon="6.15418">
        <ele>220.8</ele>
        <time>2022-06-19T08:51:41Z</time>
      </trkpt>
      <trkpt lat="47.62069" lon="6.15416">
        <ele>220.6</ele>
        <time>2022-06-19T08:51:42Z</time>
      </trkpt>
      <trkpt lat="47.62071" lon="6.15414">
        <ele>219.8</ele>
        <time>2022-06-19T08:51:43Z</time>
      </trkpt>
      <trkpt lat="47.62072" lon="6.15411">
        <ele>219.4</ele>
        <time>2022-06-19T08:51:44Z</time>
      </trkpt>
      <trkpt lat="47.62074" lon="6.15406">
        <ele>220.2</ele>
        <time>2022-06-19T08:51:45Z</time>
      </trkpt>
      <trkpt lat="47.62076" lon="6.15397">
        <ele>220.8</ele>
        <time>2022-06-19T08:51:47Z</time>
      </trkpt>
      <trkpt lat="47.62072" lon="6.1531">
        <ele>220.4</ele>
        <time>2022-06-19T08:52:02Z</time>
      </trkpt>
      <trkpt lat="47.62071" lon="6.15298">
        <ele>220</ele>
        <time>2022-06-19T08:52:04Z</time>
      </trkpt>
      <trkpt lat="47.62069" lon="6.15213">
        <ele>220.4</ele>
        <time>2022-06-19T08:52:19Z</time>
      </trkpt>
      <trkpt lat="47.62069" lon="6.15207">
        <ele>220.6</ele>
        <time>2022-06-19T08:52:20Z</time>
      </trkpt>
      <trkpt lat="47.62068" lon="6.15201">
        <ele>220.8</ele>
        <time>2022-06-19T08:52:21Z</time>
      </trkpt>
      <trkpt lat="47.62068" lon="6.15194">
        <ele>220.6</ele>
        <time>2022-06-19T08:52:22Z</time>
      </trkpt>
      <trkpt lat="47.62067" lon="6.1511">
        <ele>220.8</ele>
        <time>2022-06-19T08:52:37Z</time>
      </trkpt>
      <trkpt lat="47.62066" lon="6.15092">
        <ele>220.8</ele>
        <time>2022-06-19T08:52:42Z</time>
      </trkpt>
      <trkpt lat="47.62064" lon="6.15089">
        <ele>221.2</ele>
        <time>2022-06-19T08:52:43Z</time>
      </trkpt>
      <trkpt lat="47.62062" lon="6.15087">
        <ele>221.4</ele>
        <time>2022-06-19T08:52:44Z</time>
      </trkpt>
      <trkpt lat="47.6206" lon="6.15085">
        <ele>221.6</ele>
        <time>2022-06-19T08:52:45Z</time>
      </trkpt>
      <trkpt lat="47.62057" lon="6.15084">
        <ele>221.8</ele>
        <time>2022-06-19T08:52:46Z</time>
      </trkpt>
      <trkpt lat="47.62054" lon="6.15084">
        <ele>221.8</ele>
        <time>2022-06-19T08:52:47Z</time>
      </trkpt>
      <trkpt lat="47.62051" lon="6.15084">
        <ele>221.6</ele>
        <time>2022-06-19T08:52:48Z</time>
      </trkpt>
      <trkpt lat="47.62048" lon="6.15084">
        <ele>221.4</ele>
        <time>2022-06-19T08:52:49Z</time>
      </trkpt>
      <trkpt lat="47.61987" lon="6.15089">
        <ele>220</ele>
        <time>2022-06-19T08:53:07Z</time>
      </trkpt>
      <trkpt lat="47.61941" lon="6.15093">
        <ele>220.2</ele>
        <time>2022-06-19T08:53:22Z</time>
      </trkpt>
      <trkpt lat="47.61939" lon="6.1509">
        <ele>220.2</ele>
        <time>2022-06-19T08:53:23Z</time>
      </trkpt>
      <trkpt lat="47.61938" lon="6.15086">
        <ele>220.2</ele>
        <time>2022-06-19T08:53:24Z</time>
      </trkpt>
      <trkpt lat="47.61937" lon="6.15082">
        <ele>220</ele>
        <time>2022-06-19T08:53:25Z</time>
      </trkpt>
      <trkpt lat="47.61936" lon="6.15077">
        <ele>220.2</ele>
        <time>2022-06-19T08:53:26Z</time>
      </trkpt>
      <trkpt lat="47.61936" lon="6.15072">
        <ele>220.4</ele>
        <time>2022-06-19T08:53:27Z</time>
      </trkpt>
      <trkpt lat="47.61932" lon="6.14985">
        <ele>220</ele>
        <time>2022-06-19T08:53:43Z</time>
      </trkpt>
      <trkpt lat="47.61949" lon="6.14903">
        <ele>219.6</ele>
        <time>2022-06-19T08:54:02Z</time>
      </trkpt>
      <trkpt lat="47.61949" lon="6.14897">
        <ele>219.4</ele>
        <time>2022-06-19T08:54:09Z</time>
      </trkpt>
      <trkpt lat="47.61948" lon="6.14896">
        <ele>219.6</ele>
        <time>2022-06-19T08:54:10Z</time>
      </trkpt>
      <trkpt lat="47.61946" lon="6.14897">
        <ele>219.4</ele>
        <time>2022-06-19T08:54:13Z</time>
      </trkpt>
      <trkpt lat="47.61945" lon="6.14901">
        <ele>219.4</ele>
        <time>2022-06-19T08:54:16Z</time>
      </trkpt>
      <trkpt lat="47.61944" lon="6.14904">
        <ele>219.6</ele>
        <time>2022-06-19T08:54:17Z</time>
      </trkpt>
      <trkpt lat="47.61944" lon="6.14907">
        <ele>219.6</ele>
        <time>2022-06-19T08:54:18Z</time>
      </trkpt>
      <trkpt lat="47.61943" lon="6.14909">
        <ele>219.8</ele>
        <time>2022-06-19T08:54:19Z</time>
      </trkpt>
      <trkpt lat="47.61943" lon="6.1491">
        <ele>219.8</ele>
        <time>2022-06-19T08:54:20Z</time>
      </trkpt>
      <trkpt lat="47.61942" lon="6.14912">
        <ele>219.8</ele>
        <time>2022-06-19T08:54:21Z</time>
      </trkpt>
      <trkpt lat="47.61942" lon="6.14913">
        <ele>219.8</ele>
        <time>2022-06-19T08:54:22Z</time>
      </trkpt>
      <trkpt lat="47.61935" lon="6.14997">
        <ele>220.2</ele>
        <time>2022-06-19T08:54:42Z</time>
      </trkpt>
      <trkpt lat="47.61937" lon="6.1508">
        <ele>220.4</ele>
        <time>2022-06-19T08:54:55Z</time>
      </trkpt>
      <trkpt lat="47.6194" lon="6.15168">
        <ele>218.8</ele>
        <time>2022-06-19T08:55:08Z</time>
      </trkpt>
      <trkpt lat="47.61945" lon="6.15252">
        <ele>219.6</ele>
        <time>2022-06-19T08:55:20Z</time>
      </trkpt>
      <trkpt lat="47.61946" lon="6.15343">
        <ele>220</ele>
        <time>2022-06-19T08:55:32Z</time>
      </trkpt>
      <trkpt lat="47.6194" lon="6.15427">
        <ele>221.8</ele>
        <time>2022-06-19T08:55:47Z</time>
      </trkpt>
      <trkpt lat="47.61938" lon="6.15445">
        <ele>222.4</ele>
        <time>2022-06-19T08:55:53Z</time>
      </trkpt>
      <trkpt lat="47.61937" lon="6.15446">
        <ele>222.4</ele>
        <time>2022-06-19T08:55:54Z</time>
      </trkpt>
      <trkpt lat="47.61935" lon="6.15447">
        <ele>222</ele>
        <time>2022-06-19T08:56:00Z</time>
      </trkpt>
      <trkpt lat="47.61922" lon="6.15447">
        <ele>222</ele>
        <time>2022-06-19T08:56:43Z</time>
      </trkpt>
      <trkpt lat="47.6192" lon="6.15446">
        <ele>222</ele>
        <time>2022-06-19T08:56:44Z</time>
      </trkpt>
      <trkpt lat="47.61883" lon="6.15427">
        <ele>221.8</ele>
        <time>2022-06-19T08:57:10Z</time>
      </trkpt>
      <trkpt lat="47.61878" lon="6.15437">
        <ele>222</ele>
        <time>2022-06-19T08:58:23Z</time>
      </trkpt>
      <trkpt lat="47.61879" lon="6.15438">
        <ele>222</ele>
        <time>2022-06-19T08:58:24Z</time>
      </trkpt>
      <trkpt lat="47.61881" lon="6.1544">
        <ele>222</ele>
        <time>2022-06-19T08:58:25Z</time>
      </trkpt>
      <trkpt lat="47.61884" lon="6.15441">
        <ele>222</ele>
        <time>2022-06-19T08:58:26Z</time>
      </trkpt>
      <trkpt lat="47.61929" lon="6.15463">
        <ele>222.8</ele>
        <time>2022-06-19T08:58:40Z</time>
      </trkpt>
      <trkpt lat="47.6193" lon="6.15466">
        <ele>222.8</ele>
        <time>2022-06-19T08:58:41Z</time>
      </trkpt>
      <trkpt lat="47.6193" lon="6.15468">
        <ele>222.8</ele>
        <time>2022-06-19T08:58:42Z</time>
      </trkpt>
      <trkpt lat="47.6193" lon="6.15471">
        <ele>222.6</ele>
        <time>2022-06-19T08:58:43Z</time>
      </trkpt>
      <trkpt lat="47.6193" lon="6.15474">
        <ele>222.6</ele>
        <time>2022-06-19T08:58:44Z</time>
      </trkpt>
      <trkpt lat="47.61947" lon="6.15554">
        <ele>222.6</ele>
        <time>2022-06-19T08:59:06Z</time>
      </trkpt>
      <trkpt lat="47.61952" lon="6.1557">
        <ele>222.6</ele>
        <time>2022-06-19T08:59:12Z</time>
      </trkpt>
      <trkpt lat="47.61951" lon="6.15572">
        <ele>222.6</ele>
        <time>2022-06-19T08:59:13Z</time>
      </trkpt>
      <trkpt lat="47.61949" lon="6.15574">
        <ele>222.8</ele>
        <time>2022-06-19T08:59:14Z</time>
      </trkpt>
      <trkpt lat="47.61949" lon="6.15576">
        <ele>223</ele>
        <time>2022-06-19T08:59:15Z</time>
      </trkpt>
      <trkpt lat="47.61949" lon="6.15578">
        <ele>223</ele>
        <time>2022-06-19T08:59:16Z</time>
      </trkpt>
      <trkpt lat="47.61949" lon="6.1558">
        <ele>223</ele>
        <time>2022-06-19T08:59:17Z</time>
      </trkpt>
      <trkpt lat="47.61948" lon="6.15581">
        <ele>223</ele>
        <time>2022-06-19T08:59:18Z</time>
      </trkpt>
      <trkpt lat="47.61949" lon="6.15582">
        <ele>223</ele>
        <time>2022-06-19T08:59:19Z</time>
      </trkpt>
      <trkpt lat="47.61944" lon="6.1559">
        <ele>222.6</ele>
        <time>2022-06-19T08:59:25Z</time>
      </trkpt>
      <trkpt lat="47.61943" lon="6.1559">
        <ele>222.8</ele>
        <time>2022-06-19T08:59:26Z</time>
      </trkpt>
      <trkpt lat="47.61941" lon="6.1559">
        <ele>222.8</ele>
        <time>2022-06-19T08:59:27Z</time>
      </trkpt>
      <trkpt lat="47.61938" lon="6.15589">
        <ele>222.8</ele>
        <time>2022-06-19T08:59:28Z</time>
      </trkpt>
      <trkpt lat="47.61936" lon="6.15588">
        <ele>222.6</ele>
        <time>2022-06-19T08:59:29Z</time>
      </trkpt>
      <trkpt lat="47.61874" lon="6.15567">
        <ele>221</ele>
        <time>2022-06-19T08:59:45Z</time>
      </trkpt>
      <trkpt lat="47.61846" lon="6.15564">
        <ele>220.6</ele>
        <time>2022-06-19T08:59:54Z</time>
      </trkpt>
      <trkpt lat="47.61844" lon="6.15567">
        <ele>220.6</ele>
        <time>2022-06-19T08:59:55Z</time>
      </trkpt>
      <trkpt lat="47.61842" lon="6.15571">
        <ele>220.6</ele>
        <time>2022-06-19T08:59:56Z</time>
      </trkpt>
      <trkpt lat="47.61841" lon="6.15575">
        <ele>220.6</ele>
        <time>2022-06-19T08:59:57Z</time>
      </trkpt>
      <trkpt lat="47.61842" lon="6.15582">
        <ele>220.4</ele>
        <time>2022-06-19T08:59:58Z</time>
      </trkpt>
      <trkpt lat="47.61842" lon="6.15588">
        <ele>220.2</ele>
        <time>2022-06-19T08:59:59Z</time>
      </trkpt>
      <trkpt lat="47.61841" lon="6.15599">
        <ele>219.6</ele>
        <time>2022-06-19T09:00:01Z</time>
      </trkpt>
      <trkpt lat="47.61833" lon="6.15645">
        <ele>220.8</ele>
        <time>2022-06-19T09:00:14Z</time>
      </trkpt>
      <trkpt lat="47.61834" lon="6.15643">
        <ele>221</ele>
        <time>2022-06-19T09:00:15Z</time>
      </trkpt>
      <trkpt lat="47.61834" lon="6.15641">
        <ele>221</ele>
        <time>2022-06-19T09:00:16Z</time>
      </trkpt>
      <trkpt lat="47.61834" lon="6.15638">
        <ele>221.2</ele>
        <time>2022-06-19T09:00:17Z</time>
      </trkpt>
      <trkpt lat="47.61834" lon="6.15634">
        <ele>221.2</ele>
        <time>2022-06-19T09:00:18Z</time>
      </trkpt>
      <trkpt lat="47.61835" lon="6.1563">
        <ele>221.2</ele>
        <time>2022-06-19T09:00:19Z</time>
      </trkpt>
      <trkpt lat="47.61842" lon="6.15565">
        <ele>221</ele>
        <time>2022-06-19T09:00:35Z</time>
      </trkpt>
      <trkpt lat="47.6184" lon="6.15563">
        <ele>221</ele>
        <time>2022-06-19T09:00:36Z</time>
      </trkpt>
      <trkpt lat="47.61838" lon="6.15562">
        <ele>220.8</ele>
        <time>2022-06-19T09:00:37Z</time>
      </trkpt>
      <trkpt lat="47.61782" lon="6.15549">
        <ele>222.8</ele>
        <time>2022-06-19T09:01:01Z</time>
      </trkpt>
      <trkpt lat="47.61727" lon="6.15541">
        <ele>222.2</ele>
        <time>2022-06-19T09:01:22Z</time>
      </trkpt>
      <trkpt lat="47.61726" lon="6.15544">
        <ele>222</ele>
        <time>2022-06-19T09:01:23Z</time>
      </trkpt>
      <trkpt lat="47.61725" lon="6.15548">
        <ele>222</ele>
        <time>2022-06-19T09:01:24Z</time>
      </trkpt>
      <trkpt lat="47.61724" lon="6.15552">
        <ele>222</ele>
        <time>2022-06-19T09:01:25Z</time>
      </trkpt>
      <trkpt lat="47.61723" lon="6.15556">
        <ele>222.2</ele>
        <time>2022-06-19T09:01:26Z</time>
      </trkpt>
      <trkpt lat="47.61721" lon="6.15596">
        <ele>221.8</ele>
        <time>2022-06-19T09:01:33Z</time>
      </trkpt>
      <trkpt lat="47.61718" lon="6.15648">
        <ele>222</ele>
        <time>2022-06-19T09:01:41Z</time>
      </trkpt>
      <trkpt lat="47.61716" lon="6.15693">
        <ele>222.4</ele>
        <time>2022-06-19T09:01:48Z</time>
      </trkpt>
      <trkpt lat="47.61713" lon="6.15699">
        <ele>222.4</ele>
        <time>2022-06-19T09:01:49Z</time>
      </trkpt>
      <trkpt lat="47.61712" lon="6.15706">
        <ele>222.2</ele>
        <time>2022-06-19T09:01:50Z</time>
      </trkpt>
      <trkpt lat="47.61708" lon="6.15794">
        <ele>222.8</ele>
        <time>2022-06-19T09:02:01Z</time>
      </trkpt>
      <trkpt lat="47.61715" lon="6.15882">
        <ele>222.4</ele>
        <time>2022-06-19T09:02:12Z</time>
      </trkpt>
      <trkpt lat="47.61716" lon="6.15928">
        <ele>221.6</ele>
        <time>2022-06-19T09:02:18Z</time>
      </trkpt>
      <trkpt lat="47.61716" lon="6.16013">
        <ele>222.4</ele>
        <time>2022-06-19T09:02:30Z</time>
      </trkpt>
      <trkpt lat="47.61717" lon="6.16025">
        <ele>223.2</ele>
        <time>2022-06-19T09:02:32Z</time>
      </trkpt>
      <trkpt lat="47.61707" lon="6.16056">
        <ele>223.6</ele>
        <time>2022-06-19T09:02:48Z</time>
      </trkpt>
      <trkpt lat="47.61703" lon="6.16059">
        <ele>223.2</ele>
        <time>2022-06-19T09:02:54Z</time>
      </trkpt>
      <trkpt lat="47.617" lon="6.1606">
        <ele>223.2</ele>
        <time>2022-06-19T09:02:56Z</time>
      </trkpt>
      <trkpt lat="47.61698" lon="6.16061">
        <ele>223.2</ele>
        <time>2022-06-19T09:02:57Z</time>
      </trkpt>
      <trkpt lat="47.61633" lon="6.16075">
        <ele>222.6</ele>
        <time>2022-06-19T09:03:18Z</time>
      </trkpt>
      <trkpt lat="47.61621" lon="6.16081">
        <ele>224</ele>
        <time>2022-06-19T09:03:21Z</time>
      </trkpt>
      <trkpt lat="47.61605" lon="6.16088">
        <ele>222.2</ele>
        <time>2022-06-19T09:03:26Z</time>
      </trkpt>
      <trkpt lat="47.61594" lon="6.16096">
        <ele>222.8</ele>
        <time>2022-06-19T09:03:32Z</time>
      </trkpt>
      <trkpt lat="47.61593" lon="6.16099">
        <ele>222.8</ele>
        <time>2022-06-19T09:03:33Z</time>
      </trkpt>
      <trkpt lat="47.61576" lon="6.16185">
        <ele>223</ele>
        <time>2022-06-19T09:03:49Z</time>
      </trkpt>
      <trkpt lat="47.61573" lon="6.16197">
        <ele>223</ele>
        <time>2022-06-19T09:03:51Z</time>
      </trkpt>
      <trkpt lat="47.61559" lon="6.16281">
        <ele>224</ele>
        <time>2022-06-19T09:04:05Z</time>
      </trkpt>
      <trkpt lat="47.61547" lon="6.16348">
        <ele>224.2</ele>
        <time>2022-06-19T09:04:16Z</time>
      </trkpt>
      <trkpt lat="47.61534" lon="6.16433">
        <ele>225.2</ele>
        <time>2022-06-19T09:04:30Z</time>
      </trkpt>
      <trkpt lat="47.61525" lon="6.16523">
        <ele>224.6</ele>
        <time>2022-06-19T09:04:43Z</time>
      </trkpt>
      <trkpt lat="47.61518" lon="6.16614">
        <ele>225.4</ele>
        <time>2022-06-19T09:04:55Z</time>
      </trkpt>
      <trkpt lat="47.61518" lon="6.16622">
        <ele>225.4</ele>
        <time>2022-06-19T09:04:56Z</time>
      </trkpt>
      <trkpt lat="47.61513" lon="6.16706">
        <ele>227.6</ele>
        <time>2022-06-19T09:05:12Z</time>
      </trkpt>
      <trkpt lat="47.61512" lon="6.16718">
        <ele>227.2</ele>
        <time>2022-06-19T09:05:17Z</time>
      </trkpt>
      <trkpt lat="47.61511" lon="6.1672">
        <ele>227.2</ele>
        <time>2022-06-19T09:05:18Z</time>
      </trkpt>
      <trkpt lat="47.6151" lon="6.16722">
        <ele>227.4</ele>
        <time>2022-06-19T09:05:19Z</time>
      </trkpt>
      <trkpt lat="47.61504" lon="6.16731">
        <ele>227.8</ele>
        <time>2022-06-19T09:05:23Z</time>
      </trkpt>
      <trkpt lat="47.61502" lon="6.16732">
        <ele>227.8</ele>
        <time>2022-06-19T09:05:24Z</time>
      </trkpt>
      <trkpt lat="47.61497" lon="6.16734">
        <ele>227.8</ele>
        <time>2022-06-19T09:05:26Z</time>
      </trkpt>
      <trkpt lat="47.61495" lon="6.16736">
        <ele>227.6</ele>
        <time>2022-06-19T09:05:27Z</time>
      </trkpt>
      <trkpt lat="47.61494" lon="6.16738">
        <ele>227.4</ele>
        <time>2022-06-19T09:05:28Z</time>
      </trkpt>
      <trkpt lat="47.61493" lon="6.1674">
        <ele>227.4</ele>
        <time>2022-06-19T09:05:29Z</time>
      </trkpt>
      <trkpt lat="47.61491" lon="6.16741">
        <ele>227.4</ele>
        <time>2022-06-19T09:05:30Z</time>
      </trkpt>
      <trkpt lat="47.6149" lon="6.16743">
        <ele>227.8</ele>
        <time>2022-06-19T09:05:31Z</time>
      </trkpt>
      <trkpt lat="47.61489" lon="6.16744">
        <ele>228.2</ele>
        <time>2022-06-19T09:05:32Z</time>
      </trkpt>
      <trkpt lat="47.61489" lon="6.16745">
        <ele>228.6</ele>
        <time>2022-06-19T09:05:33Z</time>
      </trkpt>
      <trkpt lat="47.61488" lon="6.16746">
        <ele>228.8</ele>
        <time>2022-06-19T09:05:34Z</time>
      </trkpt>
      <trkpt lat="47.61487" lon="6.1675">
        <ele>230</ele>
        <time>2022-06-19T09:05:45Z</time>
      </trkpt>
      <trkpt lat="47.61488" lon="6.16776">
        <ele>230.4</ele>
        <time>2022-06-19T09:07:11Z</time>
      </trkpt>
      <trkpt lat="47.61489" lon="6.16779">
        <ele>230.4</ele>
        <time>2022-06-19T09:07:12Z</time>
      </trkpt>
      <trkpt lat="47.61489" lon="6.16783">
        <ele>230.6</ele>
        <time>2022-06-19T09:07:13Z</time>
      </trkpt>
      <trkpt lat="47.61489" lon="6.16786">
        <ele>230.6</ele>
        <time>2022-06-19T09:07:14Z</time>
      </trkpt>
      <trkpt lat="47.61509" lon="6.16861">
        <ele>231</ele>
        <time>2022-06-19T09:07:36Z</time>
      </trkpt>
      <trkpt lat="47.6151" lon="6.16866">
        <ele>230.8</ele>
        <time>2022-06-19T09:07:37Z</time>
      </trkpt>
      <trkpt lat="47.61511" lon="6.1687">
        <ele>230.8</ele>
        <time>2022-06-19T09:07:38Z</time>
      </trkpt>
      <trkpt lat="47.61511" lon="6.16874">
        <ele>230.8</ele>
        <time>2022-06-19T09:07:39Z</time>
      </trkpt>
      <trkpt lat="47.61512" lon="6.16878">
        <ele>230.8</ele>
        <time>2022-06-19T09:07:40Z</time>
      </trkpt>
      <trkpt lat="47.61512" lon="6.16883">
        <ele>230.8</ele>
        <time>2022-06-19T09:07:41Z</time>
      </trkpt>
      <trkpt lat="47.61523" lon="6.16967">
        <ele>231</ele>
        <time>2022-06-19T09:07:57Z</time>
      </trkpt>
      <trkpt lat="47.61537" lon="6.17054">
        <ele>232.6</ele>
        <time>2022-06-19T09:08:11Z</time>
      </trkpt>
      <trkpt lat="47.61552" lon="6.17137">
        <ele>233.4</ele>
        <time>2022-06-19T09:08:24Z</time>
      </trkpt>
      <trkpt lat="47.61567" lon="6.17222">
        <ele>233.8</ele>
        <time>2022-06-19T09:08:38Z</time>
      </trkpt>
      <trkpt lat="47.61578" lon="6.17304">
        <ele>234.8</ele>
        <time>2022-06-19T09:08:52Z</time>
      </trkpt>
      <trkpt lat="47.61583" lon="6.17365">
        <ele>235.6</ele>
        <time>2022-06-19T09:09:02Z</time>
      </trkpt>
      <trkpt lat="47.61583" lon="6.17371">
        <ele>235.8</ele>
        <time>2022-06-19T09:09:03Z</time>
      </trkpt>
      <trkpt lat="47.61586" lon="6.17458">
        <ele>236.2</ele>
        <time>2022-06-19T09:09:17Z</time>
      </trkpt>
      <trkpt lat="47.61583" lon="6.17545">
        <ele>236.4</ele>
        <time>2022-06-19T09:09:31Z</time>
      </trkpt>
      <trkpt lat="47.61573" lon="6.17627">
        <ele>238.8</ele>
        <time>2022-06-19T09:09:46Z</time>
      </trkpt>
      <trkpt lat="47.61562" lon="6.17711">
        <ele>240.2</ele>
        <time>2022-06-19T09:10:00Z</time>
      </trkpt>
      <trkpt lat="47.61554" lon="6.17747">
        <ele>240.6</ele>
        <time>2022-06-19T09:10:06Z</time>
      </trkpt>
      <trkpt lat="47.61539" lon="6.17832">
        <ele>241.2</ele>
        <time>2022-06-19T09:10:20Z</time>
      </trkpt>
      <trkpt lat="47.61526" lon="6.17917">
        <ele>241.6</ele>
        <time>2022-06-19T09:10:35Z</time>
      </trkpt>
      <trkpt lat="47.61516" lon="6.17971">
        <ele>242</ele>
        <time>2022-06-19T09:10:45Z</time>
      </trkpt>
      <trkpt lat="47.61502" lon="6.18053">
        <ele>242.6</ele>
        <time>2022-06-19T09:11:00Z</time>
      </trkpt>
      <trkpt lat="47.61488" lon="6.18136">
        <ele>243.4</ele>
        <time>2022-06-19T09:11:15Z</time>
      </trkpt>
      <trkpt lat="47.61473" lon="6.18219">
        <ele>244.2</ele>
        <time>2022-06-19T09:11:30Z</time>
      </trkpt>
      <trkpt lat="47.61469" lon="6.18244">
        <ele>244.8</ele>
        <time>2022-06-19T09:11:34Z</time>
      </trkpt>
      <trkpt lat="47.61455" lon="6.18327">
        <ele>245.4</ele>
        <time>2022-06-19T09:11:47Z</time>
      </trkpt>
      <trkpt lat="47.61439" lon="6.18408">
        <ele>246</ele>
        <time>2022-06-19T09:12:00Z</time>
      </trkpt>
      <trkpt lat="47.61424" lon="6.18473">
        <ele>247</ele>
        <time>2022-06-19T09:12:11Z</time>
      </trkpt>
      <trkpt lat="47.61397" lon="6.18548">
        <ele>248.4</ele>
        <time>2022-06-19T09:12:25Z</time>
      </trkpt>
      <trkpt lat="47.61372" lon="6.18603">
        <ele>249.2</ele>
        <time>2022-06-19T09:12:34Z</time>
      </trkpt>
      <trkpt lat="47.6134" lon="6.18673">
        <ele>250</ele>
        <time>2022-06-19T09:12:45Z</time>
      </trkpt>
      <trkpt lat="47.61336" lon="6.18679">
        <ele>250</ele>
        <time>2022-06-19T09:12:46Z</time>
      </trkpt>
      <trkpt lat="47.61318" lon="6.18709">
        <ele>250</ele>
        <time>2022-06-19T09:12:51Z</time>
      </trkpt>
      <trkpt lat="47.61315" lon="6.18715">
        <ele>250</ele>
        <time>2022-06-19T09:12:52Z</time>
      </trkpt>
      <trkpt lat="47.61311" lon="6.1872">
        <ele>250.2</ele>
        <time>2022-06-19T09:12:53Z</time>
      </trkpt>
      <trkpt lat="47.61272" lon="6.18792">
        <ele>250.6</ele>
        <time>2022-06-19T09:13:05Z</time>
      </trkpt>
      <trkpt lat="47.6124" lon="6.18851">
        <ele>250.6</ele>
        <time>2022-06-19T09:13:15Z</time>
      </trkpt>
      <trkpt lat="47.61202" lon="6.18917">
        <ele>251.6</ele>
        <time>2022-06-19T09:13:27Z</time>
      </trkpt>
      <trkpt lat="47.61199" lon="6.18923">
        <ele>251.6</ele>
        <time>2022-06-19T09:13:28Z</time>
      </trkpt>
      <trkpt lat="47.61197" lon="6.18929">
        <ele>251.6</ele>
        <time>2022-06-19T09:13:29Z</time>
      </trkpt>
      <trkpt lat="47.61194" lon="6.18934">
        <ele>251.8</ele>
        <time>2022-06-19T09:13:30Z</time>
      </trkpt>
      <trkpt lat="47.61175" lon="6.18968">
        <ele>251.8</ele>
        <time>2022-06-19T09:13:36Z</time>
      </trkpt>
      <trkpt lat="47.61155" lon="6.18996">
        <ele>251.2</ele>
        <time>2022-06-19T09:13:41Z</time>
      </trkpt>
      <trkpt lat="47.61111" lon="6.19064">
        <ele>251.6</ele>
        <time>2022-06-19T09:13:53Z</time>
      </trkpt>
      <trkpt lat="47.61068" lon="6.19124">
        <ele>252.6</ele>
        <time>2022-06-19T09:14:05Z</time>
      </trkpt>
      <trkpt lat="47.61062" lon="6.19134">
        <ele>251.8</ele>
        <time>2022-06-19T09:14:07Z</time>
      </trkpt>
      <trkpt lat="47.61023" lon="6.19186">
        <ele>251.2</ele>
        <time>2022-06-19T09:14:18Z</time>
      </trkpt>
      <trkpt lat="47.61019" lon="6.19191">
        <ele>251</ele>
        <time>2022-06-19T09:14:19Z</time>
      </trkpt>
      <trkpt lat="47.60977" lon="6.19251">
        <ele>250</ele>
        <time>2022-06-19T09:14:30Z</time>
      </trkpt>
      <trkpt lat="47.60937" lon="6.19321">
        <ele>249</ele>
        <time>2022-06-19T09:14:41Z</time>
      </trkpt>
      <trkpt lat="47.60906" lon="6.19399">
        <ele>248.6</ele>
        <time>2022-06-19T09:14:51Z</time>
      </trkpt>
      <trkpt lat="47.60884" lon="6.19457">
        <ele>245.6</ele>
        <time>2022-06-19T09:14:58Z</time>
      </trkpt>
      <trkpt lat="47.60881" lon="6.19466">
        <ele>245.2</ele>
        <time>2022-06-19T09:14:59Z</time>
      </trkpt>
      <trkpt lat="47.6086" lon="6.19529">
        <ele>245</ele>
        <time>2022-06-19T09:15:07Z</time>
      </trkpt>
      <trkpt lat="47.60836" lon="6.19607">
        <ele>245.4</ele>
        <time>2022-06-19T09:15:17Z</time>
      </trkpt>
      <trkpt lat="47.60809" lon="6.19683">
        <ele>245.2</ele>
        <time>2022-06-19T09:15:27Z</time>
      </trkpt>
      <trkpt lat="47.60783" lon="6.19765">
        <ele>243.6</ele>
        <time>2022-06-19T09:15:36Z</time>
      </trkpt>
      <trkpt lat="47.60768" lon="6.19813">
        <ele>245.2</ele>
        <time>2022-06-19T09:15:41Z</time>
      </trkpt>
      <trkpt lat="47.60753" lon="6.19861">
        <ele>244.8</ele>
        <time>2022-06-19T09:15:46Z</time>
      </trkpt>
      <trkpt lat="47.60745" lon="6.19888">
        <ele>244</ele>
        <time>2022-06-19T09:15:49Z</time>
      </trkpt>
      <trkpt lat="47.60718" lon="6.19965">
        <ele>243.2</ele>
        <time>2022-06-19T09:15:58Z</time>
      </trkpt>
      <trkpt lat="47.6071" lon="6.19979">
        <ele>242.6</ele>
        <time>2022-06-19T09:16:00Z</time>
      </trkpt>
      <trkpt lat="47.60703" lon="6.19993">
        <ele>242.4</ele>
        <time>2022-06-19T09:16:02Z</time>
      </trkpt>
      <trkpt lat="47.60699" lon="6.2">
        <ele>242.6</ele>
        <time>2022-06-19T09:16:03Z</time>
      </trkpt>
      <trkpt lat="47.60658" lon="6.20067">
        <ele>241.6</ele>
        <time>2022-06-19T09:16:13Z</time>
      </trkpt>
      <trkpt lat="47.60614" lon="6.20126">
        <ele>242.4</ele>
        <time>2022-06-19T09:16:23Z</time>
      </trkpt>
      <trkpt lat="47.60564" lon="6.20176">
        <ele>243.2</ele>
        <time>2022-06-19T09:16:34Z</time>
      </trkpt>
      <trkpt lat="47.60514" lon="6.20215">
        <ele>244</ele>
        <time>2022-06-19T09:16:48Z</time>
      </trkpt>
      <trkpt lat="47.60475" lon="6.2024">
        <ele>244.2</ele>
        <time>2022-06-19T09:16:58Z</time>
      </trkpt>
      <trkpt lat="47.60415" lon="6.20257">
        <ele>246</ele>
        <time>2022-06-19T09:17:17Z</time>
      </trkpt>
      <trkpt lat="47.60334" lon="6.20273">
        <ele>245.6</ele>
        <time>2022-06-19T09:17:37Z</time>
      </trkpt>
      <trkpt lat="47.60247" lon="6.20288">
        <ele>245</ele>
        <time>2022-06-19T09:17:59Z</time>
      </trkpt>
      <trkpt lat="47.60232" lon="6.20291">
        <ele>246.4</ele>
        <time>2022-06-19T09:18:02Z</time>
      </trkpt>
      <trkpt lat="47.60164" lon="6.20308">
        <ele>247.4</ele>
        <time>2022-06-19T09:18:19Z</time>
      </trkpt>
      <trkpt lat="47.60106" lon="6.20318">
        <ele>249.4</ele>
        <time>2022-06-19T09:18:36Z</time>
      </trkpt>
      <trkpt lat="47.60077" lon="6.20322">
        <ele>250.4</ele>
        <time>2022-06-19T09:18:43Z</time>
      </trkpt>
      <trkpt lat="47.60005" lon="6.20335">
        <ele>251.6</ele>
        <time>2022-06-19T09:19:03Z</time>
      </trkpt>
      <trkpt lat="47.59934" lon="6.20351">
        <ele>251.8</ele>
        <time>2022-06-19T09:19:21Z</time>
      </trkpt>
      <trkpt lat="47.59861" lon="6.20388">
        <ele>252.4</ele>
        <time>2022-06-19T09:19:37Z</time>
      </trkpt>
      <trkpt lat="47.59799" lon="6.20426">
        <ele>252.6</ele>
        <time>2022-06-19T09:19:51Z</time>
      </trkpt>
      <trkpt lat="47.59741" lon="6.20477">
        <ele>254</ele>
        <time>2022-06-19T09:20:05Z</time>
      </trkpt>
      <trkpt lat="47.59687" lon="6.20525">
        <ele>255</ele>
        <time>2022-06-19T09:20:18Z</time>
      </trkpt>
      <trkpt lat="47.59635" lon="6.20574">
        <ele>256.4</ele>
        <time>2022-06-19T09:20:31Z</time>
      </trkpt>
      <trkpt lat="47.5958" lon="6.20614">
        <ele>256.4</ele>
        <time>2022-06-19T09:20:44Z</time>
      </trkpt>
      <trkpt lat="47.59523" lon="6.20646">
        <ele>256.2</ele>
        <time>2022-06-19T09:20:57Z</time>
      </trkpt>
      <trkpt lat="47.59468" lon="6.20685">
        <ele>255.2</ele>
        <time>2022-06-19T09:21:10Z</time>
      </trkpt>
      <trkpt lat="47.5941" lon="6.20727">
        <ele>256.4</ele>
        <time>2022-06-19T09:21:22Z</time>
      </trkpt>
      <trkpt lat="47.59354" lon="6.20774">
        <ele>256.4</ele>
        <time>2022-06-19T09:21:34Z</time>
      </trkpt>
      <trkpt lat="47.59303" lon="6.20828">
        <ele>256.8</ele>
        <time>2022-06-19T09:21:45Z</time>
      </trkpt>
      <trkpt lat="47.59275" lon="6.20869">
        <ele>253.8</ele>
        <time>2022-06-19T09:21:52Z</time>
      </trkpt>
      <trkpt lat="47.59268" lon="6.20881">
        <ele>254.4</ele>
        <time>2022-06-19T09:21:54Z</time>
      </trkpt>
      <trkpt lat="47.59234" lon="6.20948">
        <ele>256.2</ele>
        <time>2022-06-19T09:22:05Z</time>
      </trkpt>
      <trkpt lat="47.59204" lon="6.2102">
        <ele>257.2</ele>
        <time>2022-06-19T09:22:16Z</time>
      </trkpt>
      <trkpt lat="47.59179" lon="6.21107">
        <ele>256.6</ele>
        <time>2022-06-19T09:22:27Z</time>
      </trkpt>
      <trkpt lat="47.59162" lon="6.21172">
        <ele>256.8</ele>
        <time>2022-06-19T09:22:35Z</time>
      </trkpt>
      <trkpt lat="47.59152" lon="6.21213">
        <ele>257.2</ele>
        <time>2022-06-19T09:22:40Z</time>
      </trkpt>
      <trkpt lat="47.59151" lon="6.21221">
        <ele>257.2</ele>
        <time>2022-06-19T09:22:41Z</time>
      </trkpt>
      <trkpt lat="47.59134" lon="6.21307">
        <ele>258.2</ele>
        <time>2022-06-19T09:22:52Z</time>
      </trkpt>
      <trkpt lat="47.59114" lon="6.21387">
        <ele>259.2</ele>
        <time>2022-06-19T09:23:04Z</time>
      </trkpt>
      <trkpt lat="47.59096" lon="6.21468">
        <ele>260.2</ele>
        <time>2022-06-19T09:23:19Z</time>
      </trkpt>
      <trkpt lat="47.59084" lon="6.21552">
        <ele>260.8</ele>
        <time>2022-06-19T09:23:37Z</time>
      </trkpt>
      <trkpt lat="47.5908" lon="6.21577">
        <ele>261.2</ele>
        <time>2022-06-19T09:23:41Z</time>
      </trkpt>
      <trkpt lat="47.59078" lon="6.21662">
        <ele>261.8</ele>
        <time>2022-06-19T09:23:54Z</time>
      </trkpt>
      <trkpt lat="47.59079" lon="6.21675">
        <ele>261.8</ele>
        <time>2022-06-19T09:23:56Z</time>
      </trkpt>
      <trkpt lat="47.59081" lon="6.21716">
        <ele>261.6</ele>
        <time>2022-06-19T09:24:02Z</time>
      </trkpt>
      <trkpt lat="47.59082" lon="6.21722">
        <ele>261.8</ele>
        <time>2022-06-19T09:24:03Z</time>
      </trkpt>
      <trkpt lat="47.59082" lon="6.21728">
        <ele>261.8</ele>
        <time>2022-06-19T09:24:04Z</time>
      </trkpt>
      <trkpt lat="47.59095" lon="6.21802">
        <ele>262.8</ele>
        <time>2022-06-19T09:24:16Z</time>
      </trkpt>
      <trkpt lat="47.59109" lon="6.21871">
        <ele>263.6</ele>
        <time>2022-06-19T09:24:28Z</time>
      </trkpt>
      <trkpt lat="47.59132" lon="6.21955">
        <ele>264.4</ele>
        <time>2022-06-19T09:24:42Z</time>
      </trkpt>
      <trkpt lat="47.59144" lon="6.21993">
        <ele>264.6</ele>
        <time>2022-06-19T09:24:48Z</time>
      </trkpt>
      <trkpt lat="47.59145" lon="6.21999">
        <ele>264.6</ele>
        <time>2022-06-19T09:24:49Z</time>
      </trkpt>
      <trkpt lat="47.59147" lon="6.22005">
        <ele>264.6</ele>
        <time>2022-06-19T09:24:50Z</time>
      </trkpt>
      <trkpt lat="47.59149" lon="6.22011">
        <ele>264.6</ele>
        <time>2022-06-19T09:24:51Z</time>
      </trkpt>
      <trkpt lat="47.59152" lon="6.22017">
        <ele>264.6</ele>
        <time>2022-06-19T09:24:52Z</time>
      </trkpt>
      <trkpt lat="47.59158" lon="6.22035">
        <ele>265.2</ele>
        <time>2022-06-19T09:24:55Z</time>
      </trkpt>
      <trkpt lat="47.59182" lon="6.22113">
        <ele>265.4</ele>
        <time>2022-06-19T09:25:08Z</time>
      </trkpt>
      <trkpt lat="47.59194" lon="6.22176">
        <ele>266.6</ele>
        <time>2022-06-19T09:25:18Z</time>
      </trkpt>
      <trkpt lat="47.59203" lon="6.22261">
        <ele>266.8</ele>
        <time>2022-06-19T09:25:31Z</time>
      </trkpt>
      <trkpt lat="47.59203" lon="6.22267">
        <ele>267</ele>
        <time>2022-06-19T09:25:32Z</time>
      </trkpt>
      <trkpt lat="47.59203" lon="6.22274">
        <ele>267</ele>
        <time>2022-06-19T09:25:33Z</time>
      </trkpt>
      <trkpt lat="47.59203" lon="6.2228">
        <ele>267</ele>
        <time>2022-06-19T09:25:34Z</time>
      </trkpt>
      <trkpt lat="47.59205" lon="6.22335">
        <ele>267.4</ele>
        <time>2022-06-19T09:25:42Z</time>
      </trkpt>
      <trkpt lat="47.59205" lon="6.22341">
        <ele>267.6</ele>
        <time>2022-06-19T09:25:43Z</time>
      </trkpt>
      <trkpt lat="47.59205" lon="6.22348">
        <ele>267.8</ele>
        <time>2022-06-19T09:25:44Z</time>
      </trkpt>
      <trkpt lat="47.59205" lon="6.22353">
        <ele>268</ele>
        <time>2022-06-19T09:25:45Z</time>
      </trkpt>
      <trkpt lat="47.59205" lon="6.22359">
        <ele>268</ele>
        <time>2022-06-19T09:25:46Z</time>
      </trkpt>
      <trkpt lat="47.59204" lon="6.22407">
        <ele>268.4</ele>
        <time>2022-06-19T09:25:55Z</time>
      </trkpt>
      <trkpt lat="47.59203" lon="6.22433">
        <ele>267.6</ele>
        <time>2022-06-19T09:25:59Z</time>
      </trkpt>
      <trkpt lat="47.59195" lon="6.22516">
        <ele>269.8</ele>
        <time>2022-06-19T09:26:18Z</time>
      </trkpt>
      <trkpt lat="47.59176" lon="6.226">
        <ele>270.6</ele>
        <time>2022-06-19T09:26:34Z</time>
      </trkpt>
      <trkpt lat="47.59164" lon="6.22638">
        <ele>270</ele>
        <time>2022-06-19T09:26:41Z</time>
      </trkpt>
      <trkpt lat="47.59135" lon="6.22714">
        <ele>270.6</ele>
        <time>2022-06-19T09:26:56Z</time>
      </trkpt>
      <trkpt lat="47.59107" lon="6.22796">
        <ele>271</ele>
        <time>2022-06-19T09:27:10Z</time>
      </trkpt>
      <trkpt lat="47.59086" lon="6.22861">
        <ele>272.2</ele>
        <time>2022-06-19T09:27:21Z</time>
      </trkpt>
      <trkpt lat="47.59073" lon="6.22897">
        <ele>272.4</ele>
        <time>2022-06-19T09:27:27Z</time>
      </trkpt>
      <trkpt lat="47.5904" lon="6.2297">
        <ele>273</ele>
        <time>2022-06-19T09:27:42Z</time>
      </trkpt>
      <trkpt lat="47.59021" lon="6.23022">
        <ele>273.6</ele>
        <time>2022-06-19T09:28:03Z</time>
      </trkpt>
      <trkpt lat="47.59018" lon="6.23035">
        <ele>273</ele>
        <time>2022-06-19T09:29:00Z</time>
      </trkpt>
      <trkpt lat="47.59018" lon="6.23039">
        <ele>273</ele>
        <time>2022-06-19T09:29:01Z</time>
      </trkpt>
      <trkpt lat="47.59017" lon="6.23043">
        <ele>273.2</ele>
        <time>2022-06-19T09:29:02Z</time>
      </trkpt>
      <trkpt lat="47.59005" lon="6.23128">
        <ele>272.2</ele>
        <time>2022-06-19T09:29:16Z</time>
      </trkpt>
      <trkpt lat="47.58999" lon="6.23215">
        <ele>272.4</ele>
        <time>2022-06-19T09:29:28Z</time>
      </trkpt>
      <trkpt lat="47.58993" lon="6.233">
        <ele>272.2</ele>
        <time>2022-06-19T09:29:39Z</time>
      </trkpt>
      <trkpt lat="47.58984" lon="6.23386">
        <ele>272.6</ele>
        <time>2022-06-19T09:29:50Z</time>
      </trkpt>
      <trkpt lat="47.58975" lon="6.23471">
        <ele>273</ele>
        <time>2022-06-19T09:30:01Z</time>
      </trkpt>
      <trkpt lat="47.58959" lon="6.23555">
        <ele>273.2</ele>
        <time>2022-06-19T09:30:13Z</time>
      </trkpt>
      <trkpt lat="47.58938" lon="6.23638">
        <ele>274.2</ele>
        <time>2022-06-19T09:30:26Z</time>
      </trkpt>
      <trkpt lat="47.58905" lon="6.23708">
        <ele>275.6</ele>
        <time>2022-06-19T09:30:39Z</time>
      </trkpt>
      <trkpt lat="47.58867" lon="6.23772">
        <ele>275.8</ele>
        <time>2022-06-19T09:30:52Z</time>
      </trkpt>
      <trkpt lat="47.58842" lon="6.23807">
        <ele>276.8</ele>
        <time>2022-06-19T09:31:00Z</time>
      </trkpt>
      <trkpt lat="47.58795" lon="6.23866">
        <ele>276.4</ele>
        <time>2022-06-19T09:31:15Z</time>
      </trkpt>
      <trkpt lat="47.5875" lon="6.23918">
        <ele>277.6</ele>
        <time>2022-06-19T09:31:29Z</time>
      </trkpt>
      <trkpt lat="47.58703" lon="6.23981">
        <ele>278.2</ele>
        <time>2022-06-19T09:31:44Z</time>
      </trkpt>
      <trkpt lat="47.5869" lon="6.23998">
        <ele>279.6</ele>
        <time>2022-06-19T09:31:48Z</time>
      </trkpt>
      <trkpt lat="47.58649" lon="6.24059">
        <ele>279.8</ele>
        <time>2022-06-19T09:32:01Z</time>
      </trkpt>
      <trkpt lat="47.58611" lon="6.24127">
        <ele>280.2</ele>
        <time>2022-06-19T09:32:14Z</time>
      </trkpt>
      <trkpt lat="47.5858" lon="6.24209">
        <ele>281.4</ele>
        <time>2022-06-19T09:32:28Z</time>
      </trkpt>
      <trkpt lat="47.58577" lon="6.24221">
        <ele>281.6</ele>
        <time>2022-06-19T09:32:30Z</time>
      </trkpt>
      <trkpt lat="47.58557" lon="6.24289">
        <ele>282.2</ele>
        <time>2022-06-19T09:32:41Z</time>
      </trkpt>
      <trkpt lat="47.58554" lon="6.24301">
        <ele>282.6</ele>
        <time>2022-06-19T09:32:43Z</time>
      </trkpt>
      <trkpt lat="47.58532" lon="6.24385">
        <ele>283.6</ele>
        <time>2022-06-19T09:32:57Z</time>
      </trkpt>
      <trkpt lat="47.58511" lon="6.24464">
        <ele>283.6</ele>
        <time>2022-06-19T09:33:12Z</time>
      </trkpt>
      <trkpt lat="47.58477" lon="6.24535">
        <ele>284.2</ele>
        <time>2022-06-19T09:33:30Z</time>
      </trkpt>
      <trkpt lat="47.58446" lon="6.2461">
        <ele>285.2</ele>
        <time>2022-06-19T09:33:47Z</time>
      </trkpt>
      <trkpt lat="47.58419" lon="6.24697">
        <ele>286.4</ele>
        <time>2022-06-19T09:34:04Z</time>
      </trkpt>
      <trkpt lat="47.58381" lon="6.24777">
        <ele>287.4</ele>
        <time>2022-06-19T09:34:20Z</time>
      </trkpt>
      <trkpt lat="47.58351" lon="6.24863">
        <ele>288.4</ele>
        <time>2022-06-19T09:34:35Z</time>
      </trkpt>
      <trkpt lat="47.58317" lon="6.2495">
        <ele>290.2</ele>
        <time>2022-06-19T09:34:51Z</time>
      </trkpt>
      <trkpt lat="47.5829" lon="6.2504">
        <ele>291.4</ele>
        <time>2022-06-19T09:35:09Z</time>
      </trkpt>
      <trkpt lat="47.58261" lon="6.25127">
        <ele>292.4</ele>
        <time>2022-06-19T09:35:26Z</time>
      </trkpt>
      <trkpt lat="47.58229" lon="6.25208">
        <ele>293.2</ele>
        <time>2022-06-19T09:35:41Z</time>
      </trkpt>
      <trkpt lat="47.58192" lon="6.25287">
        <ele>294.4</ele>
        <time>2022-06-19T09:35:57Z</time>
      </trkpt>
      <trkpt lat="47.5815" lon="6.25358">
        <ele>295.8</ele>
        <time>2022-06-19T09:36:12Z</time>
      </trkpt>
      <trkpt lat="47.58108" lon="6.25415">
        <ele>295.6</ele>
        <time>2022-06-19T09:36:27Z</time>
      </trkpt>
      <trkpt lat="47.5809" lon="6.25438">
        <ele>297.8</ele>
        <time>2022-06-19T09:36:35Z</time>
      </trkpt>
      <trkpt lat="47.5804" lon="6.25486">
        <ele>297.6</ele>
        <time>2022-06-19T09:36:54Z</time>
      </trkpt>
      <trkpt lat="47.57986" lon="6.25521">
        <ele>298.2</ele>
        <time>2022-06-19T09:37:12Z</time>
      </trkpt>
      <trkpt lat="47.57926" lon="6.25551">
        <ele>299.2</ele>
        <time>2022-06-19T09:37:28Z</time>
      </trkpt>
      <trkpt lat="47.57867" lon="6.2557">
        <ele>300.2</ele>
        <time>2022-06-19T09:37:44Z</time>
      </trkpt>
      <trkpt lat="47.57807" lon="6.25582">
        <ele>301.2</ele>
        <time>2022-06-19T09:38:00Z</time>
      </trkpt>
      <trkpt lat="47.57747" lon="6.25595">
        <ele>302.4</ele>
        <time>2022-06-19T09:38:17Z</time>
      </trkpt>
      <trkpt lat="47.57687" lon="6.25615">
        <ele>302.2</ele>
        <time>2022-06-19T09:38:34Z</time>
      </trkpt>
      <trkpt lat="47.57632" lon="6.2565">
        <ele>303.6</ele>
        <time>2022-06-19T09:38:50Z</time>
      </trkpt>
      <trkpt lat="47.5758" lon="6.2569">
        <ele>304.8</ele>
        <time>2022-06-19T09:39:06Z</time>
      </trkpt>
      <trkpt lat="47.57529" lon="6.25732">
        <ele>305.6</ele>
        <time>2022-06-19T09:39:22Z</time>
      </trkpt>
      <trkpt lat="47.57475" lon="6.25775">
        <ele>306.4</ele>
        <time>2022-06-19T09:39:38Z</time>
      </trkpt>
      <trkpt lat="47.5744" lon="6.25806">
        <ele>306.6</ele>
        <time>2022-06-19T09:39:55Z</time>
      </trkpt>
      <trkpt lat="47.57439" lon="6.25804">
        <ele>306.6</ele>
        <time>2022-06-19T09:39:56Z</time>
      </trkpt>
      <trkpt lat="47.57439" lon="6.25801">
        <ele>306.6</ele>
        <time>2022-06-19T09:39:57Z</time>
      </trkpt>
      <trkpt lat="47.57442" lon="6.25788">
        <ele>305.6</ele>
        <time>2022-06-19T09:40:03Z</time>
      </trkpt>
      <trkpt lat="47.57443" lon="6.25787">
        <ele>305.4</ele>
        <time>2022-06-19T09:40:04Z</time>
      </trkpt>
      <trkpt lat="47.57444" lon="6.25785">
        <ele>305.4</ele>
        <time>2022-06-19T09:40:07Z</time>
      </trkpt>
      <trkpt lat="47.57444" lon="6.25782">
        <ele>305.4</ele>
        <time>2022-06-19T09:40:08Z</time>
      </trkpt>
      <trkpt lat="47.57443" lon="6.25781">
        <ele>305.4</ele>
        <time>2022-06-19T09:40:09Z</time>
      </trkpt>
      <trkpt lat="47.57441" lon="6.2578">
        <ele>305.4</ele>
        <time>2022-06-19T09:40:10Z</time>
      </trkpt>
      <trkpt lat="47.5744" lon="6.25778">
        <ele>305.4</ele>
        <time>2022-06-19T09:40:11Z</time>
      </trkpt>
      <trkpt lat="47.57439" lon="6.25777">
        <ele>305.2</ele>
        <time>2022-06-19T09:40:12Z</time>
      </trkpt>
      <trkpt lat="47.57438" lon="6.25776">
        <ele>305</ele>
        <time>2022-06-19T09:40:13Z</time>
      </trkpt>
      <trkpt lat="47.57437" lon="6.25775">
        <ele>305</ele>
        <time>2022-06-19T09:40:14Z</time>
      </trkpt>
      <trkpt lat="47.57436" lon="6.25773">
        <ele>304.8</ele>
        <time>2022-06-19T09:40:15Z</time>
      </trkpt>
      <trkpt lat="47.57433" lon="6.25772">
        <ele>304.6</ele>
        <time>2022-06-19T09:40:16Z</time>
      </trkpt>
      <trkpt lat="47.57431" lon="6.25771">
        <ele>304.6</ele>
        <time>2022-06-19T09:40:17Z</time>
      </trkpt>
      <trkpt lat="47.57428" lon="6.25771">
        <ele>304.8</ele>
        <time>2022-06-19T09:40:18Z</time>
      </trkpt>
      <trkpt lat="47.57425" lon="6.25772">
        <ele>304.8</ele>
        <time>2022-06-19T09:40:19Z</time>
      </trkpt>
      <trkpt lat="47.57422" lon="6.25774">
        <ele>305</ele>
        <time>2022-06-19T09:40:20Z</time>
      </trkpt>
      <trkpt lat="47.5742" lon="6.25776">
        <ele>305.2</ele>
        <time>2022-06-19T09:40:21Z</time>
      </trkpt>
      <trkpt lat="47.57418" lon="6.25777">
        <ele>305.4</ele>
        <time>2022-06-19T09:40:22Z</time>
      </trkpt>
      <trkpt lat="47.57381" lon="6.25843">
        <ele>308.2</ele>
        <time>2022-06-19T09:40:48Z</time>
      </trkpt>
      <trkpt lat="47.57334" lon="6.25893">
        <ele>307.6</ele>
        <time>2022-06-19T09:41:06Z</time>
      </trkpt>
      <trkpt lat="47.57283" lon="6.25932">
        <ele>309.8</ele>
        <time>2022-06-19T09:41:23Z</time>
      </trkpt>
      <trkpt lat="47.57234" lon="6.25981">
        <ele>310.4</ele>
        <time>2022-06-19T09:41:41Z</time>
      </trkpt>
      <trkpt lat="47.5719" lon="6.26042">
        <ele>311.8</ele>
        <time>2022-06-19T09:41:59Z</time>
      </trkpt>
      <trkpt lat="47.57146" lon="6.26111">
        <ele>312.2</ele>
        <time>2022-06-19T09:42:17Z</time>
      </trkpt>
      <trkpt lat="47.57105" lon="6.26178">
        <ele>313.6</ele>
        <time>2022-06-19T09:42:34Z</time>
      </trkpt>
      <trkpt lat="47.57092" lon="6.26212">
        <ele>314.4</ele>
        <time>2022-06-19T09:42:41Z</time>
      </trkpt>
      <trkpt lat="47.57073" lon="6.26314">
        <ele>314</ele>
        <time>2022-06-19T09:42:55Z</time>
      </trkpt>
      <trkpt lat="47.57067" lon="6.26345">
        <ele>314.2</ele>
        <time>2022-06-19T09:42:59Z</time>
      </trkpt>
      <trkpt lat="47.57066" lon="6.26352">
        <ele>314.4</ele>
        <time>2022-06-19T09:43:00Z</time>
      </trkpt>
      <trkpt lat="47.57061" lon="6.2638">
        <ele>314</ele>
        <time>2022-06-19T09:43:04Z</time>
      </trkpt>
      <trkpt lat="47.5704" lon="6.26464">
        <ele>312</ele>
        <time>2022-06-19T09:43:16Z</time>
      </trkpt>
      <trkpt lat="47.57034" lon="6.26482">
        <ele>312</ele>
        <time>2022-06-19T09:43:19Z</time>
      </trkpt>
      <trkpt lat="47.57013" lon="6.26564">
        <ele>311.6</ele>
        <time>2022-06-19T09:43:32Z</time>
      </trkpt>
      <trkpt lat="47.56996" lon="6.26656">
        <ele>310.4</ele>
        <time>2022-06-19T09:43:44Z</time>
      </trkpt>
      <trkpt lat="47.5699" lon="6.26692">
        <ele>309.4</ele>
        <time>2022-06-19T09:43:48Z</time>
      </trkpt>
      <trkpt lat="47.56962" lon="6.2677">
        <ele>310.6</ele>
        <time>2022-06-19T09:43:58Z</time>
      </trkpt>
      <trkpt lat="47.56924" lon="6.26838">
        <ele>307.4</ele>
        <time>2022-06-19T09:44:09Z</time>
      </trkpt>
      <trkpt lat="47.569" lon="6.26875">
        <ele>307.2</ele>
        <time>2022-06-19T09:44:15Z</time>
      </trkpt>
      <trkpt lat="47.56852" lon="6.26936">
        <ele>306.4</ele>
        <time>2022-06-19T09:44:24Z</time>
      </trkpt>
      <trkpt lat="47.56812" lon="6.26996">
        <ele>303.8</ele>
        <time>2022-06-19T09:44:33Z</time>
      </trkpt>
      <trkpt lat="47.56769" lon="6.27056">
        <ele>302.8</ele>
        <time>2022-06-19T09:44:42Z</time>
      </trkpt>
      <trkpt lat="47.56742" lon="6.27108">
        <ele>303.2</ele>
        <time>2022-06-19T09:44:49Z</time>
      </trkpt>
      <trkpt lat="47.56695" lon="6.2717">
        <ele>303</ele>
        <time>2022-06-19T09:44:58Z</time>
      </trkpt>
      <trkpt lat="47.56646" lon="6.27238">
        <ele>300</ele>
        <time>2022-06-19T09:45:07Z</time>
      </trkpt>
      <trkpt lat="47.56608" lon="6.27315">
        <ele>298.8</ele>
        <time>2022-06-19T09:45:16Z</time>
      </trkpt>
      <trkpt lat="47.56568" lon="6.27384">
        <ele>299.2</ele>
        <time>2022-06-19T09:45:25Z</time>
      </trkpt>
      <trkpt lat="47.56523" lon="6.27446">
        <ele>297.8</ele>
        <time>2022-06-19T09:45:34Z</time>
      </trkpt>
      <trkpt lat="47.56483" lon="6.27507">
        <ele>297.2</ele>
        <time>2022-06-19T09:45:43Z</time>
      </trkpt>
      <trkpt lat="47.56441" lon="6.27574">
        <ele>296.2</ele>
        <time>2022-06-19T09:45:53Z</time>
      </trkpt>
      <trkpt lat="47.56399" lon="6.27641">
        <ele>295</ele>
        <time>2022-06-19T09:46:03Z</time>
      </trkpt>
      <trkpt lat="47.56359" lon="6.27703">
        <ele>294.2</ele>
        <time>2022-06-19T09:46:12Z</time>
      </trkpt>
      <trkpt lat="47.56319" lon="6.27767">
        <ele>293.4</ele>
        <time>2022-06-19T09:46:21Z</time>
      </trkpt>
      <trkpt lat="47.5628" lon="6.27834">
        <ele>292.8</ele>
        <time>2022-06-19T09:46:30Z</time>
      </trkpt>
      <trkpt lat="47.5627" lon="6.27848">
        <ele>292.6</ele>
        <time>2022-06-19T09:46:32Z</time>
      </trkpt>
      <trkpt lat="47.56221" lon="6.27906">
        <ele>291.4</ele>
        <time>2022-06-19T09:46:41Z</time>
      </trkpt>
      <trkpt lat="47.56167" lon="6.27955">
        <ele>289.6</ele>
        <time>2022-06-19T09:46:50Z</time>
      </trkpt>
      <trkpt lat="47.56111" lon="6.28004">
        <ele>288.2</ele>
        <time>2022-06-19T09:47:01Z</time>
      </trkpt>
      <trkpt lat="47.56061" lon="6.2804">
        <ele>289.8</ele>
        <time>2022-06-19T09:47:11Z</time>
      </trkpt>
      <trkpt lat="47.56" lon="6.28066">
        <ele>288</ele>
        <time>2022-06-19T09:47:21Z</time>
      </trkpt>
      <trkpt lat="47.55937" lon="6.28089">
        <ele>289</ele>
        <time>2022-06-19T09:47:30Z</time>
      </trkpt>
      <trkpt lat="47.55875" lon="6.28102">
        <ele>287.4</ele>
        <time>2022-06-19T09:47:41Z</time>
      </trkpt>
      <trkpt lat="47.55815" lon="6.28107">
        <ele>285.6</ele>
        <time>2022-06-19T09:47:51Z</time>
      </trkpt>
      <trkpt lat="47.55751" lon="6.28108">
        <ele>286.2</ele>
        <time>2022-06-19T09:48:01Z</time>
      </trkpt>
      <trkpt lat="47.55689" lon="6.28094">
        <ele>285.2</ele>
        <time>2022-06-19T09:48:11Z</time>
      </trkpt>
      <trkpt lat="47.55624" lon="6.28068">
        <ele>285</ele>
        <time>2022-06-19T09:48:22Z</time>
      </trkpt>
      <trkpt lat="47.55567" lon="6.28038">
        <ele>285.2</ele>
        <time>2022-06-19T09:48:32Z</time>
      </trkpt>
      <trkpt lat="47.5551" lon="6.28">
        <ele>285.4</ele>
        <time>2022-06-19T09:48:43Z</time>
      </trkpt>
      <trkpt lat="47.55488" lon="6.27979">
        <ele>284</ele>
        <time>2022-06-19T09:48:48Z</time>
      </trkpt>
      <trkpt lat="47.55439" lon="6.27932">
        <ele>282.8</ele>
        <time>2022-06-19T09:49:00Z</time>
      </trkpt>
      <trkpt lat="47.55391" lon="6.27876">
        <ele>282.2</ele>
        <time>2022-06-19T09:49:12Z</time>
      </trkpt>
      <trkpt lat="47.55348" lon="6.27819">
        <ele>283.4</ele>
        <time>2022-06-19T09:49:24Z</time>
      </trkpt>
      <trkpt lat="47.55304" lon="6.27764">
        <ele>282.6</ele>
        <time>2022-06-19T09:49:36Z</time>
      </trkpt>
      <trkpt lat="47.55301" lon="6.27759">
        <ele>282.2</ele>
        <time>2022-06-19T09:49:37Z</time>
      </trkpt>
      <trkpt lat="47.55275" lon="6.27727">
        <ele>280</ele>
        <time>2022-06-19T09:49:44Z</time>
      </trkpt>
      <trkpt lat="47.55233" lon="6.27675">
        <ele>283.6</ele>
        <time>2022-06-19T09:49:56Z</time>
      </trkpt>
      <trkpt lat="47.55224" lon="6.27663">
        <ele>285.2</ele>
        <time>2022-06-19T09:49:59Z</time>
      </trkpt>
      <trkpt lat="47.5518" lon="6.27609">
        <ele>284.6</ele>
        <time>2022-06-19T09:50:18Z</time>
      </trkpt>
      <trkpt lat="47.55156" lon="6.27579">
        <ele>284.4</ele>
        <time>2022-06-19T09:50:26Z</time>
      </trkpt>
      <trkpt lat="47.55115" lon="6.27523">
        <ele>281.8</ele>
        <time>2022-06-19T09:50:37Z</time>
      </trkpt>
      <trkpt lat="47.55072" lon="6.27463">
        <ele>280.2</ele>
        <time>2022-06-19T09:50:47Z</time>
      </trkpt>
      <trkpt lat="47.55024" lon="6.27401">
        <ele>279.6</ele>
        <time>2022-06-19T09:50:58Z</time>
      </trkpt>
      <trkpt lat="47.54998" lon="6.27365">
        <ele>278.6</ele>
        <time>2022-06-19T09:51:04Z</time>
      </trkpt>
      <trkpt lat="47.54951" lon="6.27306">
        <ele>277.4</ele>
        <time>2022-06-19T09:51:14Z</time>
      </trkpt>
      <trkpt lat="47.54905" lon="6.27244">
        <ele>276</ele>
        <time>2022-06-19T09:51:25Z</time>
      </trkpt>
      <trkpt lat="47.54872" lon="6.27202">
        <ele>278.6</ele>
        <time>2022-06-19T09:51:32Z</time>
      </trkpt>
      <trkpt lat="47.54826" lon="6.27143">
        <ele>279</ele>
        <time>2022-06-19T09:51:44Z</time>
      </trkpt>
      <trkpt lat="47.54794" lon="6.27103">
        <ele>278.2</ele>
        <time>2022-06-19T09:51:53Z</time>
      </trkpt>
      <trkpt lat="47.5477" lon="6.27068">
        <ele>278</ele>
        <time>2022-06-19T09:52:00Z</time>
      </trkpt>
      <trkpt lat="47.54768" lon="6.27062">
        <ele>277.8</ele>
        <time>2022-06-19T09:52:01Z</time>
      </trkpt>
      <trkpt lat="47.54766" lon="6.27056">
        <ele>277.4</ele>
        <time>2022-06-19T09:52:02Z</time>
      </trkpt>
      <trkpt lat="47.54764" lon="6.2705">
        <ele>277.2</ele>
        <time>2022-06-19T09:52:03Z</time>
      </trkpt>
      <trkpt lat="47.54762" lon="6.27044">
        <ele>277</ele>
        <time>2022-06-19T09:52:04Z</time>
      </trkpt>
      <trkpt lat="47.54759" lon="6.27039">
        <ele>276.8</ele>
        <time>2022-06-19T09:52:05Z</time>
      </trkpt>
      <trkpt lat="47.54757" lon="6.27035">
        <ele>277</ele>
        <time>2022-06-19T09:52:06Z</time>
      </trkpt>
      <trkpt lat="47.54747" lon="6.27016">
        <ele>276</ele>
        <time>2022-06-19T09:52:10Z</time>
      </trkpt>
      <trkpt lat="47.54743" lon="6.27012">
        <ele>276</ele>
        <time>2022-06-19T09:52:11Z</time>
      </trkpt>
      <trkpt lat="47.54739" lon="6.2701">
        <ele>275.8</ele>
        <time>2022-06-19T09:52:12Z</time>
      </trkpt>
      <trkpt lat="47.54734" lon="6.27008">
        <ele>275.8</ele>
        <time>2022-06-19T09:52:13Z</time>
      </trkpt>
      <trkpt lat="47.54729" lon="6.27007">
        <ele>275.8</ele>
        <time>2022-06-19T09:52:14Z</time>
      </trkpt>
      <trkpt lat="47.54724" lon="6.27005">
        <ele>275.8</ele>
        <time>2022-06-19T09:52:15Z</time>
      </trkpt>
      <trkpt lat="47.5472" lon="6.27001">
        <ele>275.6</ele>
        <time>2022-06-19T09:52:16Z</time>
      </trkpt>
      <trkpt lat="47.54716" lon="6.26997">
        <ele>275.8</ele>
        <time>2022-06-19T09:52:17Z</time>
      </trkpt>
      <trkpt lat="47.54688" lon="6.26959">
        <ele>277</ele>
        <time>2022-06-19T09:52:25Z</time>
      </trkpt>
      <trkpt lat="47.54684" lon="6.26954">
        <ele>277</ele>
        <time>2022-06-19T09:52:26Z</time>
      </trkpt>
      <trkpt lat="47.54663" lon="6.26924">
        <ele>275.6</ele>
        <time>2022-06-19T09:52:32Z</time>
      </trkpt>
      <trkpt lat="47.54617" lon="6.26863">
        <ele>273.6</ele>
        <time>2022-06-19T09:52:43Z</time>
      </trkpt>
      <trkpt lat="47.54585" lon="6.26819">
        <ele>272.6</ele>
        <time>2022-06-19T09:52:51Z</time>
      </trkpt>
      <trkpt lat="47.54581" lon="6.26814">
        <ele>272.4</ele>
        <time>2022-06-19T09:52:52Z</time>
      </trkpt>
      <trkpt lat="47.54573" lon="6.26802">
        <ele>272.2</ele>
        <time>2022-06-19T09:52:54Z</time>
      </trkpt>
      <trkpt lat="47.5457" lon="6.26797">
        <ele>272.4</ele>
        <time>2022-06-19T09:52:55Z</time>
      </trkpt>
      <trkpt lat="47.54544" lon="6.26765">
        <ele>270.6</ele>
        <time>2022-06-19T09:53:01Z</time>
      </trkpt>
      <trkpt lat="47.54498" lon="6.26704">
        <ele>271.2</ele>
        <time>2022-06-19T09:53:12Z</time>
      </trkpt>
      <trkpt lat="47.54483" lon="6.26683">
        <ele>270.4</ele>
        <time>2022-06-19T09:53:16Z</time>
      </trkpt>
      <trkpt lat="47.54437" lon="6.26623">
        <ele>272</ele>
        <time>2022-06-19T09:53:28Z</time>
      </trkpt>
      <trkpt lat="47.54394" lon="6.26567">
        <ele>271</ele>
        <time>2022-06-19T09:53:39Z</time>
      </trkpt>
      <trkpt lat="47.5435" lon="6.26509">
        <ele>270.6</ele>
        <time>2022-06-19T09:53:50Z</time>
      </trkpt>
      <trkpt lat="47.54307" lon="6.26453">
        <ele>270</ele>
        <time>2022-06-19T09:54:01Z</time>
      </trkpt>
      <trkpt lat="47.54265" lon="6.26396">
        <ele>273.2</ele>
        <time>2022-06-19T09:54:13Z</time>
      </trkpt>
      <trkpt lat="47.54221" lon="6.26337">
        <ele>273.8</ele>
        <time>2022-06-19T09:54:27Z</time>
      </trkpt>
      <trkpt lat="47.54176" lon="6.26278">
        <ele>273.6</ele>
        <time>2022-06-19T09:54:41Z</time>
      </trkpt>
      <trkpt lat="47.54133" lon="6.26222">
        <ele>273.6</ele>
        <time>2022-06-19T09:54:53Z</time>
      </trkpt>
      <trkpt lat="47.5409" lon="6.26164">
        <ele>274</ele>
        <time>2022-06-19T09:55:06Z</time>
      </trkpt>
      <trkpt lat="47.54046" lon="6.26107">
        <ele>272.8</ele>
        <time>2022-06-19T09:55:19Z</time>
      </trkpt>
      <trkpt lat="47.54004" lon="6.26051">
        <ele>273.4</ele>
        <time>2022-06-19T09:55:32Z</time>
      </trkpt>
      <trkpt lat="47.53961" lon="6.25995">
        <ele>271.8</ele>
        <time>2022-06-19T09:55:52Z</time>
      </trkpt>
      <trkpt lat="47.53919" lon="6.25939">
        <ele>269.6</ele>
        <time>2022-06-19T09:56:08Z</time>
      </trkpt>
      <trkpt lat="47.53875" lon="6.25881">
        <ele>269</ele>
        <time>2022-06-19T09:56:23Z</time>
      </trkpt>
      <trkpt lat="47.5384" lon="6.25836">
        <ele>268.4</ele>
        <time>2022-06-19T09:56:34Z</time>
      </trkpt>
      <trkpt lat="47.53797" lon="6.2578">
        <ele>269.6</ele>
        <time>2022-06-19T09:56:47Z</time>
      </trkpt>
      <trkpt lat="47.53754" lon="6.25724">
        <ele>270.4</ele>
        <time>2022-06-19T09:56:59Z</time>
      </trkpt>
      <trkpt lat="47.53744" lon="6.25709">
        <ele>269</ele>
        <time>2022-06-19T09:57:02Z</time>
      </trkpt>
      <trkpt lat="47.53701" lon="6.25652">
        <ele>268.4</ele>
        <time>2022-06-19T09:57:14Z</time>
      </trkpt>
      <trkpt lat="47.53658" lon="6.25594">
        <ele>268.8</ele>
        <time>2022-06-19T09:57:26Z</time>
      </trkpt>
      <trkpt lat="47.53612" lon="6.25534">
        <ele>267.8</ele>
        <time>2022-06-19T09:57:38Z</time>
      </trkpt>
      <trkpt lat="47.53565" lon="6.25473">
        <ele>268.6</ele>
        <time>2022-06-19T09:57:50Z</time>
      </trkpt>
      <trkpt lat="47.53519" lon="6.25412">
        <ele>267.6</ele>
        <time>2022-06-19T09:58:02Z</time>
      </trkpt>
      <trkpt lat="47.53474" lon="6.25352">
        <ele>269</ele>
        <time>2022-06-19T09:58:14Z</time>
      </trkpt>
      <trkpt lat="47.53429" lon="6.25292">
        <ele>270.2</ele>
        <time>2022-06-19T09:58:26Z</time>
      </trkpt>
      <trkpt lat="47.53407" lon="6.25263">
        <ele>268</ele>
        <time>2022-06-19T09:58:32Z</time>
      </trkpt>
      <trkpt lat="47.53392" lon="6.25244">
        <ele>270.6</ele>
        <time>2022-06-19T09:58:36Z</time>
      </trkpt>
      <trkpt lat="47.53355" lon="6.25198">
        <ele>269.8</ele>
        <time>2022-06-19T09:58:46Z</time>
      </trkpt>
      <trkpt lat="47.53351" lon="6.25193">
        <ele>269.8</ele>
        <time>2022-06-19T09:58:47Z</time>
      </trkpt>
      <trkpt lat="47.53313" lon="6.25157">
        <ele>271.4</ele>
        <time>2022-06-19T09:58:56Z</time>
      </trkpt>
      <trkpt lat="47.53262" lon="6.25122">
        <ele>270.6</ele>
        <time>2022-06-19T09:59:10Z</time>
      </trkpt>
      <trkpt lat="47.53226" lon="6.25104">
        <ele>269.6</ele>
        <time>2022-06-19T09:59:32Z</time>
      </trkpt>
      <trkpt lat="47.5322" lon="6.25097">
        <ele>270</ele>
        <time>2022-06-19T10:00:49Z</time>
      </trkpt>
      <trkpt lat="47.532" lon="6.25088">
        <ele>269.6</ele>
        <time>2022-06-19T10:00:55Z</time>
      </trkpt>
      <trkpt lat="47.53197" lon="6.25087">
        <ele>269.8</ele>
        <time>2022-06-19T10:00:56Z</time>
      </trkpt>
      <trkpt lat="47.53193" lon="6.25086">
        <ele>270</ele>
        <time>2022-06-19T10:00:57Z</time>
      </trkpt>
      <trkpt lat="47.53144" lon="6.25074">
        <ele>269.8</ele>
        <time>2022-06-19T10:01:07Z</time>
      </trkpt>
      <trkpt lat="47.53091" lon="6.2507">
        <ele>268.6</ele>
        <time>2022-06-19T10:01:17Z</time>
      </trkpt>
      <trkpt lat="47.53026" lon="6.2507">
        <ele>268.4</ele>
        <time>2022-06-19T10:01:28Z</time>
      </trkpt>
      <trkpt lat="47.52963" lon="6.25071">
        <ele>268.8</ele>
        <time>2022-06-19T10:01:39Z</time>
      </trkpt>
      <trkpt lat="47.52925" lon="6.25069">
        <ele>268.4</ele>
        <time>2022-06-19T10:01:46Z</time>
      </trkpt>
      <trkpt lat="47.52864" lon="6.2507">
        <ele>268.8</ele>
        <time>2022-06-19T10:01:58Z</time>
      </trkpt>
      <trkpt lat="47.5286" lon="6.2507">
        <ele>268.8</ele>
        <time>2022-06-19T10:01:59Z</time>
      </trkpt>
      <trkpt lat="47.5285" lon="6.25069">
        <ele>268.8</ele>
        <time>2022-06-19T10:02:01Z</time>
      </trkpt>
      <trkpt lat="47.52845" lon="6.25068">
        <ele>268.8</ele>
        <time>2022-06-19T10:02:02Z</time>
      </trkpt>
      <trkpt lat="47.5284" lon="6.25068">
        <ele>268.8</ele>
        <time>2022-06-19T10:02:03Z</time>
      </trkpt>
      <trkpt lat="47.5278" lon="6.25055">
        <ele>268.8</ele>
        <time>2022-06-19T10:02:15Z</time>
      </trkpt>
      <trkpt lat="47.52719" lon="6.25028">
        <ele>269</ele>
        <time>2022-06-19T10:02:28Z</time>
      </trkpt>
      <trkpt lat="47.52665" lon="6.24998">
        <ele>268.6</ele>
        <time>2022-06-19T10:02:40Z</time>
      </trkpt>
      <trkpt lat="47.52638" lon="6.24981">
        <ele>269</ele>
        <time>2022-06-19T10:02:46Z</time>
      </trkpt>
      <trkpt lat="47.52634" lon="6.24978">
        <ele>269</ele>
        <time>2022-06-19T10:02:47Z</time>
      </trkpt>
      <trkpt lat="47.52582" lon="6.24945">
        <ele>268.2</ele>
        <time>2022-06-19T10:02:58Z</time>
      </trkpt>
      <trkpt lat="47.52527" lon="6.24909">
        <ele>267.2</ele>
        <time>2022-06-19T10:03:08Z</time>
      </trkpt>
      <trkpt lat="47.52468" lon="6.24872">
        <ele>265.8</ele>
        <time>2022-06-19T10:03:18Z</time>
      </trkpt>
      <trkpt lat="47.52411" lon="6.24837">
        <ele>264</ele>
        <time>2022-06-19T10:03:28Z</time>
      </trkpt>
      <trkpt lat="47.52365" lon="6.24808">
        <ele>265</ele>
        <time>2022-06-19T10:03:36Z</time>
      </trkpt>
      <trkpt lat="47.52307" lon="6.2477">
        <ele>263.4</ele>
        <time>2022-06-19T10:03:46Z</time>
      </trkpt>
      <trkpt lat="47.52256" lon="6.24729">
        <ele>261</ele>
        <time>2022-06-19T10:03:56Z</time>
      </trkpt>
      <trkpt lat="47.52217" lon="6.24697">
        <ele>263.4</ele>
        <time>2022-06-19T10:04:04Z</time>
      </trkpt>
      <trkpt lat="47.52164" lon="6.24655">
        <ele>263</ele>
        <time>2022-06-19T10:04:14Z</time>
      </trkpt>
      <trkpt lat="47.52111" lon="6.2461">
        <ele>261.6</ele>
        <time>2022-06-19T10:04:24Z</time>
      </trkpt>
      <trkpt lat="47.52094" lon="6.24594">
        <ele>264.4</ele>
        <time>2022-06-19T10:04:28Z</time>
      </trkpt>
      <trkpt lat="47.52044" lon="6.24552">
        <ele>265.2</ele>
        <time>2022-06-19T10:04:41Z</time>
      </trkpt>
      <trkpt lat="47.5202" lon="6.24532">
        <ele>263.4</ele>
        <time>2022-06-19T10:04:46Z</time>
      </trkpt>
      <trkpt lat="47.5197" lon="6.24488">
        <ele>262.6</ele>
        <time>2022-06-19T10:04:56Z</time>
      </trkpt>
      <trkpt lat="47.5192" lon="6.24446">
        <ele>262.8</ele>
        <time>2022-06-19T10:05:06Z</time>
      </trkpt>
      <trkpt lat="47.51869" lon="6.24403">
        <ele>260.4</ele>
        <time>2022-06-19T10:05:17Z</time>
      </trkpt>
      <trkpt lat="47.51857" lon="6.24393">
        <ele>264</ele>
        <time>2022-06-19T10:05:20Z</time>
      </trkpt>
      <trkpt lat="47.51807" lon="6.24344">
        <ele>264.6</ele>
        <time>2022-06-19T10:05:34Z</time>
      </trkpt>
      <trkpt lat="47.51757" lon="6.24291">
        <ele>265</ele>
        <time>2022-06-19T10:05:47Z</time>
      </trkpt>
      <trkpt lat="47.51707" lon="6.2424">
        <ele>265</ele>
        <time>2022-06-19T10:05:59Z</time>
      </trkpt>
      <trkpt lat="47.51654" lon="6.24188">
        <ele>264.8</ele>
        <time>2022-06-19T10:06:11Z</time>
      </trkpt>
      <trkpt lat="47.51603" lon="6.2414">
        <ele>264.8</ele>
        <time>2022-06-19T10:06:23Z</time>
      </trkpt>
      <trkpt lat="47.51595" lon="6.24132">
        <ele>264.8</ele>
        <time>2022-06-19T10:06:25Z</time>
      </trkpt>
      <trkpt lat="47.51542" lon="6.24081">
        <ele>265.4</ele>
        <time>2022-06-19T10:06:37Z</time>
      </trkpt>
      <trkpt lat="47.51493" lon="6.24035">
        <ele>265.2</ele>
        <time>2022-06-19T10:06:48Z</time>
      </trkpt>
      <trkpt lat="47.51488" lon="6.24031">
        <ele>265.2</ele>
        <time>2022-06-19T10:06:49Z</time>
      </trkpt>
      <trkpt lat="47.51438" lon="6.23984">
        <ele>266</ele>
        <time>2022-06-19T10:07:01Z</time>
      </trkpt>
      <trkpt lat="47.51387" lon="6.23934">
        <ele>265</ele>
        <time>2022-06-19T10:07:15Z</time>
      </trkpt>
      <trkpt lat="47.51369" lon="6.23916">
        <ele>264.8</ele>
        <time>2022-06-19T10:07:20Z</time>
      </trkpt>
      <trkpt lat="47.51323" lon="6.23873">
        <ele>264.6</ele>
        <time>2022-06-19T10:07:32Z</time>
      </trkpt>
      <trkpt lat="47.51319" lon="6.23871">
        <ele>264.6</ele>
        <time>2022-06-19T10:07:33Z</time>
      </trkpt>
      <trkpt lat="47.51315" lon="6.23869">
        <ele>264.4</ele>
        <time>2022-06-19T10:07:34Z</time>
      </trkpt>
      <trkpt lat="47.51297" lon="6.23865">
        <ele>264.6</ele>
        <time>2022-06-19T10:07:38Z</time>
      </trkpt>
      <trkpt lat="47.51289" lon="6.23861">
        <ele>264.8</ele>
        <time>2022-06-19T10:07:40Z</time>
      </trkpt>
      <trkpt lat="47.51238" lon="6.23814">
        <ele>264.6</ele>
        <time>2022-06-19T10:07:52Z</time>
      </trkpt>
      <trkpt lat="47.51221" lon="6.23789">
        <ele>264.2</ele>
        <time>2022-06-19T10:07:57Z</time>
      </trkpt>
      <trkpt lat="47.51215" lon="6.23777">
        <ele>264.4</ele>
        <time>2022-06-19T10:07:59Z</time>
      </trkpt>
      <trkpt lat="47.51211" lon="6.23772">
        <ele>264.4</ele>
        <time>2022-06-19T10:08:00Z</time>
      </trkpt>
      <trkpt lat="47.51207" lon="6.23767">
        <ele>264.4</ele>
        <time>2022-06-19T10:08:01Z</time>
      </trkpt>
      <trkpt lat="47.51203" lon="6.23763">
        <ele>264.4</ele>
        <time>2022-06-19T10:08:02Z</time>
      </trkpt>
      <trkpt lat="47.51199" lon="6.23759">
        <ele>264.4</ele>
        <time>2022-06-19T10:08:03Z</time>
      </trkpt>
      <trkpt lat="47.51144" lon="6.23718">
        <ele>263.6</ele>
        <time>2022-06-19T10:08:15Z</time>
      </trkpt>
      <trkpt lat="47.51088" lon="6.23685">
        <ele>264.8</ele>
        <time>2022-06-19T10:08:26Z</time>
      </trkpt>
      <trkpt lat="47.51031" lon="6.23653">
        <ele>263.6</ele>
        <time>2022-06-19T10:08:38Z</time>
      </trkpt>
      <trkpt lat="47.50975" lon="6.23625">
        <ele>264.4</ele>
        <time>2022-06-19T10:08:52Z</time>
      </trkpt>
      <trkpt lat="47.50926" lon="6.23587">
        <ele>264.6</ele>
        <time>2022-06-19T10:09:10Z</time>
      </trkpt>
      <trkpt lat="47.50875" lon="6.23544">
        <ele>265</ele>
        <time>2022-06-19T10:09:21Z</time>
      </trkpt>
      <trkpt lat="47.50826" lon="6.23492">
        <ele>265</ele>
        <time>2022-06-19T10:09:33Z</time>
      </trkpt>
      <trkpt lat="47.50822" lon="6.23488">
        <ele>264.8</ele>
        <time>2022-06-19T10:09:34Z</time>
      </trkpt>
      <trkpt lat="47.5078" lon="6.23443">
        <ele>263.2</ele>
        <time>2022-06-19T10:09:45Z</time>
      </trkpt>
      <trkpt lat="47.50732" lon="6.23391">
        <ele>264.4</ele>
        <time>2022-06-19T10:09:58Z</time>
      </trkpt>
      <trkpt lat="47.50708" lon="6.23365">
        <ele>266</ele>
        <time>2022-06-19T10:10:04Z</time>
      </trkpt>
      <trkpt lat="47.50656" lon="6.23314">
        <ele>266.2</ele>
        <time>2022-06-19T10:10:15Z</time>
      </trkpt>
      <trkpt lat="47.50607" lon="6.23261">
        <ele>266</ele>
        <time>2022-06-19T10:10:26Z</time>
      </trkpt>
      <trkpt lat="47.50593" lon="6.23246">
        <ele>265.8</ele>
        <time>2022-06-19T10:10:29Z</time>
      </trkpt>
      <trkpt lat="47.50588" lon="6.23242">
        <ele>265.8</ele>
        <time>2022-06-19T10:10:30Z</time>
      </trkpt>
      <trkpt lat="47.5054" lon="6.23194">
        <ele>264</ele>
        <time>2022-06-19T10:10:40Z</time>
      </trkpt>
      <trkpt lat="47.50487" lon="6.23144">
        <ele>263</ele>
        <time>2022-06-19T10:10:51Z</time>
      </trkpt>
      <trkpt lat="47.50432" lon="6.231">
        <ele>261.2</ele>
        <time>2022-06-19T10:11:02Z</time>
      </trkpt>
      <trkpt lat="47.50377" lon="6.23055">
        <ele>261</ele>
        <time>2022-06-19T10:11:13Z</time>
      </trkpt>
      <trkpt lat="47.50323" lon="6.23006">
        <ele>262.2</ele>
        <time>2022-06-19T10:11:24Z</time>
      </trkpt>
      <trkpt lat="47.50266" lon="6.22961">
        <ele>262.6</ele>
        <time>2022-06-19T10:11:35Z</time>
      </trkpt>
      <trkpt lat="47.50214" lon="6.22918">
        <ele>261</ele>
        <time>2022-06-19T10:11:46Z</time>
      </trkpt>
      <trkpt lat="47.50165" lon="6.22874">
        <ele>263.2</ele>
        <time>2022-06-19T10:11:57Z</time>
      </trkpt>
      <trkpt lat="47.5011" lon="6.22831">
        <ele>263</ele>
        <time>2022-06-19T10:12:08Z</time>
      </trkpt>
      <trkpt lat="47.50057" lon="6.22791">
        <ele>263.2</ele>
        <time>2022-06-19T10:12:19Z</time>
      </trkpt>
      <trkpt lat="47.50004" lon="6.2275">
        <ele>261.8</ele>
        <time>2022-06-19T10:12:30Z</time>
      </trkpt>
      <trkpt lat="47.4995" lon="6.22711">
        <ele>262.4</ele>
        <time>2022-06-19T10:12:41Z</time>
      </trkpt>
      <trkpt lat="47.49895" lon="6.22674">
        <ele>262.4</ele>
        <time>2022-06-19T10:12:52Z</time>
      </trkpt>
      <trkpt lat="47.49837" lon="6.22639">
        <ele>261.8</ele>
        <time>2022-06-19T10:13:03Z</time>
      </trkpt>
      <trkpt lat="47.49779" lon="6.22612">
        <ele>262</ele>
        <time>2022-06-19T10:13:14Z</time>
      </trkpt>
      <trkpt lat="47.49723" lon="6.22589">
        <ele>261.2</ele>
        <time>2022-06-19T10:13:25Z</time>
      </trkpt>
      <trkpt lat="47.49666" lon="6.22565">
        <ele>262.2</ele>
        <time>2022-06-19T10:13:36Z</time>
      </trkpt>
      <trkpt lat="47.49607" lon="6.22543">
        <ele>262</ele>
        <time>2022-06-19T10:13:47Z</time>
      </trkpt>
      <trkpt lat="47.49548" lon="6.22518">
        <ele>261.4</ele>
        <time>2022-06-19T10:13:58Z</time>
      </trkpt>
      <trkpt lat="47.49485" lon="6.22507">
        <ele>260.6</ele>
        <time>2022-06-19T10:14:09Z</time>
      </trkpt>
      <trkpt lat="47.49425" lon="6.22496">
        <ele>260.6</ele>
        <time>2022-06-19T10:14:19Z</time>
      </trkpt>
      <trkpt lat="47.49363" lon="6.2248">
        <ele>261.2</ele>
        <time>2022-06-19T10:14:30Z</time>
      </trkpt>
      <trkpt lat="47.49347" lon="6.22475">
        <ele>260</ele>
        <time>2022-06-19T10:14:33Z</time>
      </trkpt>
      <trkpt lat="47.49342" lon="6.22473">
        <ele>259.8</ele>
        <time>2022-06-19T10:14:34Z</time>
      </trkpt>
      <trkpt lat="47.49336" lon="6.22472">
        <ele>259.8</ele>
        <time>2022-06-19T10:14:35Z</time>
      </trkpt>
      <trkpt lat="47.49331" lon="6.2247">
        <ele>260.2</ele>
        <time>2022-06-19T10:14:36Z</time>
      </trkpt>
      <trkpt lat="47.49298" lon="6.2246">
        <ele>260.4</ele>
        <time>2022-06-19T10:14:42Z</time>
      </trkpt>
      <trkpt lat="47.49239" lon="6.22444">
        <ele>259</ele>
        <time>2022-06-19T10:14:53Z</time>
      </trkpt>
      <trkpt lat="47.49205" lon="6.22434">
        <ele>262.4</ele>
        <time>2022-06-19T10:15:00Z</time>
      </trkpt>
      <trkpt lat="47.49201" lon="6.22433">
        <ele>262.6</ele>
        <time>2022-06-19T10:15:01Z</time>
      </trkpt>
      <trkpt lat="47.49178" lon="6.22426">
        <ele>263</ele>
        <time>2022-06-19T10:15:06Z</time>
      </trkpt>
      <trkpt lat="47.49163" lon="6.22421">
        <ele>262.8</ele>
        <time>2022-06-19T10:15:09Z</time>
      </trkpt>
      <trkpt lat="47.49111" lon="6.22407">
        <ele>262.8</ele>
        <time>2022-06-19T10:15:20Z</time>
      </trkpt>
      <trkpt lat="47.49051" lon="6.22403">
        <ele>261.8</ele>
        <time>2022-06-19T10:15:35Z</time>
      </trkpt>
      <trkpt lat="47.48992" lon="6.22405">
        <ele>262.8</ele>
        <time>2022-06-19T10:16:02Z</time>
      </trkpt>
      <trkpt lat="47.48934" lon="6.2242">
        <ele>263.4</ele>
        <time>2022-06-19T10:16:19Z</time>
      </trkpt>
      <trkpt lat="47.48875" lon="6.2245">
        <ele>264.4</ele>
        <time>2022-06-19T10:16:34Z</time>
      </trkpt>
      <trkpt lat="47.48821" lon="6.22493">
        <ele>265.8</ele>
        <time>2022-06-19T10:16:50Z</time>
      </trkpt>
      <trkpt lat="47.4877" lon="6.22555">
        <ele>266.4</ele>
        <time>2022-06-19T10:17:09Z</time>
      </trkpt>
      <trkpt lat="47.48724" lon="6.22617">
        <ele>267</ele>
        <time>2022-06-19T10:17:27Z</time>
      </trkpt>
      <trkpt lat="47.48683" lon="6.22697">
        <ele>268.8</ele>
        <time>2022-06-19T10:17:44Z</time>
      </trkpt>
      <trkpt lat="47.48673" lon="6.22726">
        <ele>268</ele>
        <time>2022-06-19T10:17:49Z</time>
      </trkpt>
      <trkpt lat="47.48673" lon="6.22734">
        <ele>267.6</ele>
        <time>2022-06-19T10:17:50Z</time>
      </trkpt>
      <trkpt lat="47.48674" lon="6.22743">
        <ele>267.2</ele>
        <time>2022-06-19T10:17:51Z</time>
      </trkpt>
      <trkpt lat="47.48674" lon="6.22759">
        <ele>266.2</ele>
        <time>2022-06-19T10:17:53Z</time>
      </trkpt>
      <trkpt lat="47.48672" lon="6.22765">
        <ele>265.8</ele>
        <time>2022-06-19T10:17:54Z</time>
      </trkpt>
      <trkpt lat="47.48668" lon="6.22767">
        <ele>265.4</ele>
        <time>2022-06-19T10:17:55Z</time>
      </trkpt>
      <trkpt lat="47.48665" lon="6.22767">
        <ele>265</ele>
        <time>2022-06-19T10:17:56Z</time>
      </trkpt>
      <trkpt lat="47.48663" lon="6.22767">
        <ele>264.6</ele>
        <time>2022-06-19T10:17:57Z</time>
      </trkpt>
      <trkpt lat="47.4866" lon="6.22766">
        <ele>264.4</ele>
        <time>2022-06-19T10:17:58Z</time>
      </trkpt>
      <trkpt lat="47.48658" lon="6.22764">
        <ele>264.4</ele>
        <time>2022-06-19T10:17:59Z</time>
      </trkpt>
      <trkpt lat="47.48656" lon="6.22762">
        <ele>264.4</ele>
        <time>2022-06-19T10:18:00Z</time>
      </trkpt>
      <trkpt lat="47.48654" lon="6.2276">
        <ele>264.4</ele>
        <time>2022-06-19T10:18:01Z</time>
      </trkpt>
      <trkpt lat="47.48652" lon="6.22757">
        <ele>264.4</ele>
        <time>2022-06-19T10:18:02Z</time>
      </trkpt>
      <trkpt lat="47.48651" lon="6.22754">
        <ele>264.6</ele>
        <time>2022-06-19T10:18:03Z</time>
      </trkpt>
      <trkpt lat="47.4865" lon="6.2275">
        <ele>264.8</ele>
        <time>2022-06-19T10:18:04Z</time>
      </trkpt>
      <trkpt lat="47.48649" lon="6.22747">
        <ele>265</ele>
        <time>2022-06-19T10:18:05Z</time>
      </trkpt>
      <trkpt lat="47.4864" lon="6.22735">
        <ele>266.8</ele>
        <time>2022-06-19T10:18:13Z</time>
      </trkpt>
      <trkpt lat="47.4864" lon="6.22738">
        <ele>267</ele>
        <time>2022-06-19T10:18:14Z</time>
      </trkpt>
      <trkpt lat="47.4864" lon="6.22742">
        <ele>267</ele>
        <time>2022-06-19T10:18:15Z</time>
      </trkpt>
      <trkpt lat="47.48644" lon="6.22819">
        <ele>270</ele>
        <time>2022-06-19T10:18:38Z</time>
      </trkpt>
      <trkpt lat="47.48629" lon="6.22901">
        <ele>271.4</ele>
        <time>2022-06-19T10:18:59Z</time>
      </trkpt>
      <trkpt lat="47.48609" lon="6.22987">
        <ele>272.4</ele>
        <time>2022-06-19T10:19:15Z</time>
      </trkpt>
      <trkpt lat="47.48592" lon="6.23072">
        <ele>273.6</ele>
        <time>2022-06-19T10:19:29Z</time>
      </trkpt>
      <trkpt lat="47.48591" lon="6.2308">
        <ele>273.8</ele>
        <time>2022-06-19T10:19:30Z</time>
      </trkpt>
      <trkpt lat="47.48588" lon="6.23087">
        <ele>274</ele>
        <time>2022-06-19T10:19:31Z</time>
      </trkpt>
      <trkpt lat="47.48586" lon="6.23094">
        <ele>274.2</ele>
        <time>2022-06-19T10:19:32Z</time>
      </trkpt>
      <trkpt lat="47.48573" lon="6.2313">
        <ele>274.6</ele>
        <time>2022-06-19T10:19:37Z</time>
      </trkpt>
      <trkpt lat="47.48562" lon="6.2315">
        <ele>274.8</ele>
        <time>2022-06-19T10:19:40Z</time>
      </trkpt>
      <trkpt lat="47.48554" lon="6.23167">
        <ele>275</ele>
        <time>2022-06-19T10:19:43Z</time>
      </trkpt>
      <trkpt lat="47.48543" lon="6.23194">
        <ele>275</ele>
        <time>2022-06-19T10:19:48Z</time>
      </trkpt>
      <trkpt lat="47.4854" lon="6.232">
        <ele>275.2</ele>
        <time>2022-06-19T10:19:49Z</time>
      </trkpt>
      <trkpt lat="47.48538" lon="6.23206">
        <ele>275.4</ele>
        <time>2022-06-19T10:19:50Z</time>
      </trkpt>
      <trkpt lat="47.48536" lon="6.23212">
        <ele>275.4</ele>
        <time>2022-06-19T10:19:51Z</time>
      </trkpt>
      <trkpt lat="47.48534" lon="6.23218">
        <ele>275.6</ele>
        <time>2022-06-19T10:19:52Z</time>
      </trkpt>
      <trkpt lat="47.48496" lon="6.23288">
        <ele>275.8</ele>
        <time>2022-06-19T10:20:06Z</time>
      </trkpt>
      <trkpt lat="47.48492" lon="6.23293">
        <ele>276</ele>
        <time>2022-06-19T10:20:07Z</time>
      </trkpt>
      <trkpt lat="47.48482" lon="6.23307">
        <ele>276.4</ele>
        <time>2022-06-19T10:20:10Z</time>
      </trkpt>
      <trkpt lat="47.48464" lon="6.23325">
        <ele>276.8</ele>
        <time>2022-06-19T10:20:15Z</time>
      </trkpt>
      <trkpt lat="47.4846" lon="6.23329">
        <ele>277</ele>
        <time>2022-06-19T10:20:16Z</time>
      </trkpt>
      <trkpt lat="47.48431" lon="6.23358">
        <ele>277.6</ele>
        <time>2022-06-19T10:20:24Z</time>
      </trkpt>
      <trkpt lat="47.48377" lon="6.23404">
        <ele>277.2</ele>
        <time>2022-06-19T10:20:38Z</time>
      </trkpt>
      <trkpt lat="47.48365" lon="6.23413">
        <ele>277.4</ele>
        <time>2022-06-19T10:20:41Z</time>
      </trkpt>
      <trkpt lat="47.48361" lon="6.23415">
        <ele>277.4</ele>
        <time>2022-06-19T10:20:42Z</time>
      </trkpt>
      <trkpt lat="47.48357" lon="6.23418">
        <ele>277.6</ele>
        <time>2022-06-19T10:20:43Z</time>
      </trkpt>
      <trkpt lat="47.48339" lon="6.23429">
        <ele>277.8</ele>
        <time>2022-06-19T10:20:48Z</time>
      </trkpt>
      <trkpt lat="47.48335" lon="6.23431">
        <ele>277.8</ele>
        <time>2022-06-19T10:20:49Z</time>
      </trkpt>
      <trkpt lat="47.48274" lon="6.23451">
        <ele>278.8</ele>
        <time>2022-06-19T10:21:04Z</time>
      </trkpt>
      <trkpt lat="47.4822" lon="6.23461">
        <ele>279.8</ele>
        <time>2022-06-19T10:21:17Z</time>
      </trkpt>
      <trkpt lat="47.4816" lon="6.2347">
        <ele>281.4</ele>
        <time>2022-06-19T10:21:31Z</time>
      </trkpt>
      <trkpt lat="47.48102" lon="6.2347">
        <ele>283</ele>
        <time>2022-06-19T10:21:46Z</time>
      </trkpt>
      <trkpt lat="47.48038" lon="6.23465">
        <ele>284</ele>
        <time>2022-06-19T10:22:03Z</time>
      </trkpt>
      <trkpt lat="47.47977" lon="6.2347">
        <ele>285</ele>
        <time>2022-06-19T10:22:19Z</time>
      </trkpt>
      <trkpt lat="47.47914" lon="6.23471">
        <ele>285.6</ele>
        <time>2022-06-19T10:22:35Z</time>
      </trkpt>
      <trkpt lat="47.47852" lon="6.23478">
        <ele>286.2</ele>
        <time>2022-06-19T10:22:50Z</time>
      </trkpt>
      <trkpt lat="47.47788" lon="6.23498">
        <ele>287.2</ele>
        <time>2022-06-19T10:23:06Z</time>
      </trkpt>
      <trkpt lat="47.4773" lon="6.2352">
        <ele>288.2</ele>
        <time>2022-06-19T10:23:22Z</time>
      </trkpt>
      <trkpt lat="47.47672" lon="6.23539">
        <ele>289</ele>
        <time>2022-06-19T10:23:37Z</time>
      </trkpt>
      <trkpt lat="47.47617" lon="6.2356">
        <ele>289.8</ele>
        <time>2022-06-19T10:23:51Z</time>
      </trkpt>
      <trkpt lat="47.47561" lon="6.23584">
        <ele>290.2</ele>
        <time>2022-06-19T10:24:05Z</time>
      </trkpt>
      <trkpt lat="47.47553" lon="6.23588">
        <ele>290.2</ele>
        <time>2022-06-19T10:24:07Z</time>
      </trkpt>
      <trkpt lat="47.47549" lon="6.23589">
        <ele>290</ele>
        <time>2022-06-19T10:24:08Z</time>
      </trkpt>
      <trkpt lat="47.47545" lon="6.23591">
        <ele>290</ele>
        <time>2022-06-19T10:24:09Z</time>
      </trkpt>
      <trkpt lat="47.47486" lon="6.2361">
        <ele>290.2</ele>
        <time>2022-06-19T10:24:22Z</time>
      </trkpt>
      <trkpt lat="47.47427" lon="6.23634">
        <ele>290.4</ele>
        <time>2022-06-19T10:24:34Z</time>
      </trkpt>
      <trkpt lat="47.47377" lon="6.2365">
        <ele>290.2</ele>
        <time>2022-06-19T10:24:44Z</time>
      </trkpt>
      <trkpt lat="47.47374" lon="6.23653">
        <ele>290.2</ele>
        <time>2022-06-19T10:24:45Z</time>
      </trkpt>
      <trkpt lat="47.47371" lon="6.23659">
        <ele>290.2</ele>
        <time>2022-06-19T10:24:46Z</time>
      </trkpt>
      <trkpt lat="47.4737" lon="6.23667">
        <ele>290.2</ele>
        <time>2022-06-19T10:24:47Z</time>
      </trkpt>
      <trkpt lat="47.47369" lon="6.23674">
        <ele>290.2</ele>
        <time>2022-06-19T10:24:48Z</time>
      </trkpt>
      <trkpt lat="47.4737" lon="6.2368">
        <ele>290</ele>
        <time>2022-06-19T10:24:49Z</time>
      </trkpt>
      <trkpt lat="47.47369" lon="6.23686">
        <ele>289.8</ele>
        <time>2022-06-19T10:24:50Z</time>
      </trkpt>
      <trkpt lat="47.47368" lon="6.23692">
        <ele>289.8</ele>
        <time>2022-06-19T10:24:51Z</time>
      </trkpt>
      <trkpt lat="47.47366" lon="6.23696">
        <ele>289.8</ele>
        <time>2022-06-19T10:24:52Z</time>
      </trkpt>
      <trkpt lat="47.47362" lon="6.23699">
        <ele>290</ele>
        <time>2022-06-19T10:24:53Z</time>
      </trkpt>
      <trkpt lat="47.47358" lon="6.23701">
        <ele>290.2</ele>
        <time>2022-06-19T10:24:54Z</time>
      </trkpt>
      <trkpt lat="47.47354" lon="6.23703">
        <ele>290.4</ele>
        <time>2022-06-19T10:24:55Z</time>
      </trkpt>
      <trkpt lat="47.4735" lon="6.23704">
        <ele>290.4</ele>
        <time>2022-06-19T10:24:56Z</time>
      </trkpt>
      <trkpt lat="47.47325" lon="6.23718">
        <ele>290.8</ele>
        <time>2022-06-19T10:25:03Z</time>
      </trkpt>
      <trkpt lat="47.47325" lon="6.23723">
        <ele>290.6</ele>
        <time>2022-06-19T10:25:04Z</time>
      </trkpt>
      <trkpt lat="47.47325" lon="6.23727">
        <ele>290.6</ele>
        <time>2022-06-19T10:25:05Z</time>
      </trkpt>
      <trkpt lat="47.47324" lon="6.23732">
        <ele>290.6</ele>
        <time>2022-06-19T10:25:06Z</time>
      </trkpt>
      <trkpt lat="47.47322" lon="6.23736">
        <ele>290.4</ele>
        <time>2022-06-19T10:25:07Z</time>
      </trkpt>
      <trkpt lat="47.47319" lon="6.23752">
        <ele>291</ele>
        <time>2022-06-19T10:25:12Z</time>
      </trkpt>
      <trkpt lat="47.47317" lon="6.23753">
        <ele>291.2</ele>
        <time>2022-06-19T10:25:13Z</time>
      </trkpt>
      <trkpt lat="47.47314" lon="6.23754">
        <ele>291.4</ele>
        <time>2022-06-19T10:25:14Z</time>
      </trkpt>
      <trkpt lat="47.47297" lon="6.2376">
        <ele>291.6</ele>
        <time>2022-06-19T10:25:23Z</time>
      </trkpt>
      <trkpt lat="47.47297" lon="6.23762">
        <ele>291.6</ele>
        <time>2022-06-19T10:25:24Z</time>
      </trkpt>
      <trkpt lat="47.47297" lon="6.23763">
        <ele>291.6</ele>
        <time>2022-06-19T10:25:25Z</time>
      </trkpt>
      <trkpt lat="47.47339" lon="6.23811">
        <ele>294.6</ele>
        <time>2022-06-19T10:25:53Z</time>
      </trkpt>
      <trkpt lat="47.47355" lon="6.23836">
        <ele>296.4</ele>
        <time>2022-06-19T10:26:05Z</time>
      </trkpt>
      <trkpt lat="47.47355" lon="6.23839">
        <ele>296.6</ele>
        <time>2022-06-19T10:26:06Z</time>
      </trkpt>
      <trkpt lat="47.47355" lon="6.23841">
        <ele>296.8</ele>
        <time>2022-06-19T10:26:07Z</time>
      </trkpt>
      <trkpt lat="47.47354" lon="6.23844">
        <ele>297</ele>
        <time>2022-06-19T10:26:08Z</time>
      </trkpt>
      <trkpt lat="47.47352" lon="6.23846">
        <ele>297.2</ele>
        <time>2022-06-19T10:26:09Z</time>
      </trkpt>
      <trkpt lat="47.47351" lon="6.23848">
        <ele>297.2</ele>
        <time>2022-06-19T10:26:10Z</time>
      </trkpt>
      <trkpt lat="47.47311" lon="6.23905">
        <ele>298.8</ele>
        <time>2022-06-19T10:26:34Z</time>
      </trkpt>
      <trkpt lat="47.47272" lon="6.23969">
        <ele>299.2</ele>
        <time>2022-06-19T10:26:50Z</time>
      </trkpt>
      <trkpt lat="47.47236" lon="6.2403">
        <ele>299.2</ele>
        <time>2022-06-19T10:27:09Z</time>
      </trkpt>
      <trkpt lat="47.47236" lon="6.24029">
        <ele>299.2</ele>
        <time>2022-06-19T10:27:16Z</time>
      </trkpt>
      <trkpt lat="47.47231" lon="6.24034">
        <ele>299.4</ele>
        <time>2022-06-19T10:28:08Z</time>
      </trkpt>
      <trkpt lat="47.4723" lon="6.24036">
        <ele>299.2</ele>
        <time>2022-06-19T10:28:09Z</time>
      </trkpt>
      <trkpt lat="47.47194" lon="6.24105">
        <ele>301</ele>
        <time>2022-06-19T10:28:35Z</time>
      </trkpt>
      <trkpt lat="47.47161" lon="6.24174">
        <ele>303.8</ele>
        <time>2022-06-19T10:28:57Z</time>
      </trkpt>
      <trkpt lat="47.47149" lon="6.24255">
        <ele>304.8</ele>
        <time>2022-06-19T10:29:15Z</time>
      </trkpt>
      <trkpt lat="47.47149" lon="6.24338">
        <ele>304.6</ele>
        <time>2022-06-19T10:29:29Z</time>
      </trkpt>
      <trkpt lat="47.47149" lon="6.24426">
        <ele>304.8</ele>
        <time>2022-06-19T10:29:41Z</time>
      </trkpt>
      <trkpt lat="47.47149" lon="6.2451">
        <ele>304.6</ele>
        <time>2022-06-19T10:29:52Z</time>
      </trkpt>
      <trkpt lat="47.4714" lon="6.24588">
        <ele>304.2</ele>
        <time>2022-06-19T10:30:02Z</time>
      </trkpt>
      <trkpt lat="47.47137" lon="6.24595">
        <ele>304.2</ele>
        <time>2022-06-19T10:30:03Z</time>
      </trkpt>
      <trkpt lat="47.47105" lon="6.24664">
        <ele>303.8</ele>
        <time>2022-06-19T10:30:14Z</time>
      </trkpt>
      <trkpt lat="47.47068" lon="6.24734">
        <ele>302.8</ele>
        <time>2022-06-19T10:30:25Z</time>
      </trkpt>
      <trkpt lat="47.4703" lon="6.24802">
        <ele>301</ele>
        <time>2022-06-19T10:30:34Z</time>
      </trkpt>
      <trkpt lat="47.46992" lon="6.24872">
        <ele>299.4</ele>
        <time>2022-06-19T10:30:42Z</time>
      </trkpt>
      <trkpt lat="47.46954" lon="6.24942">
        <ele>297</ele>
        <time>2022-06-19T10:30:51Z</time>
      </trkpt>
      <trkpt lat="47.46914" lon="6.25018">
        <ele>295.2</ele>
        <time>2022-06-19T10:31:00Z</time>
      </trkpt>
      <trkpt lat="47.46872" lon="6.25092">
        <ele>293.8</ele>
        <time>2022-06-19T10:31:08Z</time>
      </trkpt>
      <trkpt lat="47.46834" lon="6.25162">
        <ele>290.2</ele>
        <time>2022-06-19T10:31:15Z</time>
      </trkpt>
      <trkpt lat="47.46829" lon="6.25172">
        <ele>290</ele>
        <time>2022-06-19T10:31:16Z</time>
      </trkpt>
      <trkpt lat="47.46789" lon="6.25249">
        <ele>289.8</ele>
        <time>2022-06-19T10:31:24Z</time>
      </trkpt>
      <trkpt lat="47.46771" lon="6.25287">
        <ele>286.6</ele>
        <time>2022-06-19T10:31:28Z</time>
      </trkpt>
      <trkpt lat="47.46763" lon="6.25306">
        <ele>285.6</ele>
        <time>2022-06-19T10:31:30Z</time>
      </trkpt>
      <trkpt lat="47.46741" lon="6.25386">
        <ele>284.2</ele>
        <time>2022-06-19T10:31:38Z</time>
      </trkpt>
      <trkpt lat="47.46727" lon="6.25475">
        <ele>285.6</ele>
        <time>2022-06-19T10:31:46Z</time>
      </trkpt>
      <trkpt lat="47.46715" lon="6.25565">
        <ele>283.4</ele>
        <time>2022-06-19T10:31:53Z</time>
      </trkpt>
      <trkpt lat="47.46701" lon="6.2566">
        <ele>280</ele>
        <time>2022-06-19T10:32:00Z</time>
      </trkpt>
      <trkpt lat="47.46688" lon="6.25752">
        <ele>278</ele>
        <time>2022-06-19T10:32:07Z</time>
      </trkpt>
      <trkpt lat="47.46674" lon="6.25839">
        <ele>275.4</ele>
        <time>2022-06-19T10:32:15Z</time>
      </trkpt>
      <trkpt lat="47.46671" lon="6.25855">
        <ele>274.8</ele>
        <time>2022-06-19T10:32:17Z</time>
      </trkpt>
      <trkpt lat="47.4667" lon="6.25862">
        <ele>274.4</ele>
        <time>2022-06-19T10:32:18Z</time>
      </trkpt>
      <trkpt lat="47.46668" lon="6.25867">
        <ele>274.2</ele>
        <time>2022-06-19T10:32:19Z</time>
      </trkpt>
      <trkpt lat="47.46652" lon="6.25937">
        <ele>271.6</ele>
        <time>2022-06-19T10:32:44Z</time>
      </trkpt>
      <trkpt lat="47.4664" lon="6.25952">
        <ele>270.8</ele>
        <time>2022-06-19T10:32:47Z</time>
      </trkpt>
      <trkpt lat="47.46614" lon="6.2598">
        <ele>268.8</ele>
        <time>2022-06-19T10:32:52Z</time>
      </trkpt>
      <trkpt lat="47.46609" lon="6.25986">
        <ele>268.2</ele>
        <time>2022-06-19T10:32:53Z</time>
      </trkpt>
      <trkpt lat="47.4657" lon="6.2605">
        <ele>265.8</ele>
        <time>2022-06-19T10:33:02Z</time>
      </trkpt>
      <trkpt lat="47.46563" lon="6.26067">
        <ele>265.4</ele>
        <time>2022-06-19T10:33:04Z</time>
      </trkpt>
      <trkpt lat="47.4656" lon="6.26077">
        <ele>265.2</ele>
        <time>2022-06-19T10:33:05Z</time>
      </trkpt>
      <trkpt lat="47.46558" lon="6.26087">
        <ele>265</ele>
        <time>2022-06-19T10:33:06Z</time>
      </trkpt>
      <trkpt lat="47.46556" lon="6.26098">
        <ele>264.8</ele>
        <time>2022-06-19T10:33:07Z</time>
      </trkpt>
      <trkpt lat="47.46555" lon="6.26109">
        <ele>264.2</ele>
        <time>2022-06-19T10:33:08Z</time>
      </trkpt>
      <trkpt lat="47.46543" lon="6.26166">
        <ele>262.2</ele>
        <time>2022-06-19T10:33:13Z</time>
      </trkpt>
      <trkpt lat="47.46539" lon="6.26177">
        <ele>261.2</ele>
        <time>2022-06-19T10:33:14Z</time>
      </trkpt>
      <trkpt lat="47.46519" lon="6.26226">
        <ele>258.2</ele>
        <time>2022-06-19T10:33:19Z</time>
      </trkpt>
      <trkpt lat="47.46508" lon="6.26251">
        <ele>256.6</ele>
        <time>2022-06-19T10:33:22Z</time>
      </trkpt>
      <trkpt lat="47.46503" lon="6.26259">
        <ele>256.6</ele>
        <time>2022-06-19T10:33:23Z</time>
      </trkpt>
      <trkpt lat="47.46471" lon="6.26301">
        <ele>254.6</ele>
        <time>2022-06-19T10:33:29Z</time>
      </trkpt>
      <trkpt lat="47.46419" lon="6.26356">
        <ele>253.2</ele>
        <time>2022-06-19T10:33:37Z</time>
      </trkpt>
      <trkpt lat="47.46385" lon="6.26391">
        <ele>252.2</ele>
        <time>2022-06-19T10:33:46Z</time>
      </trkpt>
      <trkpt lat="47.46385" lon="6.26393">
        <ele>252.2</ele>
        <time>2022-06-19T10:33:47Z</time>
      </trkpt>
      <trkpt lat="47.46387" lon="6.26393">
        <ele>252</ele>
        <time>2022-06-19T10:33:50Z</time>
      </trkpt>
      <trkpt lat="47.46389" lon="6.26391">
        <ele>251.8</ele>
        <time>2022-06-19T10:33:51Z</time>
      </trkpt>
      <trkpt lat="47.46391" lon="6.26389">
        <ele>252</ele>
        <time>2022-06-19T10:33:52Z</time>
      </trkpt>
      <trkpt lat="47.46421" lon="6.26356">
        <ele>252</ele>
        <time>2022-06-19T10:34:04Z</time>
      </trkpt>
      <trkpt lat="47.46423" lon="6.26356">
        <ele>252</ele>
        <time>2022-06-19T10:34:05Z</time>
      </trkpt>
      <trkpt lat="47.46425" lon="6.26358">
        <ele>252</ele>
        <time>2022-06-19T10:34:06Z</time>
      </trkpt>
      <trkpt lat="47.46427" lon="6.2636">
        <ele>252</ele>
        <time>2022-06-19T10:34:07Z</time>
      </trkpt>
      <trkpt lat="47.46427" lon="6.26363">
        <ele>252</ele>
        <time>2022-06-19T10:34:08Z</time>
      </trkpt>
      <trkpt lat="47.46427" lon="6.26366">
        <ele>252</ele>
        <time>2022-06-19T10:34:09Z</time>
      </trkpt>
      <trkpt lat="47.46427" lon="6.26369">
        <ele>252</ele>
        <time>2022-06-19T10:34:10Z</time>
      </trkpt>
      <trkpt lat="47.46423" lon="6.264">
        <ele>251</ele>
        <time>2022-06-19T10:34:19Z</time>
      </trkpt>
      <trkpt lat="47.46422" lon="6.26403">
        <ele>250.8</ele>
        <time>2022-06-19T10:34:20Z</time>
      </trkpt>
      <trkpt lat="47.46422" lon="6.26405">
        <ele>250.8</ele>
        <time>2022-06-19T10:34:21Z</time>
      </trkpt>
      <trkpt lat="47.46417" lon="6.26422">
        <ele>250</ele>
        <time>2022-06-19T10:34:35Z</time>
      </trkpt>
    </trkseg>
  </trk>
</gpx>